<?xml version="1.0" encoding="utf-8"?>
<gpx xmlns:xsi="http://www.w3.org/2001/XMLSchema-instance" xmlns:xsd="http://www.w3.org/2001/XMLSchema" version="1.1" creator="Shapelink.com" xmlns="http://www.topografix.com/GPX/1/1" xmlns:gpxtpx="http://www.garmin.com/xmlschemas/TrackPointExtension/v1">
  <metadata>
    <name>Löpning 6.09 km, 2018-01-08</name>
    <desc></desc>
    <author><name>Bengt-Åke Forslund</name></author> 
    <time>2018-01-08T18:06:17Z</time>
  </metadata>
  <trk>
    <name>Löpning 6.09 km, 2018-01-08</name>
    <trkseg>
      <trkpt lat="62.637172678159" lon="17.966251783666">
        <ele>46.8</ele>
        <time>2018-01-08T18:06:17Z</time>
      </trkpt>
      <trkpt lat="62.637165134449" lon="17.966237869712">
        <ele>47.4</ele>
        <time>2018-01-08T18:06:18Z</time>
      </trkpt>
      <trkpt lat="62.637146023717" lon="17.96622965545">
        <ele>48.2</ele>
        <time>2018-01-08T18:06:19Z</time>
      </trkpt>
      <trkpt lat="62.637122219121" lon="17.966225296862">
        <ele>0</ele>
        <time>2018-01-08T18:06:20Z</time>
      </trkpt>
      <trkpt lat="62.637095732317" lon="17.966210628537">
        <ele>47.8</ele>
        <time>2018-01-08T18:06:21Z</time>
      </trkpt>
      <trkpt lat="62.637074274653" lon="17.966196798402">
        <ele>47.8</ele>
        <time>2018-01-08T18:06:22Z</time>
      </trkpt>
      <trkpt lat="62.637061198889" lon="17.966173161444">
        <ele>48</ele>
        <time>2018-01-08T18:06:23Z</time>
      </trkpt>
      <trkpt lat="62.637045776193" lon="17.966145417355">
        <ele>48</ele>
        <time>2018-01-08T18:06:24Z</time>
      </trkpt>
      <trkpt lat="62.637044854184" lon="17.966115158696">
        <ele>48</ele>
        <time>2018-01-08T18:06:25Z</time>
      </trkpt>
      <trkpt lat="62.637049631867" lon="17.966084313304">
        <ele>48.2</ele>
        <time>2018-01-08T18:06:26Z</time>
      </trkpt>
      <trkpt lat="62.637050553876" lon="17.966043409632">
        <ele>48.2</ele>
        <time>2018-01-08T18:06:27Z</time>
      </trkpt>
      <trkpt lat="62.637095313222" lon="17.965984401056">
        <ele>48.2</ele>
        <time>2018-01-08T18:06:28Z</time>
      </trkpt>
      <trkpt lat="62.637106042054" lon="17.965898654219">
        <ele>48</ele>
        <time>2018-01-08T18:06:29Z</time>
      </trkpt>
      <trkpt lat="62.637112328479" lon="17.965831347562">
        <ele>48.2</ele>
        <time>2018-01-08T18:06:30Z</time>
      </trkpt>
      <trkpt lat="62.637112915212" lon="17.96577870923">
        <ele>48</ele>
        <time>2018-01-08T18:06:31Z</time>
      </trkpt>
      <trkpt lat="62.637111322651" lon="17.965727328183">
        <ele>48</ele>
        <time>2018-01-08T18:06:32Z</time>
      </trkpt>
      <trkpt lat="62.637107047882" lon="17.965682736475">
        <ele>48.2</ele>
        <time>2018-01-08T18:06:33Z</time>
      </trkpt>
      <trkpt lat="62.637103359846" lon="17.965640072604">
        <ele>48.4</ele>
        <time>2018-01-08T18:06:34Z</time>
      </trkpt>
      <trkpt lat="62.637090954634" lon="17.965584500607">
        <ele>48.2</ele>
        <time>2018-01-08T18:06:35Z</time>
      </trkpt>
      <trkpt lat="62.637079639069" lon="17.965541417641">
        <ele>48</ele>
        <time>2018-01-08T18:06:36Z</time>
      </trkpt>
      <trkpt lat="62.637068574961" lon="17.96550294472">
        <ele>48.2</ele>
        <time>2018-01-08T18:06:37Z</time>
      </trkpt>
      <trkpt lat="62.637053403722" lon="17.96545013875">
        <ele>48.2</ele>
        <time>2018-01-08T18:06:38Z</time>
      </trkpt>
      <trkpt lat="62.637039070673" lon="17.965409235078">
        <ele>48</ele>
        <time>2018-01-08T18:06:39Z</time>
      </trkpt>
      <trkpt lat="62.637025240538" lon="17.965367744673">
        <ele>48</ele>
        <time>2018-01-08T18:06:40Z</time>
      </trkpt>
      <trkpt lat="62.637011745679" lon="17.96532524844">
        <ele>48</ele>
        <time>2018-01-08T18:06:41Z</time>
      </trkpt>
      <trkpt lat="62.63699741263" lon="17.965284680044">
        <ele>48.2</ele>
        <time>2018-01-08T18:06:42Z</time>
      </trkpt>
      <trkpt lat="62.636979894459" lon="17.965231119703">
        <ele>48</ele>
        <time>2018-01-08T18:06:43Z</time>
      </trkpt>
      <trkpt lat="62.636963214478" lon="17.965187617642">
        <ele>47.8</ele>
        <time>2018-01-08T18:06:44Z</time>
      </trkpt>
      <trkpt lat="62.636949468162" lon="17.965160376467">
        <ele>48</ele>
        <time>2018-01-08T18:06:45Z</time>
      </trkpt>
      <trkpt lat="62.636937398226" lon="17.965121400632">
        <ele>48</ele>
        <time>2018-01-08T18:06:46Z</time>
      </trkpt>
      <trkpt lat="62.636921388797" lon="17.965085693738">
        <ele>47.8</ele>
        <time>2018-01-08T18:06:47Z</time>
      </trkpt>
      <trkpt lat="62.636906720472" lon="17.965044706247">
        <ele>48</ele>
        <time>2018-01-08T18:06:48Z</time>
      </trkpt>
      <trkpt lat="62.636888028835" lon="17.96501427995">
        <ele>48.2</ele>
        <time>2018-01-08T18:06:49Z</time>
      </trkpt>
      <trkpt lat="62.636862631678" lon="17.964975890848">
        <ele>48</ele>
        <time>2018-01-08T18:06:50Z</time>
      </trkpt>
      <trkpt lat="62.636839162358" lon="17.964926353819">
        <ele>48.2</ele>
        <time>2018-01-08T18:06:51Z</time>
      </trkpt>
      <trkpt lat="62.636816950323" lon="17.964883857586">
        <ele>48.2</ele>
        <time>2018-01-08T18:06:52Z</time>
      </trkpt>
      <trkpt lat="62.636790547338" lon="17.964841528991">
        <ele>48.2</ele>
        <time>2018-01-08T18:06:53Z</time>
      </trkpt>
      <trkpt lat="62.636769173493" lon="17.964804145717">
        <ele>48</ele>
        <time>2018-01-08T18:06:54Z</time>
      </trkpt>
      <trkpt lat="62.636748554019" lon="17.9647753958">
        <ele>48.2</ele>
        <time>2018-01-08T18:06:55Z</time>
      </trkpt>
      <trkpt lat="62.636726761079" lon="17.964733234843">
        <ele>48.4</ele>
        <time>2018-01-08T18:06:56Z</time>
      </trkpt>
      <trkpt lat="62.636705638691" lon="17.964697611768">
        <ele>48.2</ele>
        <time>2018-01-08T18:06:57Z</time>
      </trkpt>
      <trkpt lat="62.636688288158" lon="17.964658384476">
        <ele>48.2</ele>
        <time>2018-01-08T18:06:58Z</time>
      </trkpt>
      <trkpt lat="62.636703627035" lon="17.964582025367">
        <ele>48.4</ele>
        <time>2018-01-08T18:06:59Z</time>
      </trkpt>
      <trkpt lat="62.636698933171" lon="17.964532236881">
        <ele>48.4</ele>
        <time>2018-01-08T18:07:00Z</time>
      </trkpt>
      <trkpt lat="62.636692646746" lon="17.964479598549">
        <ele>48.4</ele>
        <time>2018-01-08T18:07:01Z</time>
      </trkpt>
      <trkpt lat="62.636684348665" lon="17.964431067348">
        <ele>48.4</ele>
        <time>2018-01-08T18:07:02Z</time>
      </trkpt>
      <trkpt lat="62.636676050584" lon="17.964386894735">
        <ele>48.6</ele>
        <time>2018-01-08T18:07:03Z</time>
      </trkpt>
      <trkpt lat="62.636666579037" lon="17.964335681326">
        <ele>48.6</ele>
        <time>2018-01-08T18:07:04Z</time>
      </trkpt>
      <trkpt lat="62.636655347291" lon="17.964284635555">
        <ele>48.4</ele>
        <time>2018-01-08T18:07:05Z</time>
      </trkpt>
      <trkpt lat="62.636642774441" lon="17.964237864553">
        <ele>48.6</ele>
        <time>2018-01-08T18:07:06Z</time>
      </trkpt>
      <trkpt lat="62.636633135256" lon="17.964189165714">
        <ele>48.4</ele>
        <time>2018-01-08T18:07:07Z</time>
      </trkpt>
      <trkpt lat="62.636622154967" lon="17.964144741644">
        <ele>48.2</ele>
        <time>2018-01-08T18:07:08Z</time>
      </trkpt>
      <trkpt lat="62.63661100704" lon="17.96409562371">
        <ele>48.2</ele>
        <time>2018-01-08T18:07:09Z</time>
      </trkpt>
      <trkpt lat="62.636600697303" lon="17.964059078626">
        <ele>48.4</ele>
        <time>2018-01-08T18:07:10Z</time>
      </trkpt>
      <trkpt lat="62.636589297919" lon="17.964009457778">
        <ele>48.2</ele>
        <time>2018-01-08T18:07:11Z</time>
      </trkpt>
      <trkpt lat="62.636578904363" lon="17.963961261853">
        <ele>48.2</ele>
        <time>2018-01-08T18:07:12Z</time>
      </trkpt>
      <trkpt lat="62.636564152219" lon="17.963917256878">
        <ele>48.2</ele>
        <time>2018-01-08T18:07:13Z</time>
      </trkpt>
      <trkpt lat="62.636548897161" lon="17.963862858347">
        <ele>48.4</ele>
        <time>2018-01-08T18:07:14Z</time>
      </trkpt>
      <trkpt lat="62.636537330139" lon="17.963814494784">
        <ele>48.2</ele>
        <time>2018-01-08T18:07:15Z</time>
      </trkpt>
      <trkpt lat="62.636524757289" lon="17.963774513121">
        <ele>48.2</ele>
        <time>2018-01-08T18:07:16Z</time>
      </trkpt>
      <trkpt lat="62.636507406756" lon="17.963735369648">
        <ele>48.4</ele>
        <time>2018-01-08T18:07:17Z</time>
      </trkpt>
      <trkpt lat="62.63648527854" lon="17.963708463749">
        <ele>48.2</ele>
        <time>2018-01-08T18:07:18Z</time>
      </trkpt>
      <trkpt lat="62.636463401781" lon="17.9636941307">
        <ele>48.2</ele>
        <time>2018-01-08T18:07:19Z</time>
      </trkpt>
      <trkpt lat="62.636441189746" lon="17.963693208691">
        <ele>48.2</ele>
        <time>2018-01-08T18:07:20Z</time>
      </trkpt>
      <trkpt lat="62.636418726254" lon="17.963705530084">
        <ele>48</ele>
        <time>2018-01-08T18:07:21Z</time>
      </trkpt>
      <trkpt lat="62.636393832011" lon="17.963712487061">
        <ele>48</ele>
        <time>2018-01-08T18:07:22Z</time>
      </trkpt>
      <trkpt lat="62.636367009931" lon="17.96372095278">
        <ele>47.8</ele>
        <time>2018-01-08T18:07:23Z</time>
      </trkpt>
      <trkpt lat="62.636338846747" lon="17.963727490662">
        <ele>48</ele>
        <time>2018-01-08T18:07:24Z</time>
      </trkpt>
      <trkpt lat="62.636318059635" lon="17.963736459295">
        <ele>48</ele>
        <time>2018-01-08T18:07:25Z</time>
      </trkpt>
      <trkpt lat="62.636302720758" lon="17.963761604995">
        <ele>48</ele>
        <time>2018-01-08T18:07:26Z</time>
      </trkpt>
      <trkpt lat="62.636280341085" lon="17.963780631908">
        <ele>48</ele>
        <time>2018-01-08T18:07:27Z</time>
      </trkpt>
      <trkpt lat="62.636263074371" lon="17.963801251382">
        <ele>48.4</ele>
        <time>2018-01-08T18:07:28Z</time>
      </trkpt>
      <trkpt lat="62.636241784345" lon="17.963831007127">
        <ele>48.2</ele>
        <time>2018-01-08T18:07:29Z</time>
      </trkpt>
      <trkpt lat="62.636221164871" lon="17.96386009232">
        <ele>48.2</ele>
        <time>2018-01-08T18:07:30Z</time>
      </trkpt>
      <trkpt lat="62.636204820166" lon="17.96389110535">
        <ele>48.4</ele>
        <time>2018-01-08T18:07:31Z</time>
      </trkpt>
      <trkpt lat="62.636186799081" lon="17.96390786915">
        <ele>48.4</ele>
        <time>2018-01-08T18:07:32Z</time>
      </trkpt>
      <trkpt lat="62.636159054992" lon="17.963938211628">
        <ele>48.2</ele>
        <time>2018-01-08T18:07:33Z</time>
      </trkpt>
      <trkpt lat="62.636143632296" lon="17.963959250197">
        <ele>48.4</ele>
        <time>2018-01-08T18:07:34Z</time>
      </trkpt>
      <trkpt lat="62.636118905691" lon="17.96399252634">
        <ele>48.6</ele>
        <time>2018-01-08T18:07:35Z</time>
      </trkpt>
      <trkpt lat="62.636099292045" lon="17.964010715063">
        <ele>48.4</ele>
        <time>2018-01-08T18:07:36Z</time>
      </trkpt>
      <trkpt lat="62.636076996191" lon="17.964030999261">
        <ele>48.4</ele>
        <time>2018-01-08T18:07:37Z</time>
      </trkpt>
      <trkpt lat="62.636055622346" lon="17.964060503549">
        <ele>48.4</ele>
        <time>2018-01-08T18:07:38Z</time>
      </trkpt>
      <trkpt lat="62.636036176338" lon="17.964079530462">
        <ele>48.6</ele>
        <time>2018-01-08T18:07:39Z</time>
      </trkpt>
      <trkpt lat="62.636010527724" lon="17.964106268723">
        <ele>48.4</ele>
        <time>2018-01-08T18:07:40Z</time>
      </trkpt>
      <trkpt lat="62.635990075888" lon="17.964130073319">
        <ele>48.6</ele>
        <time>2018-01-08T18:07:41Z</time>
      </trkpt>
      <trkpt lat="62.635969540233" lon="17.96415597339">
        <ele>48.8</ele>
        <time>2018-01-08T18:07:42Z</time>
      </trkpt>
      <trkpt lat="62.635948585483" lon="17.964176257588">
        <ele>48.8</ele>
        <time>2018-01-08T18:07:43Z</time>
      </trkpt>
      <trkpt lat="62.6359186621" lon="17.964207857351">
        <ele>48.6</ele>
        <time>2018-01-08T18:07:44Z</time>
      </trkpt>
      <trkpt lat="62.635891420925" lon="17.964238283648">
        <ele>48.8</ele>
        <time>2018-01-08T18:07:45Z</time>
      </trkpt>
      <trkpt lat="62.635869627985" lon="17.964252532878">
        <ele>48.8</ele>
        <time>2018-01-08T18:07:46Z</time>
      </trkpt>
      <trkpt lat="62.63584657776" lon="17.964281450433">
        <ele>48.8</ele>
        <time>2018-01-08T18:07:47Z</time>
      </trkpt>
      <trkpt lat="62.635820007137" lon="17.964306260857">
        <ele>48.8</ele>
        <time>2018-01-08T18:07:48Z</time>
      </trkpt>
      <trkpt lat="62.635799387663" lon="17.964324701037">
        <ele>48.8</ele>
        <time>2018-01-08T18:07:49Z</time>
      </trkpt>
      <trkpt lat="62.63577114066" lon="17.964348421814">
        <ele>49</ele>
        <time>2018-01-08T18:07:50Z</time>
      </trkpt>
      <trkpt lat="62.635747168426" lon="17.964373651333">
        <ele>49</ele>
        <time>2018-01-08T18:07:51Z</time>
      </trkpt>
      <trkpt lat="62.635728979703" lon="17.964384212527">
        <ele>49</ele>
        <time>2018-01-08T18:07:52Z</time>
      </trkpt>
      <trkpt lat="62.635706516211" lon="17.964405586372">
        <ele>49</ele>
        <time>2018-01-08T18:07:53Z</time>
      </trkpt>
      <trkpt lat="62.635685226185" lon="17.964428217502">
        <ele>49.4</ele>
        <time>2018-01-08T18:07:54Z</time>
      </trkpt>
      <trkpt lat="62.635660080485" lon="17.964446992958">
        <ele>49.2</ele>
        <time>2018-01-08T18:07:55Z</time>
      </trkpt>
      <trkpt lat="62.635630492378" lon="17.964465181681">
        <ele>49.2</ele>
        <time>2018-01-08T18:07:56Z</time>
      </trkpt>
      <trkpt lat="62.635604005574" lon="17.964483202766">
        <ele>49.4</ele>
        <time>2018-01-08T18:07:57Z</time>
      </trkpt>
      <trkpt lat="62.635574752743" lon="17.964503906059">
        <ele>49.6</ele>
        <time>2018-01-08T18:07:58Z</time>
      </trkpt>
      <trkpt lat="62.635546002826" lon="17.964521927144">
        <ele>49.6</ele>
        <time>2018-01-08T18:07:59Z</time>
      </trkpt>
      <trkpt lat="62.63551465452" lon="17.964549587414">
        <ele>49.6</ele>
        <time>2018-01-08T18:08:00Z</time>
      </trkpt>
      <trkpt lat="62.63548950882" lon="17.964563501368">
        <ele>49.6</ele>
        <time>2018-01-08T18:08:01Z</time>
      </trkpt>
      <trkpt lat="62.635464866034" lon="17.964582025367">
        <ele>49.6</ele>
        <time>2018-01-08T18:08:02Z</time>
      </trkpt>
      <trkpt lat="62.635435277927" lon="17.964592502742">
        <ele>49.6</ele>
        <time>2018-01-08T18:08:03Z</time>
      </trkpt>
      <trkpt lat="62.63541155715" lon="17.96460272866">
        <ele>49.6</ele>
        <time>2018-01-08T18:08:04Z</time>
      </trkpt>
      <trkpt lat="62.635380711758" lon="17.964622174668">
        <ele>49.6</ele>
        <time>2018-01-08T18:08:05Z</time>
      </trkpt>
      <trkpt lat="62.63535539842" lon="17.964638016459">
        <ele>49.6</ele>
        <time>2018-01-08T18:08:06Z</time>
      </trkpt>
      <trkpt lat="62.635330671815" lon="17.964654193526">
        <ele>49.6</ele>
        <time>2018-01-08T18:08:07Z</time>
      </trkpt>
      <trkpt lat="62.635305693753" lon="17.964668694213">
        <ele>49.8</ele>
        <time>2018-01-08T18:08:08Z</time>
      </trkpt>
      <trkpt lat="62.635278368759" lon="17.964684284547">
        <ele>49.8</ele>
        <time>2018-01-08T18:08:09Z</time>
      </trkpt>
      <trkpt lat="62.635255737629" lon="17.964698785234">
        <ele>49.8</ele>
        <time>2018-01-08T18:08:10Z</time>
      </trkpt>
      <trkpt lat="62.635225059875" lon="17.964708675876">
        <ele>50</ele>
        <time>2018-01-08T18:08:11Z</time>
      </trkpt>
      <trkpt lat="62.635202931659" lon="17.964716135767">
        <ele>50.2</ele>
        <time>2018-01-08T18:08:12Z</time>
      </trkpt>
      <trkpt lat="62.635176528674" lon="17.964724685305">
        <ele>50.2</ele>
        <time>2018-01-08T18:08:13Z</time>
      </trkpt>
      <trkpt lat="62.635146018558" lon="17.964736168508">
        <ele>50.4</ele>
        <time>2018-01-08T18:08:14Z</time>
      </trkpt>
      <trkpt lat="62.635118106831" lon="17.964749160453">
        <ele>50.6</ele>
        <time>2018-01-08T18:08:15Z</time>
      </trkpt>
      <trkpt lat="62.635097068262" lon="17.964751423566">
        <ele>50.6</ele>
        <time>2018-01-08T18:08:16Z</time>
      </trkpt>
      <trkpt lat="62.63506622287" lon="17.964761649484">
        <ele>50.6</ele>
        <time>2018-01-08T18:08:17Z</time>
      </trkpt>
      <trkpt lat="62.635040993351" lon="17.96476785209">
        <ele>50.6</ele>
        <time>2018-01-08T18:08:18Z</time>
      </trkpt>
      <trkpt lat="62.635010483235" lon="17.964774809067">
        <ele>50.6</ele>
        <time>2018-01-08T18:08:19Z</time>
      </trkpt>
      <trkpt lat="62.634987097734" lon="17.964779670569">
        <ele>50.6</ele>
        <time>2018-01-08T18:08:20Z</time>
      </trkpt>
      <trkpt lat="62.634961365301" lon="17.964783190967">
        <ele>50.6</ele>
        <time>2018-01-08T18:08:21Z</time>
      </trkpt>
      <trkpt lat="62.634935632868" lon="17.964788303926">
        <ele>50.6</ele>
        <time>2018-01-08T18:08:22Z</time>
      </trkpt>
      <trkpt lat="62.634940075275" lon="17.964788471564">
        <ele>50.8</ele>
        <time>2018-01-08T18:08:23Z</time>
      </trkpt>
      <trkpt lat="62.634911660634" lon="17.964795177084">
        <ele>50.8</ele>
        <time>2018-01-08T18:08:24Z</time>
      </trkpt>
      <trkpt lat="62.634885257649" lon="17.964802888432">
        <ele>50.8</ele>
        <time>2018-01-08T18:08:25Z</time>
      </trkpt>
      <trkpt lat="62.634860279587" lon="17.964807582296">
        <ele>50.8</ele>
        <time>2018-01-08T18:08:26Z</time>
      </trkpt>
      <trkpt lat="62.634833541326" lon="17.964801882604">
        <ele>51</ele>
        <time>2018-01-08T18:08:27Z</time>
      </trkpt>
      <trkpt lat="62.634810323463" lon="17.964800457681">
        <ele>51</ele>
        <time>2018-01-08T18:08:28Z</time>
      </trkpt>
      <trkpt lat="62.634777131139" lon="17.964799451853">
        <ele>51</ele>
        <time>2018-01-08T18:08:29Z</time>
      </trkpt>
      <trkpt lat="62.634751985439" lon="17.964802888432">
        <ele>51</ele>
        <time>2018-01-08T18:08:30Z</time>
      </trkpt>
      <trkpt lat="62.634727091196" lon="17.964801044414">
        <ele>51</ele>
        <time>2018-01-08T18:08:31Z</time>
      </trkpt>
      <trkpt lat="62.63470161022" lon="17.964803307527">
        <ele>51</ele>
        <time>2018-01-08T18:08:32Z</time>
      </trkpt>
      <trkpt lat="62.634675710149" lon="17.964803475165">
        <ele>51</ele>
        <time>2018-01-08T18:08:33Z</time>
      </trkpt>
      <trkpt lat="62.634653246657" lon="17.964806660287">
        <ele>51</ele>
        <time>2018-01-08T18:08:34Z</time>
      </trkpt>
      <trkpt lat="62.634626927491" lon="17.964804061898">
        <ele>51.2</ele>
        <time>2018-01-08T18:08:35Z</time>
      </trkpt>
      <trkpt lat="62.634603709628" lon="17.964806157373">
        <ele>51.2</ele>
        <time>2018-01-08T18:08:36Z</time>
      </trkpt>
      <trkpt lat="62.634576803729" lon="17.964802804613">
        <ele>51.2</ele>
        <time>2018-01-08T18:08:37Z</time>
      </trkpt>
      <trkpt lat="62.63454905964" lon="17.964799032758">
        <ele>51.6</ele>
        <time>2018-01-08T18:08:38Z</time>
      </trkpt>
      <trkpt lat="62.634526177053" lon="17.964801547328">
        <ele>51.6</ele>
        <time>2018-01-08T18:08:39Z</time>
      </trkpt>
      <trkpt lat="62.634502037181" lon="17.964801547328">
        <ele>51.4</ele>
        <time>2018-01-08T18:08:40Z</time>
      </trkpt>
      <trkpt lat="62.634476723843" lon="17.96480305607">
        <ele>51.6</ele>
        <time>2018-01-08T18:08:41Z</time>
      </trkpt>
      <trkpt lat="62.634453673618" lon="17.964803139889">
        <ele>51.6</ele>
        <time>2018-01-08T18:08:42Z</time>
      </trkpt>
      <trkpt lat="62.634425929529" lon="17.964805319183">
        <ele>51.6</ele>
        <time>2018-01-08T18:08:43Z</time>
      </trkpt>
      <trkpt lat="62.63440070001" lon="17.964809845409">
        <ele>51.6</ele>
        <time>2018-01-08T18:08:44Z</time>
      </trkpt>
      <trkpt lat="62.6343763925" lon="17.964807582296">
        <ele>51.6</ele>
        <time>2018-01-08T18:08:45Z</time>
      </trkpt>
      <trkpt lat="62.634359125786" lon="17.964805151545">
        <ele>51.8</ele>
        <time>2018-01-08T18:08:46Z</time>
      </trkpt>
      <trkpt lat="62.634329621498" lon="17.964808671943">
        <ele>51.8</ele>
        <time>2018-01-08T18:08:47Z</time>
      </trkpt>
      <trkpt lat="62.634302547961" lon="17.964810013047">
        <ele>51.8</ele>
        <time>2018-01-08T18:08:48Z</time>
      </trkpt>
      <trkpt lat="62.63427748608" lon="17.964810180685">
        <ele>51.8</ele>
        <time>2018-01-08T18:08:49Z</time>
      </trkpt>
      <trkpt lat="62.63425401676" lon="17.964812946712">
        <ele>52</ele>
        <time>2018-01-08T18:08:50Z</time>
      </trkpt>
      <trkpt lat="62.634226607947" lon="17.964811689427">
        <ele>52</ele>
        <time>2018-01-08T18:08:51Z</time>
      </trkpt>
      <trkpt lat="62.634205234102" lon="17.964808420486">
        <ele>52</ele>
        <time>2018-01-08T18:08:52Z</time>
      </trkpt>
      <trkpt lat="62.634176568004" lon="17.964806660287">
        <ele>52.2</ele>
        <time>2018-01-08T18:08:53Z</time>
      </trkpt>
      <trkpt lat="62.634149159191" lon="17.964809091038">
        <ele>52.2</ele>
        <time>2018-01-08T18:08:54Z</time>
      </trkpt>
      <trkpt lat="62.634125270776" lon="17.964809929228">
        <ele>52.2</ele>
        <time>2018-01-08T18:08:55Z</time>
      </trkpt>
      <trkpt lat="62.634098364877" lon="17.964804061898">
        <ele>52.2</ele>
        <time>2018-01-08T18:08:56Z</time>
      </trkpt>
      <trkpt lat="62.634075649928" lon="17.964800457681">
        <ele>52.2</ele>
        <time>2018-01-08T18:08:57Z</time>
      </trkpt>
      <trkpt lat="62.63405285116" lon="17.964804229536">
        <ele>52.4</ele>
        <time>2018-01-08T18:08:58Z</time>
      </trkpt>
      <trkpt lat="62.634024185062" lon="17.96481143797">
        <ele>52.2</ele>
        <time>2018-01-08T18:08:59Z</time>
      </trkpt>
      <trkpt lat="62.633999290819" lon="17.96483574548">
        <ele>52.2</ele>
        <time>2018-01-08T18:09:00Z</time>
      </trkpt>
      <trkpt lat="62.633974312757" lon="17.964863238112">
        <ele>52.4</ele>
        <time>2018-01-08T18:09:01Z</time>
      </trkpt>
      <trkpt lat="62.633950424342" lon="17.964875894781">
        <ele>52.4</ele>
        <time>2018-01-08T18:09:02Z</time>
      </trkpt>
      <trkpt lat="62.633925949194" lon="17.964890898382">
        <ele>52.4</ele>
        <time>2018-01-08T18:09:03Z</time>
      </trkpt>
      <trkpt lat="62.633903234245" lon="17.964909254743">
        <ele>52.4</ele>
        <time>2018-01-08T18:09:04Z</time>
      </trkpt>
      <trkpt lat="62.633880854572" lon="17.964930963864">
        <ele>52.6</ele>
        <time>2018-01-08T18:09:05Z</time>
      </trkpt>
      <trkpt lat="62.633862498211" lon="17.964956109564">
        <ele>52.6</ele>
        <time>2018-01-08T18:09:06Z</time>
      </trkpt>
      <trkpt lat="62.63384749461" lon="17.964987625508">
        <ele>52.4</ele>
        <time>2018-01-08T18:09:07Z</time>
      </trkpt>
      <trkpt lat="62.633833496837" lon="17.965029954103">
        <ele>52.6</ele>
        <time>2018-01-08T18:09:08Z</time>
      </trkpt>
      <trkpt lat="62.633829557344" lon="17.965080161684">
        <ele>52.6</ele>
        <time>2018-01-08T18:09:09Z</time>
      </trkpt>
      <trkpt lat="62.633827042774" lon="17.965121065356">
        <ele>52.6</ele>
        <time>2018-01-08T18:09:10Z</time>
      </trkpt>
      <trkpt lat="62.633827713326" lon="17.965170937661">
        <ele>52.8</ele>
        <time>2018-01-08T18:09:11Z</time>
      </trkpt>
      <trkpt lat="62.63383324538" lon="17.965210919324">
        <ele>53</ele>
        <time>2018-01-08T18:09:12Z</time>
      </trkpt>
      <trkpt lat="62.633832910104" lon="17.965259115249">
        <ele>53.2</ele>
        <time>2018-01-08T18:09:13Z</time>
      </trkpt>
      <trkpt lat="62.633833999751" lon="17.965303287862">
        <ele>53.4</ele>
        <time>2018-01-08T18:09:14Z</time>
      </trkpt>
      <trkpt lat="62.633839028891" lon="17.965345951733">
        <ele>53.4</ele>
        <time>2018-01-08T18:09:15Z</time>
      </trkpt>
      <trkpt lat="62.633840537633" lon="17.965389705251">
        <ele>53.6</ele>
        <time>2018-01-08T18:09:16Z</time>
      </trkpt>
      <trkpt lat="62.633842297832" lon="17.965433207312">
        <ele>53.8</ele>
        <time>2018-01-08T18:09:17Z</time>
      </trkpt>
      <trkpt lat="62.633847159334" lon="17.965487354386">
        <ele>54</ele>
        <time>2018-01-08T18:09:18Z</time>
      </trkpt>
      <trkpt lat="62.63385000918" lon="17.96553311956">
        <ele>54.4</ele>
        <time>2018-01-08T18:09:19Z</time>
      </trkpt>
      <trkpt lat="62.633853613397" lon="17.965573185042">
        <ele>54.4</ele>
        <time>2018-01-08T18:09:20Z</time>
      </trkpt>
      <trkpt lat="62.633857888166" lon="17.965627918849">
        <ele>54.6</ele>
        <time>2018-01-08T18:09:21Z</time>
      </trkpt>
      <trkpt lat="62.633859061632" lon="17.965670834177">
        <ele>54.8</ele>
        <time>2018-01-08T18:09:22Z</time>
      </trkpt>
      <trkpt lat="62.633859732184" lon="17.965720538844">
        <ele>55</ele>
        <time>2018-01-08T18:09:23Z</time>
      </trkpt>
      <trkpt lat="62.633860654193" lon="17.965771584615">
        <ele>55</ele>
        <time>2018-01-08T18:09:24Z</time>
      </trkpt>
      <trkpt lat="62.633861324745" lon="17.965821540739">
        <ele>55</ele>
        <time>2018-01-08T18:09:25Z</time>
      </trkpt>
      <trkpt lat="62.633862498211" lon="17.965874514347">
        <ele>55.2</ele>
        <time>2018-01-08T18:09:26Z</time>
      </trkpt>
      <trkpt lat="62.633861324745" lon="17.96592287791">
        <ele>55.4</ele>
        <time>2018-01-08T18:09:27Z</time>
      </trkpt>
      <trkpt lat="62.633859648365" lon="17.965972582577">
        <ele>55.4</ele>
        <time>2018-01-08T18:09:28Z</time>
      </trkpt>
      <trkpt lat="62.633858223442" lon="17.966025723823">
        <ele>55.8</ele>
        <time>2018-01-08T18:09:29Z</time>
      </trkpt>
      <trkpt lat="62.63385587651" lon="17.966075177033">
        <ele>56</ele>
        <time>2018-01-08T18:09:30Z</time>
      </trkpt>
      <trkpt lat="62.633854116311" lon="17.966121612759">
        <ele>56.4</ele>
        <time>2018-01-08T18:09:31Z</time>
      </trkpt>
      <trkpt lat="62.633847326972" lon="17.966172490892">
        <ele>56.6</ele>
        <time>2018-01-08T18:09:32Z</time>
      </trkpt>
      <trkpt lat="62.633837603968" lon="17.966219010437">
        <ele>56.8</ele>
        <time>2018-01-08T18:09:33Z</time>
      </trkpt>
      <trkpt lat="62.63382402529" lon="17.966254717331">
        <ele>57</ele>
        <time>2018-01-08T18:09:34Z</time>
      </trkpt>
      <trkpt lat="62.633804076368" lon="17.966287239103">
        <ele>57</ele>
        <time>2018-01-08T18:09:35Z</time>
      </trkpt>
      <trkpt lat="62.63378798312" lon="17.966307942396">
        <ele>57.2</ele>
        <time>2018-01-08T18:09:36Z</time>
      </trkpt>
      <trkpt lat="62.633769375302" lon="17.966324873834">
        <ele>57.2</ele>
        <time>2018-01-08T18:09:37Z</time>
      </trkpt>
      <trkpt lat="62.633747247086" lon="17.966332082268">
        <ele>57.4</ele>
        <time>2018-01-08T18:09:38Z</time>
      </trkpt>
      <trkpt lat="62.633729645096" lon="17.966329064784">
        <ele>57.6</ele>
        <time>2018-01-08T18:09:39Z</time>
      </trkpt>
      <trkpt lat="62.633711204916" lon="17.966321437255">
        <ele>57.6</ele>
        <time>2018-01-08T18:09:40Z</time>
      </trkpt>
      <trkpt lat="62.63368572394" lon="17.966321940169">
        <ele>57.8</ele>
        <time>2018-01-08T18:09:41Z</time>
      </trkpt>
      <trkpt lat="62.633664266276" lon="17.966322107807">
        <ele>57.8</ele>
        <time>2018-01-08T18:09:42Z</time>
      </trkpt>
      <trkpt lat="62.633641970422" lon="17.966322359264">
        <ele>57.8</ele>
        <time>2018-01-08T18:09:43Z</time>
      </trkpt>
      <trkpt lat="62.633617327636" lon="17.966321688712">
        <ele>57.6</ele>
        <time>2018-01-08T18:09:44Z</time>
      </trkpt>
      <trkpt lat="62.633595786153" lon="17.966324957653">
        <ele>57.6</ele>
        <time>2018-01-08T18:09:45Z</time>
      </trkpt>
      <trkpt lat="62.633579525267" lon="17.966326466395">
        <ele>57.6</ele>
        <time>2018-01-08T18:09:46Z</time>
      </trkpt>
      <trkpt lat="62.63354993716" lon="17.966326801671">
        <ele>57.6</ele>
        <time>2018-01-08T18:09:47Z</time>
      </trkpt>
      <trkpt lat="62.633526384021" lon="17.966328226594">
        <ele>57.6</ele>
        <time>2018-01-08T18:09:48Z</time>
      </trkpt>
      <trkpt lat="62.633502327968" lon="17.966330070612">
        <ele>57.4</ele>
        <time>2018-01-08T18:09:49Z</time>
      </trkpt>
      <trkpt lat="62.633478523372" lon="17.966329148603">
        <ele>57.6</ele>
        <time>2018-01-08T18:09:50Z</time>
      </trkpt>
      <trkpt lat="62.633454802595" lon="17.966332669001">
        <ele>57.4</ele>
        <time>2018-01-08T18:09:51Z</time>
      </trkpt>
      <trkpt lat="62.633434769854" lon="17.966335937942">
        <ele>57.4</ele>
        <time>2018-01-08T18:09:52Z</time>
      </trkpt>
      <trkpt lat="62.633408115412" lon="17.966335686485">
        <ele>57.4</ele>
        <time>2018-01-08T18:09:53Z</time>
      </trkpt>
      <trkpt lat="62.633385987196" lon="17.966337027589">
        <ele>57.4</ele>
        <time>2018-01-08T18:09:54Z</time>
      </trkpt>
      <trkpt lat="62.63336385898" lon="17.966338452512">
        <ele>57.4</ele>
        <time>2018-01-08T18:09:55Z</time>
      </trkpt>
      <trkpt lat="62.633339886746" lon="17.966341889091">
        <ele>57.2</ele>
        <time>2018-01-08T18:09:56Z</time>
      </trkpt>
      <trkpt lat="62.633317507073" lon="17.966345577127">
        <ele>57.2</ele>
        <time>2018-01-08T18:09:57Z</time>
      </trkpt>
      <trkpt lat="62.63329345102" lon="17.966346331498">
        <ele>57.2</ele>
        <time>2018-01-08T18:09:58Z</time>
      </trkpt>
      <trkpt lat="62.633268137682" lon="17.966343733109">
        <ele>57</ele>
        <time>2018-01-08T18:09:59Z</time>
      </trkpt>
      <trkpt lat="62.633245758009" lon="17.966347085869">
        <ele>57</ele>
        <time>2018-01-08T18:10:00Z</time>
      </trkpt>
      <trkpt lat="62.633221115223" lon="17.96634616386">
        <ele>57</ele>
        <time>2018-01-08T18:10:01Z</time>
      </trkpt>
      <trkpt lat="62.63319789736" lon="17.966339039245">
        <ele>57</ele>
        <time>2018-01-08T18:10:02Z</time>
      </trkpt>
      <trkpt lat="62.633174260402" lon="17.96633610558">
        <ele>57</ele>
        <time>2018-01-08T18:10:03Z</time>
      </trkpt>
      <trkpt lat="62.633150791082" lon="17.96633610558">
        <ele>57</ele>
        <time>2018-01-08T18:10:04Z</time>
      </trkpt>
      <trkpt lat="62.633125310106" lon="17.966334093924">
        <ele>56.8</ele>
        <time>2018-01-08T18:10:05Z</time>
      </trkpt>
      <trkpt lat="62.633100499682" lon="17.966333926286">
        <ele>57</ele>
        <time>2018-01-08T18:10:06Z</time>
      </trkpt>
      <trkpt lat="62.633075102525" lon="17.966331244078">
        <ele>56.8</ele>
        <time>2018-01-08T18:10:07Z</time>
      </trkpt>
      <trkpt lat="62.633047190798" lon="17.966330070612">
        <ele>56.8</ele>
        <time>2018-01-08T18:10:08Z</time>
      </trkpt>
      <trkpt lat="62.633024475849" lon="17.966327891318">
        <ele>56.8</ele>
        <time>2018-01-08T18:10:09Z</time>
      </trkpt>
      <trkpt lat="62.632999497787" lon="17.966323197454">
        <ele>56.8</ele>
        <time>2018-01-08T18:10:10Z</time>
      </trkpt>
      <trkpt lat="62.632972927164" lon="17.966318084495">
        <ele>56.8</ele>
        <time>2018-01-08T18:10:11Z</time>
      </trkpt>
      <trkpt lat="62.632951050405" lon="17.966318671228">
        <ele>56.6</ele>
        <time>2018-01-08T18:10:12Z</time>
      </trkpt>
      <trkpt lat="62.632921546117" lon="17.966320515246">
        <ele>56.6</ele>
        <time>2018-01-08T18:10:13Z</time>
      </trkpt>
      <trkpt lat="62.632895143132" lon="17.966318000676">
        <ele>56.4</ele>
        <time>2018-01-08T18:10:14Z</time>
      </trkpt>
      <trkpt lat="62.632869997432" lon="17.966316994848">
        <ele>56.4</ele>
        <time>2018-01-08T18:10:15Z</time>
      </trkpt>
      <trkpt lat="62.632843426809" lon="17.966324287101">
        <ele>56.2</ele>
        <time>2018-01-08T18:10:16Z</time>
      </trkpt>
      <trkpt lat="62.632819538394" lon="17.966327220766">
        <ele>56</ele>
        <time>2018-01-08T18:10:17Z</time>
      </trkpt>
      <trkpt lat="62.63279137521" lon="17.966335937942">
        <ele>56.2</ele>
        <time>2018-01-08T18:10:18Z</time>
      </trkpt>
      <trkpt lat="62.632765139863" lon="17.966347504964">
        <ele>56.2</ele>
        <time>2018-01-08T18:10:19Z</time>
      </trkpt>
      <trkpt lat="62.632741670543" lon="17.966355048674">
        <ele>56</ele>
        <time>2018-01-08T18:10:20Z</time>
      </trkpt>
      <trkpt lat="62.632714597006" lon="17.966342643462">
        <ele>56</ele>
        <time>2018-01-08T18:10:21Z</time>
      </trkpt>
      <trkpt lat="62.632691043867" lon="17.966337865779">
        <ele>56</ele>
        <time>2018-01-08T18:10:22Z</time>
      </trkpt>
      <trkpt lat="62.63266229395" lon="17.966340380349">
        <ele>55.8</ele>
        <time>2018-01-08T18:10:23Z</time>
      </trkpt>
      <trkpt lat="62.632634717499" lon="17.966338703969">
        <ele>55.6</ele>
        <time>2018-01-08T18:10:24Z</time>
      </trkpt>
      <trkpt lat="62.632607308686" lon="17.966341721453">
        <ele>55.4</ele>
        <time>2018-01-08T18:10:25Z</time>
      </trkpt>
      <trkpt lat="62.632579899873" lon="17.966338201055">
        <ele>55.2</ele>
        <time>2018-01-08T18:10:26Z</time>
      </trkpt>
      <trkpt lat="62.632554754173" lon="17.966326969309">
        <ele>55.2</ele>
        <time>2018-01-08T18:10:27Z</time>
      </trkpt>
      <trkpt lat="62.632530111387" lon="17.966319593237">
        <ele>55</ele>
        <time>2018-01-08T18:10:28Z</time>
      </trkpt>
      <trkpt lat="62.632500355642" lon="17.966311881889">
        <ele>54.8</ele>
        <time>2018-01-08T18:10:29Z</time>
      </trkpt>
      <trkpt lat="62.632472360096" lon="17.966306266016">
        <ele>54.8</ele>
        <time>2018-01-08T18:10:30Z</time>
      </trkpt>
      <trkpt lat="62.632448136405" lon="17.966299057582">
        <ele>54.8</ele>
        <time>2018-01-08T18:10:31Z</time>
      </trkpt>
      <trkpt lat="62.632423074524" lon="17.966296123917">
        <ele>54.6</ele>
        <time>2018-01-08T18:10:32Z</time>
      </trkpt>
      <trkpt lat="62.632395498073" lon="17.966286317094">
        <ele>54.8</ele>
        <time>2018-01-08T18:10:33Z</time>
      </trkpt>
      <trkpt lat="62.632372447848" lon="17.966281790868">
        <ele>54.6</ele>
        <time>2018-01-08T18:10:34Z</time>
      </trkpt>
      <trkpt lat="62.632346463958" lon="17.966276258814">
        <ele>54.6</ele>
        <time>2018-01-08T18:10:35Z</time>
      </trkpt>
      <trkpt lat="62.632318468412" lon="17.966266619629">
        <ele>54.4</ele>
        <time>2018-01-08T18:10:36Z</time>
      </trkpt>
      <trkpt lat="62.632296759291" lon="17.96626485943">
        <ele>54.4</ele>
        <time>2018-01-08T18:10:37Z</time>
      </trkpt>
      <trkpt lat="62.632269099021" lon="17.966278689565">
        <ele>54.4</ele>
        <time>2018-01-08T18:10:38Z</time>
      </trkpt>
      <trkpt lat="62.632246719348" lon="17.966300566324">
        <ele>54.2</ele>
        <time>2018-01-08T18:10:39Z</time>
      </trkpt>
      <trkpt lat="62.632232637756" lon="17.966332669001">
        <ele>54.2</ele>
        <time>2018-01-08T18:10:40Z</time>
      </trkpt>
      <trkpt lat="62.632222579476" lon="17.966383966229">
        <ele>54.2</ele>
        <time>2018-01-08T18:10:41Z</time>
      </trkpt>
      <trkpt lat="62.632219813449" lon="17.966433754715">
        <ele>54.2</ele>
        <time>2018-01-08T18:10:42Z</time>
      </trkpt>
      <trkpt lat="62.63222056782" lon="17.966483543201">
        <ele>54</ele>
        <time>2018-01-08T18:10:43Z</time>
      </trkpt>
      <trkpt lat="62.632217801793" lon="17.966541126854">
        <ele>54</ele>
        <time>2018-01-08T18:10:44Z</time>
      </trkpt>
      <trkpt lat="62.632214532852" lon="17.966587730218">
        <ele>53.8</ele>
        <time>2018-01-08T18:10:45Z</time>
      </trkpt>
      <trkpt lat="62.632213527024" lon="17.966618994705">
        <ele>54</ele>
        <time>2018-01-08T18:10:46Z</time>
      </trkpt>
      <trkpt lat="62.632208749341" lon="17.966680769308">
        <ele>54</ele>
        <time>2018-01-08T18:10:47Z</time>
      </trkpt>
      <trkpt lat="62.632204977486" lon="17.966728127043">
        <ele>54</ele>
        <time>2018-01-08T18:10:48Z</time>
      </trkpt>
      <trkpt lat="62.632202043821" lon="17.966775903873">
        <ele>54.4</ele>
        <time>2018-01-08T18:10:49Z</time>
      </trkpt>
      <trkpt lat="62.632197349957" lon="17.966821752866">
        <ele>54.6</ele>
        <time>2018-01-08T18:10:50Z</time>
      </trkpt>
      <trkpt lat="62.632191901722" lon="17.966869781153">
        <ele>54.8</ele>
        <time>2018-01-08T18:10:51Z</time>
      </trkpt>
      <trkpt lat="62.632188297505" lon="17.966907918798">
        <ele>55</ele>
        <time>2018-01-08T18:10:52Z</time>
      </trkpt>
      <trkpt lat="62.632180250881" lon="17.966964915718">
        <ele>55.2</ele>
        <time>2018-01-08T18:10:53Z</time>
      </trkpt>
      <trkpt lat="62.632177149578" lon="17.96700330482">
        <ele>55.4</ele>
        <time>2018-01-08T18:10:54Z</time>
      </trkpt>
      <trkpt lat="62.632171701343" lon="17.967045130501">
        <ele>55.6</ele>
        <time>2018-01-08T18:10:55Z</time>
      </trkpt>
      <trkpt lat="62.632164660547" lon="17.967092320598">
        <ele>55.8</ele>
        <time>2018-01-08T18:10:56Z</time>
      </trkpt>
      <trkpt lat="62.632161810701" lon="17.967133643365">
        <ele>55.8</ele>
        <time>2018-01-08T18:10:57Z</time>
      </trkpt>
      <trkpt lat="62.632159128493" lon="17.967155771581">
        <ele>56</ele>
        <time>2018-01-08T18:10:58Z</time>
      </trkpt>
      <trkpt lat="62.632145382177" lon="17.967225760446">
        <ele>56.2</ele>
        <time>2018-01-08T18:10:59Z</time>
      </trkpt>
      <trkpt lat="62.632134569526" lon="17.967273453457">
        <ele>56.2</ele>
        <time>2018-01-08T18:11:00Z</time>
      </trkpt>
      <trkpt lat="62.632123170142" lon="17.967320559735">
        <ele>56.4</ele>
        <time>2018-01-08T18:11:01Z</time>
      </trkpt>
      <trkpt lat="62.632111267844" lon="17.967358613561">
        <ele>56.6</ele>
        <time>2018-01-08T18:11:02Z</time>
      </trkpt>
      <trkpt lat="62.632099365546" lon="17.967398595224">
        <ele>56.8</ele>
        <time>2018-01-08T18:11:03Z</time>
      </trkpt>
      <trkpt lat="62.632088049981" lon="17.967438241611">
        <ele>57</ele>
        <time>2018-01-08T18:11:04Z</time>
      </trkpt>
      <trkpt lat="62.632076902054" lon="17.967477468903">
        <ele>57.2</ele>
        <time>2018-01-08T18:11:05Z</time>
      </trkpt>
      <trkpt lat="62.63206382629" lon="17.967518875489">
        <ele>57.4</ele>
        <time>2018-01-08T18:11:06Z</time>
      </trkpt>
      <trkpt lat="62.632049996155" lon="17.967558940971">
        <ele>57.8</ele>
        <time>2018-01-08T18:11:07Z</time>
      </trkpt>
      <trkpt lat="62.632037088029" lon="17.967593893494">
        <ele>58</ele>
        <time>2018-01-08T18:11:08Z</time>
      </trkpt>
      <trkpt lat="62.632023928446" lon="17.967639239573">
        <ele>58.2</ele>
        <time>2018-01-08T18:11:09Z</time>
      </trkpt>
      <trkpt lat="62.632009763035" lon="17.967685926756">
        <ele>58.2</ele>
        <time>2018-01-08T18:11:10Z</time>
      </trkpt>
      <trkpt lat="62.631998363651" lon="17.96772750098">
        <ele>58.4</ele>
        <time>2018-01-08T18:11:11Z</time>
      </trkpt>
      <trkpt lat="62.631991909588" lon="17.96774175021">
        <ele>58.4</ele>
        <time>2018-01-08T18:11:12Z</time>
      </trkpt>
      <trkpt lat="62.631969194639" lon="17.967807715763">
        <ele>58.6</ele>
        <time>2018-01-08T18:11:13Z</time>
      </trkpt>
      <trkpt lat="62.631957208522" lon="17.967854822041">
        <ele>58.6</ele>
        <time>2018-01-08T18:11:14Z</time>
      </trkpt>
      <trkpt lat="62.631944300396" lon="17.96789765355">
        <ele>58.8</ele>
        <time>2018-01-08T18:11:15Z</time>
      </trkpt>
      <trkpt lat="62.631936505229" lon="17.967918692119">
        <ele>59</ele>
        <time>2018-01-08T18:11:16Z</time>
      </trkpt>
      <trkpt lat="62.631920831076" lon="17.967970408442">
        <ele>59.2</ele>
        <time>2018-01-08T18:11:17Z</time>
      </trkpt>
      <trkpt lat="62.631905576018" lon="17.968014748693">
        <ele>59.4</ele>
        <time>2018-01-08T18:11:18Z</time>
      </trkpt>
      <trkpt lat="62.631890740055" lon="17.968053892166">
        <ele>59.8</ele>
        <time>2018-01-08T18:11:19Z</time>
      </trkpt>
      <trkpt lat="62.63188026268" lon="17.968083061178">
        <ele>60</ele>
        <time>2018-01-08T18:11:20Z</time>
      </trkpt>
      <trkpt lat="62.631867354554" lon="17.968121869375">
        <ele>60</ele>
        <time>2018-01-08T18:11:21Z</time>
      </trkpt>
      <trkpt lat="62.631857380093" lon="17.968157073355">
        <ele>60.2</ele>
        <time>2018-01-08T18:11:22Z</time>
      </trkpt>
      <trkpt lat="62.631844555786" lon="17.968198228484">
        <ele>60.4</ele>
        <time>2018-01-08T18:11:23Z</time>
      </trkpt>
      <trkpt lat="62.631830558013" lon="17.968240892355">
        <ele>60.6</ele>
        <time>2018-01-08T18:11:24Z</time>
      </trkpt>
      <trkpt lat="62.631817482249" lon="17.968285651701">
        <ele>60.8</ele>
        <time>2018-01-08T18:11:25Z</time>
      </trkpt>
      <trkpt lat="62.63180650196" lon="17.968323956984">
        <ele>61</ele>
        <time>2018-01-08T18:11:26Z</time>
      </trkpt>
      <trkpt lat="62.631791163083" lon="17.96836452538">
        <ele>61.2</ele>
        <time>2018-01-08T18:11:27Z</time>
      </trkpt>
      <trkpt lat="62.631779176966" lon="17.968399980817">
        <ele>61.4</ele>
        <time>2018-01-08T18:11:28Z</time>
      </trkpt>
      <trkpt lat="62.631769873057" lon="17.968440213937">
        <ele>61.6</ele>
        <time>2018-01-08T18:11:29Z</time>
      </trkpt>
      <trkpt lat="62.631753863628" lon="17.968484638007">
        <ele>61.8</ele>
        <time>2018-01-08T18:11:30Z</time>
      </trkpt>
      <trkpt lat="62.631743972986" lon="17.968523110928">
        <ele>62</ele>
        <time>2018-01-08T18:11:31Z</time>
      </trkpt>
      <trkpt lat="62.63173190305" lon="17.968566612989">
        <ele>62.4</ele>
        <time>2018-01-08T18:11:32Z</time>
      </trkpt>
      <trkpt lat="62.631716396535" lon="17.968616652932">
        <ele>62.6</ele>
        <time>2018-01-08T18:11:33Z</time>
      </trkpt>
      <trkpt lat="62.631712205585" lon="17.968653198016">
        <ele>62.8</ele>
        <time>2018-01-08T18:11:34Z</time>
      </trkpt>
      <trkpt lat="62.631709355739" lon="17.968701142484">
        <ele>63</ele>
        <time>2018-01-08T18:11:35Z</time>
      </trkpt>
      <trkpt lat="62.631704075142" lon="17.968752355893">
        <ele>63.2</ele>
        <time>2018-01-08T18:11:36Z</time>
      </trkpt>
      <trkpt lat="62.63170340459" lon="17.968792169918">
        <ele>63.4</ele>
        <time>2018-01-08T18:11:37Z</time>
      </trkpt>
      <trkpt lat="62.631698962183" lon="17.968842126042">
        <ele>63.4</ele>
        <time>2018-01-08T18:11:38Z</time>
      </trkpt>
      <trkpt lat="62.631698794545" lon="17.968889483777">
        <ele>63.6</ele>
        <time>2018-01-08T18:11:39Z</time>
      </trkpt>
      <trkpt lat="62.631702734038" lon="17.968928124336">
        <ele>63.8</ele>
        <time>2018-01-08T18:11:40Z</time>
      </trkpt>
      <trkpt lat="62.63170424278" lon="17.968982858143">
        <ele>64</ele>
        <time>2018-01-08T18:11:41Z</time>
      </trkpt>
      <trkpt lat="62.631706254436" lon="17.969021917797">
        <ele>64</ele>
        <time>2018-01-08T18:11:42Z</time>
      </trkpt>
      <trkpt lat="62.631706924988" lon="17.969070532817">
        <ele>64.2</ele>
        <time>2018-01-08T18:11:43Z</time>
      </trkpt>
      <trkpt lat="62.631710780662" lon="17.969118980199">
        <ele>64.4</ele>
        <time>2018-01-08T18:11:44Z</time>
      </trkpt>
      <trkpt lat="62.631718240553" lon="17.969153681265">
        <ele>64.6</ele>
        <time>2018-01-08T18:11:45Z</time>
      </trkpt>
      <trkpt lat="62.631724275521" lon="17.969183688467">
        <ele>64.8</ele>
        <time>2018-01-08T18:11:46Z</time>
      </trkpt>
      <trkpt lat="62.631734752896" lon="17.969235237152">
        <ele>65</ele>
        <time>2018-01-08T18:11:47Z</time>
      </trkpt>
      <trkpt lat="62.631743805348" lon="17.969277230471">
        <ele>65.4</ele>
        <time>2018-01-08T18:11:48Z</time>
      </trkpt>
      <trkpt lat="62.631752606343" lon="17.969317798867">
        <ele>65.6</ele>
        <time>2018-01-08T18:11:49Z</time>
      </trkpt>
      <trkpt lat="62.631761323519" lon="17.96935107501">
        <ele>66</ele>
        <time>2018-01-08T18:11:50Z</time>
      </trkpt>
      <trkpt lat="62.631774064007" lon="17.969384518791">
        <ele>66.2</ele>
        <time>2018-01-08T18:11:51Z</time>
      </trkpt>
      <trkpt lat="62.631783703192" lon="17.969417878753">
        <ele>66.2</ele>
        <time>2018-01-08T18:11:52Z</time>
      </trkpt>
      <trkpt lat="62.631794515843" lon="17.969454088561">
        <ele>66.4</ele>
        <time>2018-01-08T18:11:53Z</time>
      </trkpt>
      <trkpt lat="62.631806334322" lon="17.96947512713">
        <ele>66.6</ele>
        <time>2018-01-08T18:11:54Z</time>
      </trkpt>
      <trkpt lat="62.631825025959" lon="17.969504631418">
        <ele>66.8</ele>
        <time>2018-01-08T18:11:55Z</time>
      </trkpt>
      <trkpt lat="62.631839861922" lon="17.969530531489">
        <ele>67.2</ele>
        <time>2018-01-08T18:11:56Z</time>
      </trkpt>
      <trkpt lat="62.631854865523" lon="17.969542433787">
        <ele>67.2</ele>
        <time>2018-01-08T18:11:57Z</time>
      </trkpt>
      <trkpt lat="62.63188361544" lon="17.969567830944">
        <ele>67.4</ele>
        <time>2018-01-08T18:11:58Z</time>
      </trkpt>
      <trkpt lat="62.631904067276" lon="17.969577889224">
        <ele>67.4</ele>
        <time>2018-01-08T18:11:59Z</time>
      </trkpt>
      <trkpt lat="62.631925105845" lon="17.96958325364">
        <ele>67.6</ele>
        <time>2018-01-08T18:12:00Z</time>
      </trkpt>
      <trkpt lat="62.631953269029" lon="17.969577218672">
        <ele>67.6</ele>
        <time>2018-01-08T18:12:01Z</time>
      </trkpt>
      <trkpt lat="62.631973050313" lon="17.969574201188">
        <ele>67.8</ele>
        <time>2018-01-08T18:12:02Z</time>
      </trkpt>
      <trkpt lat="62.6319959329" lon="17.969569255867">
        <ele>67.8</ele>
        <time>2018-01-08T18:12:03Z</time>
      </trkpt>
      <trkpt lat="62.632003979524" lon="17.969568836772">
        <ele>67.8</ele>
        <time>2018-01-08T18:12:04Z</time>
      </trkpt>
      <trkpt lat="62.632033986726" lon="17.969560873967">
        <ele>67.8</ele>
        <time>2018-01-08T18:12:05Z</time>
      </trkpt>
      <trkpt lat="62.632061227901" lon="17.969557772664">
        <ele>67.8</ele>
        <time>2018-01-08T18:12:06Z</time>
      </trkpt>
      <trkpt lat="62.632084613402" lon="17.969552743524">
        <ele>67.8</ele>
        <time>2018-01-08T18:12:07Z</time>
      </trkpt>
      <trkpt lat="62.632109675283" lon="17.969544613081">
        <ele>67.8</ele>
        <time>2018-01-08T18:12:08Z</time>
      </trkpt>
      <trkpt lat="62.632130630033" lon="17.969536147362">
        <ele>67.6</ele>
        <time>2018-01-08T18:12:09Z</time>
      </trkpt>
      <trkpt lat="62.632155524276" lon="17.969529860937">
        <ele>67.8</ele>
        <time>2018-01-08T18:12:10Z</time>
      </trkpt>
      <trkpt lat="62.632179161234" lon="17.969522149589">
        <ele>67.8</ele>
        <time>2018-01-08T18:12:11Z</time>
      </trkpt>
      <trkpt lat="62.632200870355" lon="17.969513432413">
        <ele>68</ele>
        <time>2018-01-08T18:12:12Z</time>
      </trkpt>
      <trkpt lat="62.632229117358" lon="17.969510163472">
        <ele>68.2</ele>
        <time>2018-01-08T18:12:13Z</time>
      </trkpt>
      <trkpt lat="62.632248814823" lon="17.969502871219">
        <ele>68.4</ele>
        <time>2018-01-08T18:12:14Z</time>
      </trkpt>
      <trkpt lat="62.632273960523" lon="17.969500356649">
        <ele>68.2</ele>
        <time>2018-01-08T18:12:15Z</time>
      </trkpt>
      <trkpt lat="62.6322976813" lon="17.96949859645">
        <ele>68.2</ele>
        <time>2018-01-08T18:12:16Z</time>
      </trkpt>
      <trkpt lat="62.63232115062" lon="17.969489879274">
        <ele>68.2</ele>
        <time>2018-01-08T18:12:17Z</time>
      </trkpt>
      <trkpt lat="62.632348894709" lon="17.969484598677">
        <ele>68.2</ele>
        <time>2018-01-08T18:12:18Z</time>
      </trkpt>
      <trkpt lat="62.632374040409" lon="17.969484011944">
        <ele>68</ele>
        <time>2018-01-08T18:12:19Z</time>
      </trkpt>
      <trkpt lat="62.632397258272" lon="17.969482503202">
        <ele>68</ele>
        <time>2018-01-08T18:12:20Z</time>
      </trkpt>
      <trkpt lat="62.632423325981" lon="17.969488035256">
        <ele>68.2</ele>
        <time>2018-01-08T18:12:21Z</time>
      </trkpt>
      <trkpt lat="62.632447046758" lon="17.969489208722">
        <ele>68.2</ele>
        <time>2018-01-08T18:12:22Z</time>
      </trkpt>
      <trkpt lat="62.632471270449" lon="17.969489124903">
        <ele>68.2</ele>
        <time>2018-01-08T18:12:23Z</time>
      </trkpt>
      <trkpt lat="62.632498343986" lon="17.969489879274">
        <ele>68.2</ele>
        <time>2018-01-08T18:12:24Z</time>
      </trkpt>
      <trkpt lat="62.632526423351" lon="17.969493399672">
        <ele>68.2</ele>
        <time>2018-01-08T18:12:25Z</time>
      </trkpt>
      <trkpt lat="62.632550730861" lon="17.969489627817">
        <ele>68.2</ele>
        <time>2018-01-08T18:12:26Z</time>
      </trkpt>
      <trkpt lat="62.632573697267" lon="17.969500859563">
        <ele>68.2</ele>
        <time>2018-01-08T18:12:27Z</time>
      </trkpt>
      <trkpt lat="62.632602195727" lon="17.969507062169">
        <ele>68.2</ele>
        <time>2018-01-08T18:12:28Z</time>
      </trkpt>
      <trkpt lat="62.632626084142" lon="17.969506894531">
        <ele>68.2</ele>
        <time>2018-01-08T18:12:29Z</time>
      </trkpt>
      <trkpt lat="62.632652990041" lon="17.969507732721">
        <ele>68.2</ele>
        <time>2018-01-08T18:12:30Z</time>
      </trkpt>
      <trkpt lat="62.632677716646" lon="17.969510247291">
        <ele>68</ele>
        <time>2018-01-08T18:12:31Z</time>
      </trkpt>
      <trkpt lat="62.632701521242" lon="17.969511504576">
        <ele>68.2</ele>
        <time>2018-01-08T18:12:32Z</time>
      </trkpt>
      <trkpt lat="62.632730941711" lon="17.969527681643">
        <ele>68.2</ele>
        <time>2018-01-08T18:12:33Z</time>
      </trkpt>
      <trkpt lat="62.632750806814" lon="17.969527262548">
        <ele>68.2</ele>
        <time>2018-01-08T18:12:34Z</time>
      </trkpt>
      <trkpt lat="62.632775701057" lon="17.96952458034">
        <ele>68.2</ele>
        <time>2018-01-08T18:12:35Z</time>
      </trkpt>
      <trkpt lat="62.632800762938" lon="17.969529525661">
        <ele>68.2</ele>
        <time>2018-01-08T18:12:36Z</time>
      </trkpt>
      <trkpt lat="62.632821885326" lon="17.969532794602">
        <ele>68.2</ele>
        <time>2018-01-08T18:12:37Z</time>
      </trkpt>
      <trkpt lat="62.632849545596" lon="17.96953715319">
        <ele>68.4</ele>
        <time>2018-01-08T18:12:38Z</time>
      </trkpt>
      <trkpt lat="62.632877960237" lon="17.969548133479">
        <ele>68.4</ele>
        <time>2018-01-08T18:12:39Z</time>
      </trkpt>
      <trkpt lat="62.632896568055" lon="17.969552994981">
        <ele>68.4</ele>
        <time>2018-01-08T18:12:40Z</time>
      </trkpt>
      <trkpt lat="62.632923893049" lon="17.96955559337">
        <ele>68.6</ele>
        <time>2018-01-08T18:12:41Z</time>
      </trkpt>
      <trkpt lat="62.632950379853" lon="17.969558191759">
        <ele>68.6</ele>
        <time>2018-01-08T18:12:42Z</time>
      </trkpt>
      <trkpt lat="62.632978375399" lon="17.969561544519">
        <ele>68.8</ele>
        <time>2018-01-08T18:12:43Z</time>
      </trkpt>
      <trkpt lat="62.633000419796" lon="17.969562466528">
        <ele>69</ele>
        <time>2018-01-08T18:12:44Z</time>
      </trkpt>
      <trkpt lat="62.633028666799" lon="17.969571099885">
        <ele>69</ele>
        <time>2018-01-08T18:12:45Z</time>
      </trkpt>
      <trkpt lat="62.633048950997" lon="17.969574955559">
        <ele>69.2</ele>
        <time>2018-01-08T18:12:46Z</time>
      </trkpt>
      <trkpt lat="62.633072755593" lon="17.969577051034">
        <ele>69.2</ele>
        <time>2018-01-08T18:12:47Z</time>
      </trkpt>
      <trkpt lat="62.633099410035" lon="17.96958073907">
        <ele>69.4</ele>
        <time>2018-01-08T18:12:48Z</time>
      </trkpt>
      <trkpt lat="62.63312246026" lon="17.969585181477">
        <ele>69.4</ele>
        <time>2018-01-08T18:12:49Z</time>
      </trkpt>
      <trkpt lat="62.633148360331" lon="17.969600771811">
        <ele>69.4</ele>
        <time>2018-01-08T18:12:50Z</time>
      </trkpt>
      <trkpt lat="62.633175685325" lon="17.969614518127">
        <ele>69.4</ele>
        <time>2018-01-08T18:12:51Z</time>
      </trkpt>
      <trkpt lat="62.633195466609" lon="17.969621391285">
        <ele>69.4</ele>
        <time>2018-01-08T18:12:52Z</time>
      </trkpt>
      <trkpt lat="62.633225054716" lon="17.969638909456">
        <ele>69.4</ele>
        <time>2018-01-08T18:12:53Z</time>
      </trkpt>
      <trkpt lat="62.633249613683" lon="17.969642932768">
        <ele>69.4</ele>
        <time>2018-01-08T18:12:54Z</time>
      </trkpt>
      <trkpt lat="62.633270065519" lon="17.969649051555">
        <ele>69.4</ele>
        <time>2018-01-08T18:12:55Z</time>
      </trkpt>
      <trkpt lat="62.633300407997" lon="17.969659696568">
        <ele>69.4</ele>
        <time>2018-01-08T18:12:56Z</time>
      </trkpt>
      <trkpt lat="62.633318261444" lon="17.969672856151">
        <ele>69.4</ele>
        <time>2018-01-08T18:12:57Z</time>
      </trkpt>
      <trkpt lat="62.633341646945" lon="17.969697750394">
        <ele>69.4</ele>
        <time>2018-01-08T18:12:58Z</time>
      </trkpt>
      <trkpt lat="62.633361176772" lon="17.969741587731">
        <ele>69.4</ele>
        <time>2018-01-08T18:12:59Z</time>
      </trkpt>
      <trkpt lat="62.633379197857" lon="17.969767487802">
        <ele>69.4</ele>
        <time>2018-01-08T18:13:00Z</time>
      </trkpt>
      <trkpt lat="62.633388920861" lon="17.969814510261">
        <ele>69.6</ele>
        <time>2018-01-08T18:13:01Z</time>
      </trkpt>
      <trkpt lat="62.633393111811" lon="17.969860107797">
        <ele>69.4</ele>
        <time>2018-01-08T18:13:02Z</time>
      </trkpt>
      <trkpt lat="62.633397889494" lon="17.969908052265">
        <ele>69.6</ele>
        <time>2018-01-08T18:13:03Z</time>
      </trkpt>
      <trkpt lat="62.633404259738" lon="17.969959265674">
        <ele>69.8</ele>
        <time>2018-01-08T18:13:04Z</time>
      </trkpt>
      <trkpt lat="62.633409037421" lon="17.970018525707">
        <ele>69.8</ele>
        <time>2018-01-08T18:13:05Z</time>
      </trkpt>
      <trkpt lat="62.633412306362" lon="17.970065380528">
        <ele>70.2</ele>
        <time>2018-01-08T18:13:06Z</time>
      </trkpt>
      <trkpt lat="62.633416329674" lon="17.970125143475">
        <ele>70.4</ele>
        <time>2018-01-08T18:13:07Z</time>
      </trkpt>
      <trkpt lat="62.633417586959" lon="17.970180464015">
        <ele>70.6</ele>
        <time>2018-01-08T18:13:08Z</time>
      </trkpt>
      <trkpt lat="62.63342001771" lon="17.970230755415">
        <ele>70.6</ele>
        <time>2018-01-08T18:13:09Z</time>
      </trkpt>
      <trkpt lat="62.633422113185" lon="17.970287584697">
        <ele>70.8</ele>
        <time>2018-01-08T18:13:10Z</time>
      </trkpt>
      <trkpt lat="62.633430327447" lon="17.970342905237">
        <ele>70.8</ele>
        <time>2018-01-08T18:13:11Z</time>
      </trkpt>
      <trkpt lat="62.633433177293" lon="17.970389089506">
        <ele>71</ele>
        <time>2018-01-08T18:13:12Z</time>
      </trkpt>
      <trkpt lat="62.633435272768" lon="17.970454635964">
        <ele>71</ele>
        <time>2018-01-08T18:13:13Z</time>
      </trkpt>
      <trkpt lat="62.633439379899" lon="17.970505849373">
        <ele>71</ele>
        <time>2018-01-08T18:13:14Z</time>
      </trkpt>
      <trkpt lat="62.633441894469" lon="17.970552536556">
        <ele>71.2</ele>
        <time>2018-01-08T18:13:15Z</time>
      </trkpt>
      <trkpt lat="62.633444660496" lon="17.970618921204">
        <ele>71.2</ele>
        <time>2018-01-08T18:13:16Z</time>
      </trkpt>
      <trkpt lat="62.633447761799" lon="17.970664183464">
        <ele>71.2</ele>
        <time>2018-01-08T18:13:17Z</time>
      </trkpt>
      <trkpt lat="62.633452874758" lon="17.970719587823">
        <ele>71.2</ele>
        <time>2018-01-08T18:13:18Z</time>
      </trkpt>
      <trkpt lat="62.63345186893" lon="17.970776920019">
        <ele>71.4</ele>
        <time>2018-01-08T18:13:19Z</time>
      </trkpt>
      <trkpt lat="62.633455556966" lon="17.970823607202">
        <ele>71.4</ele>
        <time>2018-01-08T18:13:20Z</time>
      </trkpt>
      <trkpt lat="62.633459161183" lon="17.970882280502">
        <ele>71.6</ele>
        <time>2018-01-08T18:13:21Z</time>
      </trkpt>
      <trkpt lat="62.633460837563" lon="17.97093022497">
        <ele>71.6</ele>
        <time>2018-01-08T18:13:22Z</time>
      </trkpt>
      <trkpt lat="62.633463100676" lon="17.970986802795">
        <ele>71.6</ele>
        <time>2018-01-08T18:13:23Z</time>
      </trkpt>
      <trkpt lat="62.633463268314" lon="17.971046230466">
        <ele>71.8</ele>
        <time>2018-01-08T18:13:24Z</time>
      </trkpt>
      <trkpt lat="62.633464777056" lon="17.971099371712">
        <ele>72</ele>
        <time>2018-01-08T18:13:25Z</time>
      </trkpt>
      <trkpt lat="62.633467040169" lon="17.971145891257">
        <ele>72</ele>
        <time>2018-01-08T18:13:26Z</time>
      </trkpt>
      <trkpt lat="62.633466369617" lon="17.971202385263">
        <ele>72.2</ele>
        <time>2018-01-08T18:13:27Z</time>
      </trkpt>
      <trkpt lat="62.63346611816" lon="17.97125544269">
        <ele>72.4</ele>
        <time>2018-01-08T18:13:28Z</time>
      </trkpt>
      <trkpt lat="62.633464357961" lon="17.97130824866">
        <ele>72.4</ele>
        <time>2018-01-08T18:13:29Z</time>
      </trkpt>
      <trkpt lat="62.633462011029" lon="17.971374717127">
        <ele>72.6</ele>
        <time>2018-01-08T18:13:30Z</time>
      </trkpt>
      <trkpt lat="62.63346360359" lon="17.971426601088">
        <ele>72.6</ele>
        <time>2018-01-08T18:13:31Z</time>
      </trkpt>
      <trkpt lat="62.633462933038" lon="17.971477898316">
        <ele>72.8</ele>
        <time>2018-01-08T18:13:32Z</time>
      </trkpt>
      <trkpt lat="62.633460669925" lon="17.971537745082">
        <ele>72.8</ele>
        <time>2018-01-08T18:13:33Z</time>
      </trkpt>
      <trkpt lat="62.633459999373" lon="17.971587785025">
        <ele>73</ele>
        <time>2018-01-08T18:13:34Z</time>
      </trkpt>
      <trkpt lat="62.633457987717" lon="17.971647045058">
        <ele>73</ele>
        <time>2018-01-08T18:13:35Z</time>
      </trkpt>
      <trkpt lat="62.633454048224" lon="17.971703706702">
        <ele>73.2</ele>
        <time>2018-01-08T18:13:36Z</time>
      </trkpt>
      <trkpt lat="62.633451952749" lon="17.971750310066">
        <ele>73.2</ele>
        <time>2018-01-08T18:13:37Z</time>
      </trkpt>
      <trkpt lat="62.633443989944" lon="17.971811078841">
        <ele>73.2</ele>
        <time>2018-01-08T18:13:38Z</time>
      </trkpt>
      <trkpt lat="62.633438793166" lon="17.971865477372">
        <ele>73.2</ele>
        <time>2018-01-08T18:13:39Z</time>
      </trkpt>
      <trkpt lat="62.633435691863" lon="17.971915265858">
        <ele>73.4</ele>
        <time>2018-01-08T18:13:40Z</time>
      </trkpt>
      <trkpt lat="62.633428818705" lon="17.97197377152">
        <ele>73.4</ele>
        <time>2018-01-08T18:13:41Z</time>
      </trkpt>
      <trkpt lat="62.633422197004" lon="17.972010232785">
        <ele>73.6</ele>
        <time>2018-01-08T18:13:42Z</time>
      </trkpt>
      <trkpt lat="62.633415156208" lon="17.972066978248">
        <ele>73.6</ele>
        <time>2018-01-08T18:13:43Z</time>
      </trkpt>
      <trkpt lat="62.633407780136" lon="17.972125819186">
        <ele>73.6</ele>
        <time>2018-01-08T18:13:44Z</time>
      </trkpt>
      <trkpt lat="62.633400068788" lon="17.972172087274">
        <ele>73.8</ele>
        <time>2018-01-08T18:13:45Z</time>
      </trkpt>
      <trkpt lat="62.633393027992" lon="17.972218523">
        <ele>74</ele>
        <time>2018-01-08T18:13:46Z</time>
      </trkpt>
      <trkpt lat="62.633387244481" lon="17.972272921531">
        <ele>74</ele>
        <time>2018-01-08T18:13:47Z</time>
      </trkpt>
      <trkpt lat="62.633379868409" lon="17.972320363085">
        <ele>74.2</ele>
        <time>2018-01-08T18:13:48Z</time>
      </trkpt>
      <trkpt lat="62.633370899776" lon="17.97237526453">
        <ele>74.2</ele>
        <time>2018-01-08T18:13:49Z</time>
      </trkpt>
      <trkpt lat="62.633360087125" lon="17.972425304473">
        <ele>74.4</ele>
        <time>2018-01-08T18:13:50Z</time>
      </trkpt>
      <trkpt lat="62.633356818184" lon="17.972471740199">
        <ele>74.6</ele>
        <time>2018-01-08T18:13:51Z</time>
      </trkpt>
      <trkpt lat="62.633347346637" lon="17.972516667183">
        <ele>74.6</ele>
        <time>2018-01-08T18:13:52Z</time>
      </trkpt>
      <trkpt lat="62.633334438511" lon="17.972573664103">
        <ele>74.6</ele>
        <time>2018-01-08T18:13:53Z</time>
      </trkpt>
      <trkpt lat="62.633324799326" lon="17.972622111485">
        <ele>74.8</ele>
        <time>2018-01-08T18:13:54Z</time>
      </trkpt>
      <trkpt lat="62.633313819037" lon="17.972678605491">
        <ele>74.8</ele>
        <time>2018-01-08T18:13:55Z</time>
      </trkpt>
      <trkpt lat="62.63330518568" lon="17.972726801416">
        <ele>74.8</ele>
        <time>2018-01-08T18:13:56Z</time>
      </trkpt>
      <trkpt lat="62.633294875943" lon="17.972774662065">
        <ele>74.8</ele>
        <time>2018-01-08T18:13:57Z</time>
      </trkpt>
      <trkpt lat="62.633281129627" lon="17.972830653157">
        <ele>75</ele>
        <time>2018-01-08T18:13:58Z</time>
      </trkpt>
      <trkpt lat="62.633271322804" lon="17.972875580141">
        <ele>75</ele>
        <time>2018-01-08T18:13:59Z</time>
      </trkpt>
      <trkpt lat="62.633258079402" lon="17.972933750527">
        <ele>75</ele>
        <time>2018-01-08T18:14:00Z</time>
      </trkpt>
      <trkpt lat="62.633246428561" lon="17.97298798142">
        <ele>75.2</ele>
        <time>2018-01-08T18:14:01Z</time>
      </trkpt>
      <trkpt lat="62.63324064505" lon="17.973038105182">
        <ele>75.2</ele>
        <time>2018-01-08T18:14:02Z</time>
      </trkpt>
      <trkpt lat="62.633231341141" lon="17.973098873957">
        <ele>75.4</ele>
        <time>2018-01-08T18:14:03Z</time>
      </trkpt>
      <trkpt lat="62.633221869594" lon="17.973146566968">
        <ele>75.4</ele>
        <time>2018-01-08T18:14:04Z</time>
      </trkpt>
      <trkpt lat="62.633210386391" lon="17.973197193644">
        <ele>75.6</ele>
        <time>2018-01-08T18:14:05Z</time>
      </trkpt>
      <trkpt lat="62.633198316455" lon="17.973263662111">
        <ele>75.6</ele>
        <time>2018-01-08T18:14:06Z</time>
      </trkpt>
      <trkpt lat="62.633190521288" lon="17.973300961566">
        <ele>75.8</ele>
        <time>2018-01-08T18:14:07Z</time>
      </trkpt>
      <trkpt lat="62.633176188239" lon="17.973361981798">
        <ele>75.8</ele>
        <time>2018-01-08T18:14:08Z</time>
      </trkpt>
      <trkpt lat="62.633162861018" lon="17.973411854103">
        <ele>76</ele>
        <time>2018-01-08T18:14:09Z</time>
      </trkpt>
      <trkpt lat="62.633156406955" lon="17.973458122191">
        <ele>76.2</ele>
        <time>2018-01-08T18:14:10Z</time>
      </trkpt>
      <trkpt lat="62.633142660639" lon="17.973517130767">
        <ele>76.2</ele>
        <time>2018-01-08T18:14:11Z</time>
      </trkpt>
      <trkpt lat="62.633132853816" lon="17.973556022783">
        <ele>76.2</ele>
        <time>2018-01-08T18:14:12Z</time>
      </trkpt>
      <trkpt lat="62.633120951518" lon="17.973610086038">
        <ele>76.2</ele>
        <time>2018-01-08T18:14:13Z</time>
      </trkpt>
      <trkpt lat="62.633107875754" lon="17.973669932804">
        <ele>76.4</ele>
        <time>2018-01-08T18:14:14Z</time>
      </trkpt>
      <trkpt lat="62.633097985112" lon="17.973712848132">
        <ele>76.4</ele>
        <time>2018-01-08T18:14:15Z</time>
      </trkpt>
      <trkpt lat="62.633087172461" lon="17.973746291913">
        <ele>76.4</ele>
        <time>2018-01-08T18:14:16Z</time>
      </trkpt>
      <trkpt lat="62.633067810272" lon="17.973815442588">
        <ele>76.6</ele>
        <time>2018-01-08T18:14:17Z</time>
      </trkpt>
      <trkpt lat="62.633055907974" lon="17.973857938821">
        <ele>76.6</ele>
        <time>2018-01-08T18:14:18Z</time>
      </trkpt>
      <trkpt lat="62.633041658744" lon="17.973920300157">
        <ele>76.8</ele>
        <time>2018-01-08T18:14:19Z</time>
      </trkpt>
      <trkpt lat="62.633026319867" lon="17.973990791936">
        <ele>77</ele>
        <time>2018-01-08T18:14:20Z</time>
      </trkpt>
      <trkpt lat="62.633012238275" lon="17.974052734177">
        <ele>77.2</ele>
        <time>2018-01-08T18:14:21Z</time>
      </trkpt>
      <trkpt lat="62.632999581606" lon="17.97411199421">
        <ele>77.2</ele>
        <time>2018-01-08T18:14:22Z</time>
      </trkpt>
      <trkpt lat="62.632987595489" lon="17.97416563837">
        <ele>77.2</ele>
        <time>2018-01-08T18:14:23Z</time>
      </trkpt>
      <trkpt lat="62.632973513897" lon="17.974223724937">
        <ele>77.4</ele>
        <time>2018-01-08T18:14:24Z</time>
      </trkpt>
      <trkpt lat="62.632962785065" lon="17.97427460307">
        <ele>77.4</ele>
        <time>2018-01-08T18:14:25Z</time>
      </trkpt>
      <trkpt lat="62.632951637138" lon="17.974322212262">
        <ele>77.4</ele>
        <time>2018-01-08T18:14:26Z</time>
      </trkpt>
      <trkpt lat="62.632936549718" lon="17.974373258033">
        <ele>77.4</ele>
        <time>2018-01-08T18:14:27Z</time>
      </trkpt>
      <trkpt lat="62.632916768434" lon="17.974420112854">
        <ele>77.6</ele>
        <time>2018-01-08T18:14:28Z</time>
      </trkpt>
      <trkpt lat="62.632891790372" lon="17.974454059549">
        <ele>77.6</ele>
        <time>2018-01-08T18:14:29Z</time>
      </trkpt>
      <trkpt lat="62.632865890301" lon="17.97447660686">
        <ele>77.8</ele>
        <time>2018-01-08T18:14:30Z</time>
      </trkpt>
      <trkpt lat="62.632838816764" lon="17.974485156398">
        <ele>77.8</ele>
        <time>2018-01-08T18:14:31Z</time>
      </trkpt>
      <trkpt lat="62.632807636096" lon="17.974481887457">
        <ele>77.8</ele>
        <time>2018-01-08T18:14:32Z</time>
      </trkpt>
      <trkpt lat="62.63278131693" lon="17.974477361231">
        <ele>78</ele>
        <time>2018-01-08T18:14:33Z</time>
      </trkpt>
      <trkpt lat="62.632752650832" lon="17.974460094517">
        <ele>77.8</ele>
        <time>2018-01-08T18:14:34Z</time>
      </trkpt>
      <trkpt lat="62.632728678598" lon="17.97444307926">
        <ele>78</ele>
        <time>2018-01-08T18:14:35Z</time>
      </trkpt>
      <trkpt lat="62.632705293097" lon="17.974430674048">
        <ele>78</ele>
        <time>2018-01-08T18:14:36Z</time>
      </trkpt>
      <trkpt lat="62.632681823777" lon="17.974405193072">
        <ele>77.8</ele>
        <time>2018-01-08T18:14:37Z</time>
      </trkpt>
      <trkpt lat="62.632658689733" lon="17.974385160331">
        <ele>77.8</ele>
        <time>2018-01-08T18:14:38Z</time>
      </trkpt>
      <trkpt lat="62.63263882463" lon="17.97436596578">
        <ele>78</ele>
        <time>2018-01-08T18:14:39Z</time>
      </trkpt>
      <trkpt lat="62.632614014206" lon="17.974343586107">
        <ele>77.8</ele>
        <time>2018-01-08T18:14:40Z</time>
      </trkpt>
      <trkpt lat="62.632590963981" lon="17.974325565022">
        <ele>77.8</ele>
        <time>2018-01-08T18:14:41Z</time>
      </trkpt>
      <trkpt lat="62.632564058082" lon="17.974300838417">
        <ele>77.8</ele>
        <time>2018-01-08T18:14:42Z</time>
      </trkpt>
      <trkpt lat="62.632537236002" lon="17.974277788192">
        <ele>77.6</ele>
        <time>2018-01-08T18:14:43Z</time>
      </trkpt>
      <trkpt lat="62.632514856329" lon="17.974254067415">
        <ele>77.6</ele>
        <time>2018-01-08T18:14:44Z</time>
      </trkpt>
      <trkpt lat="62.632493231027" lon="17.974233447941">
        <ele>77.6</ele>
        <time>2018-01-08T18:14:45Z</time>
      </trkpt>
      <trkpt lat="62.63247118663" lon="17.974208888974">
        <ele>77.6</ele>
        <time>2018-01-08T18:14:46Z</time>
      </trkpt>
      <trkpt lat="62.632448471681" lon="17.974184330007">
        <ele>77.6</ele>
        <time>2018-01-08T18:14:47Z</time>
      </trkpt>
      <trkpt lat="62.632422906886" lon="17.974152730244">
        <ele>77.6</ele>
        <time>2018-01-08T18:14:48Z</time>
      </trkpt>
      <trkpt lat="62.63239910229" lon="17.974126997811">
        <ele>77.6</ele>
        <time>2018-01-08T18:14:49Z</time>
      </trkpt>
      <trkpt lat="62.63237563297" lon="17.974105121052">
        <ele>77.6</ele>
        <time>2018-01-08T18:14:50Z</time>
      </trkpt>
      <trkpt lat="62.632355181134" lon="17.974082489922">
        <ele>77.6</ele>
        <time>2018-01-08T18:14:51Z</time>
      </trkpt>
      <trkpt lat="62.632329616339" lon="17.974049297598">
        <ele>77.6</ele>
        <time>2018-01-08T18:14:52Z</time>
      </trkpt>
      <trkpt lat="62.632306147019" lon="17.974027001744">
        <ele>77.6</ele>
        <time>2018-01-08T18:14:53Z</time>
      </trkpt>
      <trkpt lat="62.632279827853" lon="17.973999173836">
        <ele>77.4</ele>
        <time>2018-01-08T18:14:54Z</time>
      </trkpt>
      <trkpt lat="62.632254430696" lon="17.973978219086">
        <ele>77.4</ele>
        <time>2018-01-08T18:14:55Z</time>
      </trkpt>
      <trkpt lat="62.632233308308" lon="17.973957934888">
        <ele>77.2</ele>
        <time>2018-01-08T18:14:56Z</time>
      </trkpt>
      <trkpt lat="62.632207240599" lon="17.973928598238">
        <ele>77.4</ele>
        <time>2018-01-08T18:14:57Z</time>
      </trkpt>
      <trkpt lat="62.632181591985" lon="17.973904374547">
        <ele>77.4</ele>
        <time>2018-01-08T18:14:58Z</time>
      </trkpt>
      <trkpt lat="62.632153764077" lon="17.973877803924">
        <ele>77.2</ele>
        <time>2018-01-08T18:14:59Z</time>
      </trkpt>
      <trkpt lat="62.632128702196" lon="17.973842599944">
        <ele>77.4</ele>
        <time>2018-01-08T18:15:00Z</time>
      </trkpt>
      <trkpt lat="62.632106657799" lon="17.973813095656">
        <ele>77.4</ele>
        <time>2018-01-08T18:15:01Z</time>
      </trkpt>
      <trkpt lat="62.632075980045" lon="17.973776969667">
        <ele>77</ele>
        <time>2018-01-08T18:15:02Z</time>
      </trkpt>
      <trkpt lat="62.632053013639" lon="17.973748722664">
        <ele>77</ele>
        <time>2018-01-08T18:15:03Z</time>
      </trkpt>
      <trkpt lat="62.632027113568" lon="17.973716703806">
        <ele>77</ele>
        <time>2018-01-08T18:15:04Z</time>
      </trkpt>
      <trkpt lat="62.63200347661" lon="17.973682421835">
        <ele>77</ele>
        <time>2018-01-08T18:15:05Z</time>
      </trkpt>
      <trkpt lat="62.631981264575" lon="17.973657611411">
        <ele>76.8</ele>
        <time>2018-01-08T18:15:06Z</time>
      </trkpt>
      <trkpt lat="62.631954274857" lon="17.973630705512">
        <ele>77</ele>
        <time>2018-01-08T18:15:07Z</time>
      </trkpt>
      <trkpt lat="62.631928207148" lon="17.973606230364">
        <ele>77</ele>
        <time>2018-01-08T18:15:08Z</time>
      </trkpt>
      <trkpt lat="62.63190289381" lon="17.973588712193">
        <ele>76.8</ele>
        <time>2018-01-08T18:15:09Z</time>
      </trkpt>
      <trkpt lat="62.631873221884" lon="17.973559627">
        <ele>76.8</ele>
        <time>2018-01-08T18:15:10Z</time>
      </trkpt>
      <trkpt lat="62.631851093668" lon="17.973534062205">
        <ele>76.8</ele>
        <time>2018-01-08T18:15:11Z</time>
      </trkpt>
      <trkpt lat="62.631826031787" lon="17.973499193501">
        <ele>76.8</ele>
        <time>2018-01-08T18:15:12Z</time>
      </trkpt>
      <trkpt lat="62.631802730105" lon="17.973459714752">
        <ele>77</ele>
        <time>2018-01-08T18:15:13Z</time>
      </trkpt>
      <trkpt lat="62.631780434251" lon="17.973422080021">
        <ele>77</ele>
        <time>2018-01-08T18:15:14Z</time>
      </trkpt>
      <trkpt lat="62.631760233872" lon="17.973392324276">
        <ele>77</ele>
        <time>2018-01-08T18:15:15Z</time>
      </trkpt>
      <trkpt lat="62.631735088172" lon="17.973358545219">
        <ele>77</ele>
        <time>2018-01-08T18:15:16Z</time>
      </trkpt>
      <trkpt lat="62.631710613024" lon="17.973329711483">
        <ele>77</ele>
        <time>2018-01-08T18:15:17Z</time>
      </trkpt>
      <trkpt lat="62.631687395161" lon="17.973299117548">
        <ele>76.8</ele>
        <time>2018-01-08T18:15:18Z</time>
      </trkpt>
      <trkpt lat="62.631663758203" lon="17.973258884428">
        <ele>76.8</ele>
        <time>2018-01-08T18:15:19Z</time>
      </trkpt>
      <trkpt lat="62.631643976919" lon="17.973219908593">
        <ele>76.6</ele>
        <time>2018-01-08T18:15:20Z</time>
      </trkpt>
      <trkpt lat="62.631624027997" lon="17.973186129536">
        <ele>76.8</ele>
        <time>2018-01-08T18:15:21Z</time>
      </trkpt>
      <trkpt lat="62.631598379383" lon="17.973140615819">
        <ele>76.6</ele>
        <time>2018-01-08T18:15:22Z</time>
      </trkpt>
      <trkpt lat="62.631577843728" lon="17.973102142898">
        <ele>76.6</ele>
        <time>2018-01-08T18:15:23Z</time>
      </trkpt>
      <trkpt lat="62.631558565358" lon="17.973057132095">
        <ele>76.6</ele>
        <time>2018-01-08T18:15:24Z</time>
      </trkpt>
      <trkpt lat="62.63154163392" lon="17.97300893617">
        <ele>76.6</ele>
        <time>2018-01-08T18:15:25Z</time>
      </trkpt>
      <trkpt lat="62.631526462681" lon="17.972972642543">
        <ele>76.4</ele>
        <time>2018-01-08T18:15:26Z</time>
      </trkpt>
      <trkpt lat="62.631506178483" lon="17.972926877369">
        <ele>76.4</ele>
        <time>2018-01-08T18:15:27Z</time>
      </trkpt>
      <trkpt lat="62.631485978104" lon="17.972874993408">
        <ele>76.4</ele>
        <time>2018-01-08T18:15:28Z</time>
      </trkpt>
      <trkpt lat="62.631466867372" lon="17.972835598478">
        <ele>76.2</ele>
        <time>2018-01-08T18:15:29Z</time>
      </trkpt>
      <trkpt lat="62.631447337545" lon="17.97279016858">
        <ele>76</ele>
        <time>2018-01-08T18:15:30Z</time>
      </trkpt>
      <trkpt lat="62.631431160478" lon="17.972746834157">
        <ele>75.8</ele>
        <time>2018-01-08T18:15:31Z</time>
      </trkpt>
      <trkpt lat="62.631412133565" lon="17.972696207481">
        <ele>75.8</ele>
        <time>2018-01-08T18:15:32Z</time>
      </trkpt>
      <trkpt lat="62.631394280118" lon="17.97264935266">
        <ele>75.4</ele>
        <time>2018-01-08T18:15:33Z</time>
      </trkpt>
      <trkpt lat="62.631376259033" lon="17.972595289405">
        <ele>75.2</ele>
        <time>2018-01-08T18:15:34Z</time>
      </trkpt>
      <trkpt lat="62.631357567396" lon="17.97254960805">
        <ele>75</ele>
        <time>2018-01-08T18:15:35Z</time>
      </trkpt>
      <trkpt lat="62.631341557967" lon="17.972498813736">
        <ele>74.6</ele>
        <time>2018-01-08T18:15:36Z</time>
      </trkpt>
      <trkpt lat="62.631320854674" lon="17.97244734887">
        <ele>74.4</ele>
        <time>2018-01-08T18:15:37Z</time>
      </trkpt>
      <trkpt lat="62.631300821933" lon="17.972403511533">
        <ele>74.4</ele>
        <time>2018-01-08T18:15:38Z</time>
      </trkpt>
      <trkpt lat="62.631283052305" lon="17.972356405255">
        <ele>74.2</ele>
        <time>2018-01-08T18:15:39Z</time>
      </trkpt>
      <trkpt lat="62.631262097555" lon="17.97229815105">
        <ele>74</ele>
        <time>2018-01-08T18:15:40Z</time>
      </trkpt>
      <trkpt lat="62.631246926316" lon="17.972251966781">
        <ele>74</ele>
        <time>2018-01-08T18:15:41Z</time>
      </trkpt>
      <trkpt lat="62.631228318498" lon="17.972186168866">
        <ele>73.8</ele>
        <time>2018-01-08T18:15:42Z</time>
      </trkpt>
      <trkpt lat="62.631213733992" lon="17.97213721857">
        <ele>73.8</ele>
        <time>2018-01-08T18:15:43Z</time>
      </trkpt>
      <trkpt lat="62.631198730391" lon="17.972087094808">
        <ele>73.6</ele>
        <time>2018-01-08T18:15:44Z</time>
      </trkpt>
      <trkpt lat="62.631184397342" lon="17.972032863915">
        <ele>73.6</ele>
        <time>2018-01-08T18:15:45Z</time>
      </trkpt>
      <trkpt lat="62.63117031575" lon="17.971980896135">
        <ele>73.4</ele>
        <time>2018-01-08T18:15:46Z</time>
      </trkpt>
      <trkpt lat="62.631154725416" lon="17.971924737405">
        <ele>73.4</ele>
        <time>2018-01-08T18:15:47Z</time>
      </trkpt>
      <trkpt lat="62.631139973272" lon="17.971866147924">
        <ele>73.4</ele>
        <time>2018-01-08T18:15:48Z</time>
      </trkpt>
      <trkpt lat="62.631127484241" lon="17.971815018334">
        <ele>73.2</ele>
        <time>2018-01-08T18:15:49Z</time>
      </trkpt>
      <trkpt lat="62.631113067373" lon="17.971759697794">
        <ele>73.2</ele>
        <time>2018-01-08T18:15:50Z</time>
      </trkpt>
      <trkpt lat="62.631101667989" lon="17.971708568204">
        <ele>73</ele>
        <time>2018-01-08T18:15:51Z</time>
      </trkpt>
      <trkpt lat="62.631087837854" lon="17.971649978723">
        <ele>73</ele>
        <time>2018-01-08T18:15:52Z</time>
      </trkpt>
      <trkpt lat="62.631073756262" lon="17.971591389242">
        <ele>72.8</ele>
        <time>2018-01-08T18:15:53Z</time>
      </trkpt>
      <trkpt lat="62.631062775973" lon="17.971534476141">
        <ele>72.6</ele>
        <time>2018-01-08T18:15:54Z</time>
      </trkpt>
      <trkpt lat="62.631053052969" lon="17.971479742334">
        <ele>72.6</ele>
        <time>2018-01-08T18:15:55Z</time>
      </trkpt>
      <trkpt lat="62.631045090164" lon="17.971426601088">
        <ele>72.4</ele>
        <time>2018-01-08T18:15:56Z</time>
      </trkpt>
      <trkpt lat="62.631034193694" lon="17.971362982467">
        <ele>72.2</ele>
        <time>2018-01-08T18:15:57Z</time>
      </trkpt>
      <trkpt lat="62.63101608879" lon="17.971279331105">
        <ele>72.2</ele>
        <time>2018-01-08T18:15:59Z</time>
      </trkpt>
      <trkpt lat="62.631012316935" lon="17.971258041079">
        <ele>72.2</ele>
        <time>2018-01-08T18:16:00Z</time>
      </trkpt>
      <trkpt lat="62.630996139868" lon="17.971175060269">
        <ele>72</ele>
        <time>2018-01-08T18:16:01Z</time>
      </trkpt>
      <trkpt lat="62.630986919778" lon="17.971120913195">
        <ele>71.8</ele>
        <time>2018-01-08T18:16:02Z</time>
      </trkpt>
      <trkpt lat="62.630980298077" lon="17.971052181615">
        <ele>71.8</ele>
        <time>2018-01-08T18:16:03Z</time>
      </trkpt>
      <trkpt lat="62.630976526222" lon="17.97102242587">
        <ele>71.8</ele>
        <time>2018-01-08T18:16:04Z</time>
      </trkpt>
      <trkpt lat="62.630965545933" lon="17.970933745368">
        <ele>71.4</ele>
        <time>2018-01-08T18:16:05Z</time>
      </trkpt>
      <trkpt lat="62.630958505137" lon="17.970867444539">
        <ele>71.4</ele>
        <time>2018-01-08T18:16:06Z</time>
      </trkpt>
      <trkpt lat="62.630950793789" lon="17.970815812035">
        <ele>71.2</ele>
        <time>2018-01-08T18:16:07Z</time>
      </trkpt>
      <trkpt lat="62.630941741337" lon="17.97074833774">
        <ele>71.2</ele>
        <time>2018-01-08T18:16:08Z</time>
      </trkpt>
      <trkpt lat="62.630933191799" lon="17.970695280313">
        <ele>71.2</ele>
        <time>2018-01-08T18:16:09Z</time>
      </trkpt>
      <trkpt lat="62.630926570098" lon="17.970641719972">
        <ele>71</ele>
        <time>2018-01-08T18:16:10Z</time>
      </trkpt>
      <trkpt lat="62.630918355836" lon="17.970574329496">
        <ele>70.8</ele>
        <time>2018-01-08T18:16:11Z</time>
      </trkpt>
      <trkpt lat="62.630912656144" lon="17.970534180195">
        <ele>70.8</ele>
        <time>2018-01-08T18:16:12Z</time>
      </trkpt>
      <trkpt lat="62.630903268416" lon="17.970471986497">
        <ele>70.6</ele>
        <time>2018-01-08T18:16:13Z</time>
      </trkpt>
      <trkpt lat="62.630895137973" lon="17.970407864962">
        <ele>70.6</ele>
        <time>2018-01-08T18:16:14Z</time>
      </trkpt>
      <trkpt lat="62.630889019186" lon="17.970355729544">
        <ele>70.4</ele>
        <time>2018-01-08T18:16:15Z</time>
      </trkpt>
      <trkpt lat="62.630881391657" lon="17.970307365981">
        <ele>70.4</ele>
        <time>2018-01-08T18:16:16Z</time>
      </trkpt>
      <trkpt lat="62.630867310065" lon="17.970254392373">
        <ele>70.2</ele>
        <time>2018-01-08T18:16:17Z</time>
      </trkpt>
      <trkpt lat="62.630847444962" lon="17.970230839234">
        <ele>70.2</ele>
        <time>2018-01-08T18:16:18Z</time>
      </trkpt>
      <trkpt lat="62.630822885995" lon="17.970223882257">
        <ele>70.2</ele>
        <time>2018-01-08T18:16:19Z</time>
      </trkpt>
      <trkpt lat="62.630799668132" lon="17.970229833406">
        <ele>70</ele>
        <time>2018-01-08T18:16:20Z</time>
      </trkpt>
      <trkpt lat="62.630778964839" lon="17.970237460935">
        <ele>70</ele>
        <time>2018-01-08T18:16:21Z</time>
      </trkpt>
      <trkpt lat="62.630759854107" lon="17.970243160627">
        <ele>69.8</ele>
        <time>2018-01-08T18:16:22Z</time>
      </trkpt>
      <trkpt lat="62.630732110018" lon="17.970255733477">
        <ele>69.8</ele>
        <time>2018-01-08T18:16:23Z</time>
      </trkpt>
      <trkpt lat="62.630710065621" lon="17.970262271359">
        <ele>69.8</ele>
        <time>2018-01-08T18:16:24Z</time>
      </trkpt>
      <trkpt lat="62.630686177206" lon="17.970270737078">
        <ele>69.8</ele>
        <time>2018-01-08T18:16:25Z</time>
      </trkpt>
      <trkpt lat="62.630664216628" lon="17.970284064299">
        <ele>69.8</ele>
        <time>2018-01-08T18:16:26Z</time>
      </trkpt>
      <trkpt lat="62.630645189715" lon="17.970293954941">
        <ele>69.8</ele>
        <time>2018-01-08T18:16:27Z</time>
      </trkpt>
      <trkpt lat="62.630621720395" lon="17.970309629094">
        <ele>69.8</ele>
        <time>2018-01-08T18:16:28Z</time>
      </trkpt>
      <trkpt lat="62.630600095093" lon="17.970323710686">
        <ele>69.8</ele>
        <time>2018-01-08T18:16:29Z</time>
      </trkpt>
      <trkpt lat="62.630580732904" lon="17.970333685147">
        <ele>70</ele>
        <time>2018-01-08T18:16:30Z</time>
      </trkpt>
      <trkpt lat="62.630557934136" lon="17.970323794505">
        <ele>70</ele>
        <time>2018-01-08T18:16:31Z</time>
      </trkpt>
      <trkpt lat="62.630539913051" lon="17.970305270506">
        <ele>70</ele>
        <time>2018-01-08T18:16:32Z</time>
      </trkpt>
      <trkpt lat="62.630524825631" lon="17.970275430942">
        <ele>70.2</ele>
        <time>2018-01-08T18:16:33Z</time>
      </trkpt>
      <trkpt lat="62.63051568936" lon="17.970250117604">
        <ele>70.2</ele>
        <time>2018-01-08T18:16:34Z</time>
      </trkpt>
      <trkpt lat="62.630504960528" lon="17.970205358258">
        <ele>70.2</ele>
        <time>2018-01-08T18:16:35Z</time>
      </trkpt>
      <trkpt lat="62.630500434302" lon="17.970157665247">
        <ele>70.4</ele>
        <time>2018-01-08T18:16:36Z</time>
      </trkpt>
      <trkpt lat="62.630498003551" lon="17.970109301684">
        <ele>70.4</ele>
        <time>2018-01-08T18:16:37Z</time>
      </trkpt>
      <trkpt lat="62.630496997723" lon="17.970057585361">
        <ele>70.6</ele>
        <time>2018-01-08T18:16:38Z</time>
      </trkpt>
      <trkpt lat="62.630493561144" lon="17.970015424404">
        <ele>70.6</ele>
        <time>2018-01-08T18:16:39Z</time>
      </trkpt>
      <trkpt lat="62.630491130393" lon="17.969977454397">
        <ele>70.6</ele>
        <time>2018-01-08T18:16:40Z</time>
      </trkpt>
      <trkpt lat="62.630490124565" lon="17.969930012843">
        <ele>70.4</ele>
        <time>2018-01-08T18:16:41Z</time>
      </trkpt>
      <trkpt lat="62.630486771805" lon="17.969907381713">
        <ele>70.2</ele>
        <time>2018-01-08T18:16:42Z</time>
      </trkpt>
      <trkpt lat="62.630483335226" lon="17.969876536321">
        <ele>70</ele>
        <time>2018-01-08T18:16:43Z</time>
      </trkpt>
      <trkpt lat="62.630480150104" lon="17.969860443073">
        <ele>69.8</ele>
        <time>2018-01-08T18:16:44Z</time>
      </trkpt>
      <trkpt lat="62.630482748493" lon="17.969863041462">
        <ele>69.8</ele>
        <time>2018-01-08T18:16:45Z</time>
      </trkpt>
      <trkpt lat="62.630481407389" lon="17.969874859941">
        <ele>69.6</ele>
        <time>2018-01-08T18:16:46Z</time>
      </trkpt>
      <trkpt lat="62.630483167588" lon="17.969871842457">
        <ele>69.8</ele>
        <time>2018-01-08T18:16:47Z</time>
      </trkpt>
      <trkpt lat="62.630566567493" lon="17.970219104574">
        <ele>70.6</ele>
        <time>2018-01-08T18:17:32Z</time>
      </trkpt>
      <trkpt lat="62.630583918026" lon="17.970229246673">
        <ele>70.6</ele>
        <time>2018-01-08T18:17:33Z</time>
      </trkpt>
      <trkpt lat="62.630603364034" lon="17.970224720447">
        <ele>70.8</ele>
        <time>2018-01-08T18:17:34Z</time>
      </trkpt>
      <trkpt lat="62.6306296832" lon="17.970226313008">
        <ele>70.8</ele>
        <time>2018-01-08T18:17:35Z</time>
      </trkpt>
      <trkpt lat="62.630644519163" lon="17.970218350203">
        <ele>70.8</ele>
        <time>2018-01-08T18:17:36Z</time>
      </trkpt>
      <trkpt lat="62.630665306275" lon="17.970217428194">
        <ele>70.8</ele>
        <time>2018-01-08T18:17:37Z</time>
      </trkpt>
      <trkpt lat="62.630686093387" lon="17.970203095145">
        <ele>70.6</ele>
        <time>2018-01-08T18:17:38Z</time>
      </trkpt>
      <trkpt lat="62.630706629042" lon="17.97020099967">
        <ele>70.6</ele>
        <time>2018-01-08T18:17:39Z</time>
      </trkpt>
      <trkpt lat="62.630732948208" lon="17.970171914477">
        <ele>70.6</ele>
        <time>2018-01-08T18:17:40Z</time>
      </trkpt>
      <trkpt lat="62.630754405872" lon="17.970162275292">
        <ele>70.4</ele>
        <time>2018-01-08T18:17:41Z</time>
      </trkpt>
      <trkpt lat="62.630775025346" lon="17.970153977211">
        <ele>70.4</ele>
        <time>2018-01-08T18:17:42Z</time>
      </trkpt>
      <trkpt lat="62.630800506322" lon="17.970149953899">
        <ele>70.2</ele>
        <time>2018-01-08T18:17:43Z</time>
      </trkpt>
      <trkpt lat="62.630820203787" lon="17.970143499836">
        <ele>70.2</ele>
        <time>2018-01-08T18:17:44Z</time>
      </trkpt>
      <trkpt lat="62.63083336337" lon="17.97013897361">
        <ele>70.2</ele>
        <time>2018-01-08T18:17:45Z</time>
      </trkpt>
      <trkpt lat="62.630848702247" lon="17.970137632506">
        <ele>70</ele>
        <time>2018-01-08T18:17:46Z</time>
      </trkpt>
      <trkpt lat="62.630861442735" lon="17.970131848995">
        <ele>70</ele>
        <time>2018-01-08T18:17:47Z</time>
      </trkpt>
      <trkpt lat="62.630874267042" lon="17.970128412416">
        <ele>69.8</ele>
        <time>2018-01-08T18:17:48Z</time>
      </trkpt>
      <trkpt lat="62.630884576779" lon="17.970123634733">
        <ele>69.8</ele>
        <time>2018-01-08T18:17:49Z</time>
      </trkpt>
      <trkpt lat="62.630890695566" lon="17.970120952525">
        <ele>69.6</ele>
        <time>2018-01-08T18:17:50Z</time>
      </trkpt>
      <trkpt lat="62.630899077466" lon="17.97012472438">
        <ele>69.8</ele>
        <time>2018-01-08T18:17:51Z</time>
      </trkpt>
      <trkpt lat="62.630898490733" lon="17.970121036344">
        <ele>69.6</ele>
        <time>2018-01-08T18:17:52Z</time>
      </trkpt>
      <trkpt lat="62.630899412742" lon="17.970107373847">
        <ele>69.6</ele>
        <time>2018-01-08T18:17:53Z</time>
      </trkpt>
      <trkpt lat="62.630908968108" lon="17.970105362191">
        <ele>69.6</ele>
        <time>2018-01-08T18:17:54Z</time>
      </trkpt>
      <trkpt lat="62.630908381375" lon="17.970113157358">
        <ele>69.4</ele>
        <time>2018-01-08T18:17:55Z</time>
      </trkpt>
      <trkpt lat="62.63117366851" lon="17.969988518505">
        <ele>69.2</ele>
        <time>2018-01-08T18:19:51Z</time>
      </trkpt>
      <trkpt lat="62.631208453395" lon="17.969973598723">
        <ele>69.4</ele>
        <time>2018-01-08T18:19:52Z</time>
      </trkpt>
      <trkpt lat="62.631239382606" lon="17.969957002561">
        <ele>69.2</ele>
        <time>2018-01-08T18:19:53Z</time>
      </trkpt>
      <trkpt lat="62.631273077844" lon="17.969942669512">
        <ele>69.2</ele>
        <time>2018-01-08T18:19:54Z</time>
      </trkpt>
      <trkpt lat="62.63129939701" lon="17.969929258472">
        <ele>69.2</ele>
        <time>2018-01-08T18:19:55Z</time>
      </trkpt>
      <trkpt lat="62.631330158583" lon="17.969913751957">
        <ele>69</ele>
        <time>2018-01-08T18:19:56Z</time>
      </trkpt>
      <trkpt lat="62.631359998147" lon="17.96989589851">
        <ele>68.6</ele>
        <time>2018-01-08T18:19:57Z</time>
      </trkpt>
      <trkpt lat="62.63139411248" lon="17.969874357027">
        <ele>68.4</ele>
        <time>2018-01-08T18:19:58Z</time>
      </trkpt>
      <trkpt lat="62.63142428732" lon="17.969854994838">
        <ele>68.2</ele>
        <time>2018-01-08T18:19:59Z</time>
      </trkpt>
      <trkpt lat="62.631456306178" lon="17.969839572142">
        <ele>68.2</ele>
        <time>2018-01-08T18:20:00Z</time>
      </trkpt>
      <trkpt lat="62.631483295896" lon="17.969823730351">
        <ele>68.4</ele>
        <time>2018-01-08T18:20:01Z</time>
      </trkpt>
      <trkpt lat="62.631517996962" lon="17.969805793085">
        <ele>68.4</ele>
        <time>2018-01-08T18:20:02Z</time>
      </trkpt>
      <trkpt lat="62.631545321956" lon="17.969790957122">
        <ele>68.6</ele>
        <time>2018-01-08T18:20:03Z</time>
      </trkpt>
      <trkpt lat="62.631576167348" lon="17.969772181666">
        <ele>68.6</ele>
        <time>2018-01-08T18:20:04Z</time>
      </trkpt>
      <trkpt lat="62.631605755455" lon="17.96975927354">
        <ele>68.8</ele>
        <time>2018-01-08T18:20:05Z</time>
      </trkpt>
      <trkpt lat="62.631632912811" lon="17.969736223315">
        <ele>68.6</ele>
        <time>2018-01-08T18:20:06Z</time>
      </trkpt>
      <trkpt lat="62.631663758203" lon="17.96971484947">
        <ele>68.6</ele>
        <time>2018-01-08T18:20:07Z</time>
      </trkpt>
      <trkpt lat="62.631691753749" lon="17.969690458141">
        <ele>68.2</ele>
        <time>2018-01-08T18:20:08Z</time>
      </trkpt>
      <trkpt lat="62.63171513925" lon="17.969665060984">
        <ele>68.2</ele>
        <time>2018-01-08T18:20:09Z</time>
      </trkpt>
      <trkpt lat="62.631740033493" lon="17.969630779013">
        <ele>68.2</ele>
        <time>2018-01-08T18:20:10Z</time>
      </trkpt>
      <trkpt lat="62.631764927736" lon="17.96959331192">
        <ele>68.2</ele>
        <time>2018-01-08T18:20:11Z</time>
      </trkpt>
      <trkpt lat="62.631793174739" lon="17.969555761008">
        <ele>68.2</ele>
        <time>2018-01-08T18:20:12Z</time>
      </trkpt>
      <trkpt lat="62.631822008475" lon="17.969528603652">
        <ele>68</ele>
        <time>2018-01-08T18:20:13Z</time>
      </trkpt>
      <trkpt lat="62.631850171659" lon="17.969520724666">
        <ele>68</ele>
        <time>2018-01-08T18:20:14Z</time>
      </trkpt>
      <trkpt lat="62.631875065902" lon="17.969527011091">
        <ele>67.8</ele>
        <time>2018-01-08T18:20:15Z</time>
      </trkpt>
      <trkpt lat="62.631901133611" lon="17.969531118222">
        <ele>67.6</ele>
        <time>2018-01-08T18:20:16Z</time>
      </trkpt>
      <trkpt lat="62.631923429465" lon="17.969532207869">
        <ele>67.4</ele>
        <time>2018-01-08T18:20:17Z</time>
      </trkpt>
      <trkpt lat="62.631959806911" lon="17.969534303344">
        <ele>67.2</ele>
        <time>2018-01-08T18:20:18Z</time>
      </trkpt>
      <trkpt lat="62.631986796629" lon="17.969532207869">
        <ele>67.2</ele>
        <time>2018-01-08T18:20:19Z</time>
      </trkpt>
      <trkpt lat="62.632014792175" lon="17.969526424358">
        <ele>67.2</ele>
        <time>2018-01-08T18:20:20Z</time>
      </trkpt>
      <trkpt lat="62.632039770237" lon="17.969523155417">
        <ele>67.4</ele>
        <time>2018-01-08T18:20:21Z</time>
      </trkpt>
      <trkpt lat="62.632070196534" lon="17.969518880648">
        <ele>67.4</ele>
        <time>2018-01-08T18:20:22Z</time>
      </trkpt>
      <trkpt lat="62.632098862632" lon="17.969515276431">
        <ele>67.4</ele>
        <time>2018-01-08T18:20:23Z</time>
      </trkpt>
      <trkpt lat="62.63212417597" lon="17.969506643074">
        <ele>67.4</ele>
        <time>2018-01-08T18:20:24Z</time>
      </trkpt>
      <trkpt lat="62.632153093525" lon="17.969504547599">
        <ele>67.4</ele>
        <time>2018-01-08T18:20:25Z</time>
      </trkpt>
      <trkpt lat="62.632177903949" lon="17.969496752432">
        <ele>67.4</ele>
        <time>2018-01-08T18:20:26Z</time>
      </trkpt>
      <trkpt lat="62.632208246427" lon="17.969485688324">
        <ele>67.4</ele>
        <time>2018-01-08T18:20:27Z</time>
      </trkpt>
      <trkpt lat="62.632238840362" lon="17.969476971148">
        <ele>67.6</ele>
        <time>2018-01-08T18:20:28Z</time>
      </trkpt>
      <trkpt lat="62.63226750646" lon="17.969468337791">
        <ele>67.8</ele>
        <time>2018-01-08T18:20:29Z</time>
      </trkpt>
      <trkpt lat="62.632295921101" lon="17.969461967547">
        <ele>67.8</ele>
        <time>2018-01-08T18:20:30Z</time>
      </trkpt>
      <trkpt lat="62.632319055145" lon="17.969460374986">
        <ele>67.8</ele>
        <time>2018-01-08T18:20:31Z</time>
      </trkpt>
      <trkpt lat="62.632354342944" lon="17.96945668695">
        <ele>68</ele>
        <time>2018-01-08T18:20:32Z</time>
      </trkpt>
      <trkpt lat="62.63238485306" lon="17.96945333419">
        <ele>68</ele>
        <time>2018-01-08T18:20:33Z</time>
      </trkpt>
      <trkpt lat="62.632420224678" lon="17.969454088561">
        <ele>68.2</ele>
        <time>2018-01-08T18:20:34Z</time>
      </trkpt>
      <trkpt lat="62.632450315699" lon="17.969452747457">
        <ele>68.2</ele>
        <time>2018-01-08T18:20:35Z</time>
      </trkpt>
      <trkpt lat="62.632479484711" lon="17.969454926751">
        <ele>67.8</ele>
        <time>2018-01-08T18:20:36Z</time>
      </trkpt>
      <trkpt lat="62.63251309613" lon="17.969454759113">
        <ele>67.8</ele>
        <time>2018-01-08T18:20:37Z</time>
      </trkpt>
      <trkpt lat="62.632542600418" lon="17.969455178208">
        <ele>67.8</ele>
        <time>2018-01-08T18:20:38Z</time>
      </trkpt>
      <trkpt lat="62.632571350335" lon="17.969462051366">
        <ele>67.8</ele>
        <time>2018-01-08T18:20:39Z</time>
      </trkpt>
      <trkpt lat="62.632599681157" lon="17.96946842161">
        <ele>67.6</ele>
        <time>2018-01-08T18:20:40Z</time>
      </trkpt>
      <trkpt lat="62.632626419418" lon="17.969477725519">
        <ele>67.8</ele>
        <time>2018-01-08T18:20:41Z</time>
      </trkpt>
      <trkpt lat="62.632655420792" lon="17.969486442695">
        <ele>67.8</ele>
        <time>2018-01-08T18:20:42Z</time>
      </trkpt>
      <trkpt lat="62.632684757442" lon="17.969492142387">
        <ele>67.6</ele>
        <time>2018-01-08T18:20:43Z</time>
      </trkpt>
      <trkpt lat="62.632715016101" lon="17.969498344993">
        <ele>67.6</ele>
        <time>2018-01-08T18:20:44Z</time>
      </trkpt>
      <trkpt lat="62.632741922" lon="17.969498177355">
        <ele>67.6</ele>
        <time>2018-01-08T18:20:45Z</time>
      </trkpt>
      <trkpt lat="62.632769414632" lon="17.969504128504">
        <ele>67.6</ele>
        <time>2018-01-08T18:20:46Z</time>
      </trkpt>
      <trkpt lat="62.632800679119" lon="17.969508487092">
        <ele>67.6</ele>
        <time>2018-01-08T18:20:47Z</time>
      </trkpt>
      <trkpt lat="62.632831524511" lon="17.969517455725">
        <ele>67.8</ele>
        <time>2018-01-08T18:20:48Z</time>
      </trkpt>
      <trkpt lat="62.632859520057" lon="17.969525502349">
        <ele>68</ele>
        <time>2018-01-08T18:20:49Z</time>
      </trkpt>
      <trkpt lat="62.632886342137" lon="17.969535057715">
        <ele>68.2</ele>
        <time>2018-01-08T18:20:50Z</time>
      </trkpt>
      <trkpt lat="62.632911152561" lon="17.969546121823">
        <ele>68.2</ele>
        <time>2018-01-08T18:20:51Z</time>
      </trkpt>
      <trkpt lat="62.632942919962" lon="17.969558275578">
        <ele>68.2</ele>
        <time>2018-01-08T18:20:52Z</time>
      </trkpt>
      <trkpt lat="62.632974016811" lon="17.969562717985">
        <ele>68.4</ele>
        <time>2018-01-08T18:20:53Z</time>
      </trkpt>
      <trkpt lat="62.633003269642" lon="17.969567579487">
        <ele>68.6</ele>
        <time>2018-01-08T18:20:54Z</time>
      </trkpt>
      <trkpt lat="62.633034115034" lon="17.969572943903">
        <ele>68.6</ele>
        <time>2018-01-08T18:20:55Z</time>
      </trkpt>
      <trkpt lat="62.633062445856" lon="17.969581409622">
        <ele>68.6</ele>
        <time>2018-01-08T18:20:56Z</time>
      </trkpt>
      <trkpt lat="62.633090441402" lon="17.969585935848">
        <ele>68.8</ele>
        <time>2018-01-08T18:20:57Z</time>
      </trkpt>
      <trkpt lat="62.633123549907" lon="17.969594736843">
        <ele>69</ele>
        <time>2018-01-08T18:20:58Z</time>
      </trkpt>
      <trkpt lat="62.633152467462" lon="17.969604459847">
        <ele>69</ele>
        <time>2018-01-08T18:20:59Z</time>
      </trkpt>
      <trkpt lat="62.63318364813" lon="17.969612757928">
        <ele>69</ele>
        <time>2018-01-08T18:21:00Z</time>
      </trkpt>
      <trkpt lat="62.633209799658" lon="17.969625414597">
        <ele>69</ele>
        <time>2018-01-08T18:21:01Z</time>
      </trkpt>
      <trkpt lat="62.633242153792" lon="17.969636311067">
        <ele>69.2</ele>
        <time>2018-01-08T18:21:02Z</time>
      </trkpt>
      <trkpt lat="62.633270903709" lon="17.969654751247">
        <ele>69</ele>
        <time>2018-01-08T18:21:03Z</time>
      </trkpt>
      <trkpt lat="62.633302168196" lon="17.969673442884">
        <ele>69</ele>
        <time>2018-01-08T18:21:04Z</time>
      </trkpt>
      <trkpt lat="62.633330079923" lon="17.969706048475">
        <ele>69.2</ele>
        <time>2018-01-08T18:21:05Z</time>
      </trkpt>
      <trkpt lat="62.633348436284" lon="17.969744353758">
        <ele>69.2</ele>
        <time>2018-01-08T18:21:06Z</time>
      </trkpt>
      <trkpt lat="62.633364361894" lon="17.969800009574">
        <ele>69.2</ele>
        <time>2018-01-08T18:21:07Z</time>
      </trkpt>
      <trkpt lat="62.63337559364" lon="17.969855078657">
        <ele>69</ele>
        <time>2018-01-08T18:21:08Z</time>
      </trkpt>
      <trkpt lat="62.633386406291" lon="17.969910650654">
        <ele>69.2</ele>
        <time>2018-01-08T18:21:09Z</time>
      </trkpt>
      <trkpt lat="62.633393950001" lon="17.969975861836">
        <ele>69.2</ele>
        <time>2018-01-08T18:21:10Z</time>
      </trkpt>
      <trkpt lat="62.633397721856" lon="17.970032858756">
        <ele>69.4</ele>
        <time>2018-01-08T18:21:11Z</time>
      </trkpt>
      <trkpt lat="62.633401996625" lon="17.970095303911">
        <ele>69.4</ele>
        <time>2018-01-08T18:21:12Z</time>
      </trkpt>
      <trkpt lat="62.633404427376" lon="17.970156072686">
        <ele>69.6</ele>
        <time>2018-01-08T18:21:13Z</time>
      </trkpt>
      <trkpt lat="62.633408953602" lon="17.970213404882">
        <ele>69.6</ele>
        <time>2018-01-08T18:21:14Z</time>
      </trkpt>
      <trkpt lat="62.633413228371" lon="17.970273335467">
        <ele>69.8</ele>
        <time>2018-01-08T18:21:15Z</time>
      </trkpt>
      <trkpt lat="62.633416245855" lon="17.970336199717">
        <ele>70.2</ele>
        <time>2018-01-08T18:21:16Z</time>
      </trkpt>
      <trkpt lat="62.633422197004" lon="17.970399063967">
        <ele>70.2</ele>
        <time>2018-01-08T18:21:17Z</time>
      </trkpt>
      <trkpt lat="62.633425214488" lon="17.970462431131">
        <ele>70.4</ele>
        <time>2018-01-08T18:21:18Z</time>
      </trkpt>
      <trkpt lat="62.633429656895" lon="17.970520601517">
        <ele>70.4</ele>
        <time>2018-01-08T18:21:19Z</time>
      </trkpt>
      <trkpt lat="62.633434434578" lon="17.970582124663">
        <ele>70.6</ele>
        <time>2018-01-08T18:21:20Z</time>
      </trkpt>
      <trkpt lat="62.633436194777" lon="17.97063602028">
        <ele>70.8</ele>
        <time>2018-01-08T18:21:21Z</time>
      </trkpt>
      <trkpt lat="62.633438876985" lon="17.9707013991">
        <ele>71</ele>
        <time>2018-01-08T18:21:22Z</time>
      </trkpt>
      <trkpt lat="62.633442481202" lon="17.970759150391">
        <ele>71.2</ele>
        <time>2018-01-08T18:21:23Z</time>
      </trkpt>
      <trkpt lat="62.633445917781" lon="17.970821930822">
        <ele>71.4</ele>
        <time>2018-01-08T18:21:24Z</time>
      </trkpt>
      <trkpt lat="62.633449019084" lon="17.970875826439">
        <ele>71.6</ele>
        <time>2018-01-08T18:21:25Z</time>
      </trkpt>
      <trkpt lat="62.633449270541" lon="17.970933242454">
        <ele>71.6</ele>
        <time>2018-01-08T18:21:26Z</time>
      </trkpt>
      <trkpt lat="62.633450863102" lon="17.970992586306">
        <ele>71.8</ele>
        <time>2018-01-08T18:21:27Z</time>
      </trkpt>
      <trkpt lat="62.633452288025" lon="17.971057713669">
        <ele>71.8</ele>
        <time>2018-01-08T18:21:28Z</time>
      </trkpt>
      <trkpt lat="62.633453629129" lon="17.971119823548">
        <ele>72</ele>
        <time>2018-01-08T18:21:29Z</time>
      </trkpt>
      <trkpt lat="62.633454802595" lon="17.971185705282">
        <ele>72.2</ele>
        <time>2018-01-08T18:21:30Z</time>
      </trkpt>
      <trkpt lat="62.633454718776" lon="17.971246725514">
        <ele>72.4</ele>
        <time>2018-01-08T18:21:31Z</time>
      </trkpt>
      <trkpt lat="62.633455556966" lon="17.971310930868">
        <ele>72.4</ele>
        <time>2018-01-08T18:21:32Z</time>
      </trkpt>
      <trkpt lat="62.633454551138" lon="17.971365664675">
        <ele>72.4</ele>
        <time>2018-01-08T18:21:33Z</time>
      </trkpt>
      <trkpt lat="62.633452204206" lon="17.971427942192">
        <ele>72.6</ele>
        <time>2018-01-08T18:21:34Z</time>
      </trkpt>
      <trkpt lat="62.633451952749" lon="17.971490219709">
        <ele>72.6</ele>
        <time>2018-01-08T18:21:35Z</time>
      </trkpt>
      <trkpt lat="62.633448180894" lon="17.971549731199">
        <ele>72.6</ele>
        <time>2018-01-08T18:21:36Z</time>
      </trkpt>
      <trkpt lat="62.633443570849" lon="17.97161837896">
        <ele>72.6</ele>
        <time>2018-01-08T18:21:37Z</time>
      </trkpt>
      <trkpt lat="62.633439715175" lon="17.971673950957">
        <ele>72.8</ele>
        <time>2018-01-08T18:21:38Z</time>
      </trkpt>
      <trkpt lat="62.633433177293" lon="17.971735390284">
        <ele>73</ele>
        <time>2018-01-08T18:21:39Z</time>
      </trkpt>
      <trkpt lat="62.633424963031" lon="17.971794566498">
        <ele>73</ele>
        <time>2018-01-08T18:21:41Z</time>
      </trkpt>
      <trkpt lat="62.633425633583" lon="17.971841086043">
        <ele>73.2</ele>
        <time>2018-01-08T18:21:42Z</time>
      </trkpt>
      <trkpt lat="62.633420269167" lon="17.971918702437">
        <ele>73.2</ele>
        <time>2018-01-08T18:21:43Z</time>
      </trkpt>
      <trkpt lat="62.633415575303" lon="17.971979806488">
        <ele>73.4</ele>
        <time>2018-01-08T18:21:44Z</time>
      </trkpt>
      <trkpt lat="62.633409037421" lon="17.972041748729">
        <ele>73.6</ele>
        <time>2018-01-08T18:21:45Z</time>
      </trkpt>
      <trkpt lat="62.633405852299" lon="17.972097739821">
        <ele>73.6</ele>
        <time>2018-01-08T18:21:46Z</time>
      </trkpt>
      <trkpt lat="62.633399314417" lon="17.972159262967">
        <ele>73.8</ele>
        <time>2018-01-08T18:21:47Z</time>
      </trkpt>
      <trkpt lat="62.633391938345" lon="17.972222043398">
        <ele>74</ele>
        <time>2018-01-08T18:21:48Z</time>
      </trkpt>
      <trkpt lat="62.633385316644" lon="17.972286081114">
        <ele>74.2</ele>
        <time>2018-01-08T18:21:49Z</time>
      </trkpt>
      <trkpt lat="62.633375258364" lon="17.97234760426">
        <ele>74.2</ele>
        <time>2018-01-08T18:21:50Z</time>
      </trkpt>
      <trkpt lat="62.633366625007" lon="17.97239873385">
        <ele>74.4</ele>
        <time>2018-01-08T18:21:51Z</time>
      </trkpt>
      <trkpt lat="62.633360841496" lon="17.972446845956">
        <ele>74.4</ele>
        <time>2018-01-08T18:21:52Z</time>
      </trkpt>
      <trkpt lat="62.633349106836" lon="17.972508872016">
        <ele>74.6</ele>
        <time>2018-01-08T18:21:53Z</time>
      </trkpt>
      <trkpt lat="62.633341060212" lon="17.972555978294">
        <ele>74.6</ele>
        <time>2018-01-08T18:21:54Z</time>
      </trkpt>
      <trkpt lat="62.633332510674" lon="17.972618758725">
        <ele>74.6</ele>
        <time>2018-01-08T18:21:55Z</time>
      </trkpt>
      <trkpt lat="62.633321865661" lon="17.972673324894">
        <ele>74.6</ele>
        <time>2018-01-08T18:21:56Z</time>
      </trkpt>
      <trkpt lat="62.633313316123" lon="17.972723616294">
        <ele>74.8</ele>
        <time>2018-01-08T18:21:57Z</time>
      </trkpt>
      <trkpt lat="62.63330267111" lon="17.972781870499">
        <ele>74.8</ele>
        <time>2018-01-08T18:21:58Z</time>
      </trkpt>
      <trkpt lat="62.633296133228" lon="17.972827216578">
        <ele>74.8</ele>
        <time>2018-01-08T18:21:59Z</time>
      </trkpt>
      <trkpt lat="62.633286074948" lon="17.972893936502">
        <ele>75</ele>
        <time>2018-01-08T18:22:00Z</time>
      </trkpt>
      <trkpt lat="62.633276938677" lon="17.97294439554">
        <ele>75</ele>
        <time>2018-01-08T18:22:01Z</time>
      </trkpt>
      <trkpt lat="62.633265874569" lon="17.972989741619">
        <ele>75.2</ele>
        <time>2018-01-08T18:22:02Z</time>
      </trkpt>
      <trkpt lat="62.633253553176" lon="17.973044559245">
        <ele>75.4</ele>
        <time>2018-01-08T18:22:03Z</time>
      </trkpt>
      <trkpt lat="62.633242069973" lon="17.973098454862">
        <ele>75.6</ele>
        <time>2018-01-08T18:22:04Z</time>
      </trkpt>
      <trkpt lat="62.633230251494" lon="17.973153523945">
        <ele>75.8</ele>
        <time>2018-01-08T18:22:05Z</time>
      </trkpt>
      <trkpt lat="62.633217594825" lon="17.973211191417">
        <ele>76</ele>
        <time>2018-01-08T18:22:06Z</time>
      </trkpt>
      <trkpt lat="62.633208290916" lon="17.973263997387">
        <ele>76.2</ele>
        <time>2018-01-08T18:22:07Z</time>
      </trkpt>
      <trkpt lat="62.633196137161" lon="17.973321329583">
        <ele>76.2</ele>
        <time>2018-01-08T18:22:08Z</time>
      </trkpt>
      <trkpt lat="62.633183815768" lon="17.973370363698">
        <ele>76.4</ele>
        <time>2018-01-08T18:22:09Z</time>
      </trkpt>
      <trkpt lat="62.633170907642" lon="17.973425432781">
        <ele>76.6</ele>
        <time>2018-01-08T18:22:10Z</time>
      </trkpt>
      <trkpt lat="62.63315598786" lon="17.973489721954">
        <ele>76.6</ele>
        <time>2018-01-08T18:22:11Z</time>
      </trkpt>
      <trkpt lat="62.633143917924" lon="17.973540097173">
        <ele>76.8</ele>
        <time>2018-01-08T18:22:12Z</time>
      </trkpt>
      <trkpt lat="62.633129668694" lon="17.973595836808">
        <ele>76.8</ele>
        <time>2018-01-08T18:22:13Z</time>
      </trkpt>
      <trkpt lat="62.633115503283" lon="17.973649061873">
        <ele>77</ele>
        <time>2018-01-08T18:22:14Z</time>
      </trkpt>
      <trkpt lat="62.633102846614" lon="17.973699269454">
        <ele>77.2</ele>
        <time>2018-01-08T18:22:15Z</time>
      </trkpt>
      <trkpt lat="62.633089519393" lon="17.973749393216">
        <ele>77.2</ele>
        <time>2018-01-08T18:22:16Z</time>
      </trkpt>
      <trkpt lat="62.633076527448" lon="17.973801193358">
        <ele>77.2</ele>
        <time>2018-01-08T18:22:17Z</time>
      </trkpt>
      <trkpt lat="62.633062194399" lon="17.97386221359">
        <ele>77.4</ele>
        <time>2018-01-08T18:22:18Z</time>
      </trkpt>
      <trkpt lat="62.633046352608" lon="17.973925496935">
        <ele>77.4</ele>
        <time>2018-01-08T18:22:19Z</time>
      </trkpt>
      <trkpt lat="62.633033193025" lon="17.973985595158">
        <ele>77.6</ele>
        <time>2018-01-08T18:22:20Z</time>
      </trkpt>
      <trkpt lat="62.633020117261" lon="17.974049800512">
        <ele>77.6</ele>
        <time>2018-01-08T18:22:21Z</time>
      </trkpt>
      <trkpt lat="62.633007712049" lon="17.974105623966">
        <ele>77.8</ele>
        <time>2018-01-08T18:22:22Z</time>
      </trkpt>
      <trkpt lat="62.632992792267" lon="17.974172846804">
        <ele>78</ele>
        <time>2018-01-08T18:22:23Z</time>
      </trkpt>
      <trkpt lat="62.632976699019" lon="17.974235291959">
        <ele>78.2</ele>
        <time>2018-01-08T18:22:24Z</time>
      </trkpt>
      <trkpt lat="62.632961443961" lon="17.974299664951">
        <ele>78.2</ele>
        <time>2018-01-08T18:22:25Z</time>
      </trkpt>
      <trkpt lat="62.632946607998" lon="17.974362445382">
        <ele>78.2</ele>
        <time>2018-01-08T18:22:26Z</time>
      </trkpt>
      <trkpt lat="62.632927664904" lon="17.974414413162">
        <ele>78.2</ele>
        <time>2018-01-08T18:22:27Z</time>
      </trkpt>
      <trkpt lat="62.632904279403" lon="17.974460597431">
        <ele>78.4</ele>
        <time>2018-01-08T18:22:28Z</time>
      </trkpt>
      <trkpt lat="62.632873098735" lon="17.97448917971">
        <ele>78.2</ele>
        <time>2018-01-08T18:22:29Z</time>
      </trkpt>
      <trkpt lat="62.632840325506" lon="17.974495969049">
        <ele>78.4</ele>
        <time>2018-01-08T18:22:30Z</time>
      </trkpt>
      <trkpt lat="62.632805205345" lon="17.974482725647">
        <ele>78.6</ele>
        <time>2018-01-08T18:22:31Z</time>
      </trkpt>
      <trkpt lat="62.632772432116" lon="17.974466632399">
        <ele>78.6</ele>
        <time>2018-01-08T18:22:32Z</time>
      </trkpt>
      <trkpt lat="62.632738485421" lon="17.974454143368">
        <ele>78.6</ele>
        <time>2018-01-08T18:22:33Z</time>
      </trkpt>
      <trkpt lat="62.632709064952" lon="17.974437044292">
        <ele>78.6</ele>
        <time>2018-01-08T18:22:34Z</time>
      </trkpt>
      <trkpt lat="62.632678638655" lon="17.974411982411">
        <ele>78.6</ele>
        <time>2018-01-08T18:22:35Z</time>
      </trkpt>
      <trkpt lat="62.63265139748" lon="17.974383986865">
        <ele>78.6</ele>
        <time>2018-01-08T18:22:36Z</time>
      </trkpt>
      <trkpt lat="62.632625665047" lon="17.974351548912">
        <ele>78.6</ele>
        <time>2018-01-08T18:22:37Z</time>
      </trkpt>
      <trkpt lat="62.632599262062" lon="17.974321374072">
        <ele>78.4</ele>
        <time>2018-01-08T18:22:38Z</time>
      </trkpt>
      <trkpt lat="62.63257344581" lon="17.974295390182">
        <ele>78.2</ele>
        <time>2018-01-08T18:22:39Z</time>
      </trkpt>
      <trkpt lat="62.632545450264" lon="17.974265802075">
        <ele>78.2</ele>
        <time>2018-01-08T18:22:40Z</time>
      </trkpt>
      <trkpt lat="62.632516029795" lon="17.974232023018">
        <ele>78.2</ele>
        <time>2018-01-08T18:22:41Z</time>
      </trkpt>
      <trkpt lat="62.632488872439" lon="17.974201177626">
        <ele>78.2</ele>
        <time>2018-01-08T18:22:42Z</time>
      </trkpt>
      <trkpt lat="62.632460122522" lon="17.974175193736">
        <ele>78.2</ele>
        <time>2018-01-08T18:22:43Z</time>
      </trkpt>
      <trkpt lat="62.632432462252" lon="17.97415222733">
        <ele>77.8</ele>
        <time>2018-01-08T18:22:44Z</time>
      </trkpt>
      <trkpt lat="62.632404550525" lon="17.974118783549">
        <ele>78</ele>
        <time>2018-01-08T18:22:45Z</time>
      </trkpt>
      <trkpt lat="62.632378650454" lon="17.9740960686">
        <ele>78</ele>
        <time>2018-01-08T18:22:46Z</time>
      </trkpt>
      <trkpt lat="62.632349313804" lon="17.97406924652">
        <ele>78</ele>
        <time>2018-01-08T18:22:47Z</time>
      </trkpt>
      <trkpt lat="62.632320647706" lon="17.974047369761">
        <ele>78</ele>
        <time>2018-01-08T18:22:48Z</time>
      </trkpt>
      <trkpt lat="62.632293574169" lon="17.974018452206">
        <ele>78</ele>
        <time>2018-01-08T18:22:49Z</time>
      </trkpt>
      <trkpt lat="62.632263147872" lon="17.973982996769">
        <ele>78</ele>
        <time>2018-01-08T18:22:50Z</time>
      </trkpt>
      <trkpt lat="62.632233308308" lon="17.973955671775">
        <ele>77.8</ele>
        <time>2018-01-08T18:22:51Z</time>
      </trkpt>
      <trkpt lat="62.632208749341" lon="17.973930861351">
        <ele>77.8</ele>
        <time>2018-01-08T18:22:52Z</time>
      </trkpt>
      <trkpt lat="62.632178239225" lon="17.973894232448">
        <ele>77.8</ele>
        <time>2018-01-08T18:22:53Z</time>
      </trkpt>
      <trkpt lat="62.632154015534" lon="17.973869505843">
        <ele>77.8</ele>
        <time>2018-01-08T18:22:54Z</time>
      </trkpt>
      <trkpt lat="62.632124678884" lon="17.973844443962">
        <ele>77.8</ele>
        <time>2018-01-08T18:22:55Z</time>
      </trkpt>
      <trkpt lat="62.63209567751" lon="17.973819801176">
        <ele>77.8</ele>
        <time>2018-01-08T18:22:56Z</time>
      </trkpt>
      <trkpt lat="62.632069525982" lon="17.973794823114">
        <ele>77.8</ele>
        <time>2018-01-08T18:22:57Z</time>
      </trkpt>
      <trkpt lat="62.632042703902" lon="17.973759367677">
        <ele>77.8</ele>
        <time>2018-01-08T18:22:58Z</time>
      </trkpt>
      <trkpt lat="62.632016217098" lon="17.97372558862">
        <ele>77.8</ele>
        <time>2018-01-08T18:22:59Z</time>
      </trkpt>
      <trkpt lat="62.631993502149" lon="17.973690552278">
        <ele>77.8</ele>
        <time>2018-01-08T18:23:00Z</time>
      </trkpt>
      <trkpt lat="62.631969446096" lon="17.973653085185">
        <ele>77.8</ele>
        <time>2018-01-08T18:23:01Z</time>
      </trkpt>
      <trkpt lat="62.631945390043" lon="17.97362249125">
        <ele>77.8</ele>
        <time>2018-01-08T18:23:02Z</time>
      </trkpt>
      <trkpt lat="62.631916975402" lon="17.973585778528">
        <ele>77.8</ele>
        <time>2018-01-08T18:23:03Z</time>
      </trkpt>
      <trkpt lat="62.631892667892" lon="17.973553089118">
        <ele>77.8</ele>
        <time>2018-01-08T18:23:04Z</time>
      </trkpt>
      <trkpt lat="62.631865342898" lon="17.973520567346">
        <ele>77.6</ele>
        <time>2018-01-08T18:23:05Z</time>
      </trkpt>
      <trkpt lat="62.631837682628" lon="17.973487039746">
        <ele>77.4</ele>
        <time>2018-01-08T18:23:06Z</time>
      </trkpt>
      <trkpt lat="62.631811866376" lon="17.973461055856">
        <ele>77.4</ele>
        <time>2018-01-08T18:23:07Z</time>
      </trkpt>
      <trkpt lat="62.631782781183" lon="17.973430629559">
        <ele>77.4</ele>
        <time>2018-01-08T18:23:08Z</time>
      </trkpt>
      <trkpt lat="62.631756545836" lon="17.973398107787">
        <ele>77.4</ele>
        <time>2018-01-08T18:23:09Z</time>
      </trkpt>
      <trkpt lat="62.631731316317" lon="17.97336432873">
        <ele>77.4</ele>
        <time>2018-01-08T18:23:10Z</time>
      </trkpt>
      <trkpt lat="62.631702650219" lon="17.97332744837">
        <ele>77.6</ele>
        <time>2018-01-08T18:23:11Z</time>
      </trkpt>
      <trkpt lat="62.631677169243" lon="17.973292831123">
        <ele>77.6</ele>
        <time>2018-01-08T18:23:12Z</time>
      </trkpt>
      <trkpt lat="62.631651101534" lon="17.973252598003">
        <ele>77.8</ele>
        <time>2018-01-08T18:23:13Z</time>
      </trkpt>
      <trkpt lat="62.631625872015" lon="17.973209766494">
        <ele>77.8</ele>
        <time>2018-01-08T18:23:14Z</time>
      </trkpt>
      <trkpt lat="62.631601648324" lon="17.973163833682">
        <ele>77.8</ele>
        <time>2018-01-08T18:23:15Z</time>
      </trkpt>
      <trkpt lat="62.631580861212" lon="17.973122510915">
        <ele>77.8</ele>
        <time>2018-01-08T18:23:16Z</time>
      </trkpt>
      <trkpt lat="62.631559738824" lon="17.973078589759">
        <ele>77.8</ele>
        <time>2018-01-08T18:23:17Z</time>
      </trkpt>
      <trkpt lat="62.631544064671" lon="17.973041793218">
        <ele>77.6</ele>
        <time>2018-01-08T18:23:18Z</time>
      </trkpt>
      <trkpt lat="62.631515398573" lon="17.972972977819">
        <ele>77.6</ele>
        <time>2018-01-08T18:23:19Z</time>
      </trkpt>
      <trkpt lat="62.63149385709" lon="17.972923859885">
        <ele>77.4</ele>
        <time>2018-01-08T18:23:20Z</time>
      </trkpt>
      <trkpt lat="62.631470974503" lon="17.972873652304">
        <ele>77.4</ele>
        <time>2018-01-08T18:23:21Z</time>
      </trkpt>
      <trkpt lat="62.631454965074" lon="17.97282704894">
        <ele>77.2</ele>
        <time>2018-01-08T18:23:22Z</time>
      </trkpt>
      <trkpt lat="62.631435435247" lon="17.972761334844">
        <ele>77</ele>
        <time>2018-01-08T18:23:23Z</time>
      </trkpt>
      <trkpt lat="62.631415570144" lon="17.972710372892">
        <ele>77</ele>
        <time>2018-01-08T18:23:24Z</time>
      </trkpt>
      <trkpt lat="62.631395872679" lon="17.972655890542">
        <ele>76.6</ele>
        <time>2018-01-08T18:23:25Z</time>
      </trkpt>
      <trkpt lat="62.631374582653" lon="17.972599815631">
        <ele>76.4</ele>
        <time>2018-01-08T18:23:26Z</time>
      </trkpt>
      <trkpt lat="62.631354801369" lon="17.972549356593">
        <ele>76</ele>
        <time>2018-01-08T18:23:27Z</time>
      </trkpt>
      <trkpt lat="62.631335187723" lon="17.972498729917">
        <ele>75.8</ele>
        <time>2018-01-08T18:23:28Z</time>
      </trkpt>
      <trkpt lat="62.631315825534" lon="17.972440308074">
        <ele>75.4</ele>
        <time>2018-01-08T18:23:29Z</time>
      </trkpt>
      <trkpt lat="62.63129855882" lon="17.972383814068">
        <ele>75.2</ele>
        <time>2018-01-08T18:23:30Z</time>
      </trkpt>
      <trkpt lat="62.631278777536" lon="17.972329247899">
        <ele>75.2</ele>
        <time>2018-01-08T18:23:31Z</time>
      </trkpt>
      <trkpt lat="62.631260672632" lon="17.97227300535">
        <ele>75</ele>
        <time>2018-01-08T18:23:32Z</time>
      </trkpt>
      <trkpt lat="62.631240891348" lon="17.972210224919">
        <ele>75</ele>
        <time>2018-01-08T18:23:33Z</time>
      </trkpt>
      <trkpt lat="62.631221780616" lon="17.972158340958">
        <ele>74.8</ele>
        <time>2018-01-08T18:23:34Z</time>
      </trkpt>
      <trkpt lat="62.631204932997" lon="17.97209363269">
        <ele>74.8</ele>
        <time>2018-01-08T18:23:35Z</time>
      </trkpt>
      <trkpt lat="62.631189845577" lon="17.972036468132">
        <ele>74.6</ele>
        <time>2018-01-08T18:23:36Z</time>
      </trkpt>
      <trkpt lat="62.631176602175" lon="17.971986092913">
        <ele>74.6</ele>
        <time>2018-01-08T18:23:37Z</time>
      </trkpt>
      <trkpt lat="62.63116025747" lon="17.97191928917">
        <ele>74.4</ele>
        <time>2018-01-08T18:23:38Z</time>
      </trkpt>
      <trkpt lat="62.631145840602" lon="17.971862878983">
        <ele>74.4</ele>
        <time>2018-01-08T18:23:39Z</time>
      </trkpt>
      <trkpt lat="62.631129579716" lon="17.971804205683">
        <ele>74.4</ele>
        <time>2018-01-08T18:23:40Z</time>
      </trkpt>
      <trkpt lat="62.63111415702" lon="17.971735977017">
        <ele>74.2</ele>
        <time>2018-01-08T18:23:41Z</time>
      </trkpt>
      <trkpt lat="62.631102254722" lon="17.971674453871">
        <ele>74</ele>
        <time>2018-01-08T18:23:42Z</time>
      </trkpt>
      <trkpt lat="62.631087921673" lon="17.971608739775">
        <ele>74</ele>
        <time>2018-01-08T18:23:43Z</time>
      </trkpt>
      <trkpt lat="62.631075097366" lon="17.971544366783">
        <ele>73.8</ele>
        <time>2018-01-08T18:23:44Z</time>
      </trkpt>
      <trkpt lat="62.631062356878" lon="17.971479155601">
        <ele>73.8</ele>
        <time>2018-01-08T18:23:45Z</time>
      </trkpt>
      <trkpt lat="62.631048945838" lon="17.971422158681">
        <ele>73.6</ele>
        <time>2018-01-08T18:23:46Z</time>
      </trkpt>
      <trkpt lat="62.631037211178" lon="17.97135602549">
        <ele>73.4</ele>
        <time>2018-01-08T18:23:47Z</time>
      </trkpt>
      <trkpt lat="62.631027069079" lon="17.97129148486">
        <ele>73.4</ele>
        <time>2018-01-08T18:23:48Z</time>
      </trkpt>
      <trkpt lat="62.631017848989" lon="17.971226860411">
        <ele>73.2</ele>
        <time>2018-01-08T18:23:49Z</time>
      </trkpt>
      <trkpt lat="62.631008293623" lon="17.971161733048">
        <ele>73.2</ele>
        <time>2018-01-08T18:23:50Z</time>
      </trkpt>
      <trkpt lat="62.630998235343" lon="17.971098198246">
        <ele>73</ele>
        <time>2018-01-08T18:23:51Z</time>
      </trkpt>
      <trkpt lat="62.630990691633" lon="17.971037178014">
        <ele>72.8</ele>
        <time>2018-01-08T18:23:52Z</time>
      </trkpt>
      <trkpt lat="62.630980130439" lon="17.970964423122">
        <ele>72.8</ele>
        <time>2018-01-08T18:23:53Z</time>
      </trkpt>
      <trkpt lat="62.630972754367" lon="17.970901894148">
        <ele>72.8</ele>
        <time>2018-01-08T18:23:54Z</time>
      </trkpt>
      <trkpt lat="62.630965294476" lon="17.970829139256">
        <ele>72.6</ele>
        <time>2018-01-08T18:23:55Z</time>
      </trkpt>
      <trkpt lat="62.630958924232" lon="17.970763676617">
        <ele>72.4</ele>
        <time>2018-01-08T18:23:56Z</time>
      </trkpt>
      <trkpt lat="62.630951212884" lon="17.970704668041">
        <ele>72.2</ele>
        <time>2018-01-08T18:23:57Z</time>
      </trkpt>
      <trkpt lat="62.63094400445" lon="17.970634511538">
        <ele>72.2</ele>
        <time>2018-01-08T18:23:58Z</time>
      </trkpt>
      <trkpt lat="62.630936209283" lon="17.970566701967">
        <ele>71.8</ele>
        <time>2018-01-08T18:23:59Z</time>
      </trkpt>
      <trkpt lat="62.630929336125" lon="17.970499898224">
        <ele>71.8</ele>
        <time>2018-01-08T18:24:00Z</time>
      </trkpt>
      <trkpt lat="62.630923468795" lon="17.970433765033">
        <ele>71.8</ele>
        <time>2018-01-08T18:24:01Z</time>
      </trkpt>
      <trkpt lat="62.630916176542" lon="17.97036779948">
        <ele>71.6</ele>
        <time>2018-01-08T18:24:02Z</time>
      </trkpt>
      <trkpt lat="62.630911817954" lon="17.970300995737">
        <ele>71.4</ele>
        <time>2018-01-08T18:24:03Z</time>
      </trkpt>
      <trkpt lat="62.630909890117" lon="17.970212399054">
        <ele>71.2</ele>
        <time>2018-01-08T18:24:05Z</time>
      </trkpt>
      <trkpt lat="62.630909219565" lon="17.970183565318">
        <ele>71</ele>
        <time>2018-01-08T18:24:06Z</time>
      </trkpt>
      <trkpt lat="62.630907459366" lon="17.970159844541">
        <ele>71</ele>
        <time>2018-01-08T18:24:07Z</time>
      </trkpt>
      <trkpt lat="62.630904860977" lon="17.970139308886">
        <ele>70.6</ele>
        <time>2018-01-08T18:24:08Z</time>
      </trkpt>
      <trkpt lat="62.630903016959" lon="17.970123634733">
        <ele>70.8</ele>
        <time>2018-01-08T18:24:09Z</time>
      </trkpt>
      <trkpt lat="62.630903855149" lon="17.970108128218">
        <ele>70.8</ele>
        <time>2018-01-08T18:24:10Z</time>
      </trkpt>
      <trkpt lat="62.630903687511" lon="17.970093208436">
        <ele>70.8</ele>
        <time>2018-01-08T18:24:11Z</time>
      </trkpt>
      <trkpt lat="62.630899748018" lon="17.970097399386">
        <ele>70.8</ele>
        <time>2018-01-08T18:24:12Z</time>
      </trkpt>
      <trkpt lat="62.631163777868" lon="17.970002516278">
        <ele>71.4</ele>
        <time>2018-01-08T18:25:54Z</time>
      </trkpt>
      <trkpt lat="62.631194790898" lon="17.96998977579">
        <ele>71.4</ele>
        <time>2018-01-08T18:25:55Z</time>
      </trkpt>
      <trkpt lat="62.63123150362" lon="17.969970916515">
        <ele>71.4</ele>
        <time>2018-01-08T18:25:56Z</time>
      </trkpt>
      <trkpt lat="62.631260337356" lon="17.969953146887">
        <ele>71.2</ele>
        <time>2018-01-08T18:25:57Z</time>
      </trkpt>
      <trkpt lat="62.631291434205" lon="17.969935880173">
        <ele>71.2</ele>
        <time>2018-01-08T18:25:58Z</time>
      </trkpt>
      <trkpt lat="62.631327727832" lon="17.969915679794">
        <ele>71</ele>
        <time>2018-01-08T18:25:59Z</time>
      </trkpt>
      <trkpt lat="62.631357399758" lon="17.969897155795">
        <ele>70.8</ele>
        <time>2018-01-08T18:26:00Z</time>
      </trkpt>
      <trkpt lat="62.631388664245" lon="17.969877123054">
        <ele>70.6</ele>
        <time>2018-01-08T18:26:01Z</time>
      </trkpt>
      <trkpt lat="62.631415151049" lon="17.969858934331">
        <ele>70.8</ele>
        <time>2018-01-08T18:26:02Z</time>
      </trkpt>
      <trkpt lat="62.6314511094" lon="17.969844433644">
        <ele>70.8</ele>
        <time>2018-01-08T18:26:03Z</time>
      </trkpt>
      <trkpt lat="62.631479859317" lon="17.96982884331">
        <ele>70.8</ele>
        <time>2018-01-08T18:26:04Z</time>
      </trkpt>
      <trkpt lat="62.631512884003" lon="17.969811576596">
        <ele>70.8</ele>
        <time>2018-01-08T18:26:05Z</time>
      </trkpt>
      <trkpt lat="62.631542639748" lon="17.969791208579">
        <ele>70.8</ele>
        <time>2018-01-08T18:26:06Z</time>
      </trkpt>
      <trkpt lat="62.631570802932" lon="17.969767906897">
        <ele>70.6</ele>
        <time>2018-01-08T18:26:07Z</time>
      </trkpt>
      <trkpt lat="62.631605001084" lon="17.969738654066">
        <ele>70.4</ele>
        <time>2018-01-08T18:26:08Z</time>
      </trkpt>
      <trkpt lat="62.631635259743" lon="17.9697123349">
        <ele>70.4</ele>
        <time>2018-01-08T18:26:09Z</time>
      </trkpt>
      <trkpt lat="62.631665853678" lon="17.969685345182">
        <ele>70.2</ele>
        <time>2018-01-08T18:26:10Z</time>
      </trkpt>
      <trkpt lat="62.631697034346" lon="17.96964779427">
        <ele>70.4</ele>
        <time>2018-01-08T18:26:11Z</time>
      </trkpt>
      <trkpt lat="62.631723856426" lon="17.969612925566">
        <ele>70.2</ele>
        <time>2018-01-08T18:26:12Z</time>
      </trkpt>
      <trkpt lat="62.631755875284" lon="17.969573698274">
        <ele>70</ele>
        <time>2018-01-08T18:26:13Z</time>
      </trkpt>
      <trkpt lat="62.63178387083" lon="17.969543188158">
        <ele>70</ele>
        <time>2018-01-08T18:26:14Z</time>
      </trkpt>
      <trkpt lat="62.631817314611" lon="17.969532878421">
        <ele>69.8</ele>
        <time>2018-01-08T18:26:15Z</time>
      </trkpt>
      <trkpt lat="62.631845310157" lon="17.96952374215">
        <ele>69.6</ele>
        <time>2018-01-08T18:26:16Z</time>
      </trkpt>
      <trkpt lat="62.631875820273" lon="17.969523323055">
        <ele>69.4</ele>
        <time>2018-01-08T18:26:17Z</time>
      </trkpt>
      <trkpt lat="62.631910269882" lon="17.969524496521">
        <ele>69.2</ele>
        <time>2018-01-08T18:26:18Z</time>
      </trkpt>
      <trkpt lat="62.631939187437" lon="17.969523323055">
        <ele>69.2</ele>
        <time>2018-01-08T18:26:19Z</time>
      </trkpt>
      <trkpt lat="62.631969613734" lon="17.969524161245">
        <ele>69.4</ele>
        <time>2018-01-08T18:26:20Z</time>
      </trkpt>
      <trkpt lat="62.631997525461" lon="17.969523071598">
        <ele>69.4</ele>
        <time>2018-01-08T18:26:21Z</time>
      </trkpt>
      <trkpt lat="62.632022000609" lon="17.969516282259">
        <ele>69.6</ele>
        <time>2018-01-08T18:26:22Z</time>
      </trkpt>
      <trkpt lat="62.632054522381" lon="17.969510582567">
        <ele>69.8</ele>
        <time>2018-01-08T18:26:23Z</time>
      </trkpt>
      <trkpt lat="62.632077656425" lon="17.96950530197">
        <ele>69.6</ele>
        <time>2018-01-08T18:26:24Z</time>
      </trkpt>
      <trkpt lat="62.632106909256" lon="17.969497925898">
        <ele>69.6</ele>
        <time>2018-01-08T18:26:25Z</time>
      </trkpt>
      <trkpt lat="62.632141107408" lon="17.969489208722">
        <ele>69.4</ele>
        <time>2018-01-08T18:26:26Z</time>
      </trkpt>
      <trkpt lat="62.632168851497" lon="17.96948183265">
        <ele>69.4</ele>
        <time>2018-01-08T18:26:27Z</time>
      </trkpt>
      <trkpt lat="62.632201876183" lon="17.969471942008">
        <ele>69.4</ele>
        <time>2018-01-08T18:26:28Z</time>
      </trkpt>
      <trkpt lat="62.632234230317" lon="17.969455178208">
        <ele>69.8</ele>
        <time>2018-01-08T18:26:29Z</time>
      </trkpt>
      <trkpt lat="62.632268093193" lon="17.969444700833">
        <ele>70</ele>
        <time>2018-01-08T18:26:30Z</time>
      </trkpt>
      <trkpt lat="62.632308158675" lon="17.969440006969">
        <ele>70.2</ele>
        <time>2018-01-08T18:26:31Z</time>
      </trkpt>
      <trkpt lat="62.632328945787" lon="17.969440006969">
        <ele>70.2</ele>
        <time>2018-01-08T18:26:32Z</time>
      </trkpt>
      <trkpt lat="62.632367753984" lon="17.969441012797">
        <ele>70.2</ele>
        <time>2018-01-08T18:26:33Z</time>
      </trkpt>
      <trkpt lat="62.632395162797" lon="17.969440509883">
        <ele>70.2</ele>
        <time>2018-01-08T18:26:34Z</time>
      </trkpt>
      <trkpt lat="62.632425421456" lon="17.969442018625">
        <ele>70.2</ele>
        <time>2018-01-08T18:26:35Z</time>
      </trkpt>
      <trkpt lat="62.632456015391" lon="17.969447550679">
        <ele>70.2</ele>
        <time>2018-01-08T18:26:36Z</time>
      </trkpt>
      <trkpt lat="62.632483424204" lon="17.96944830505">
        <ele>70.2</ele>
        <time>2018-01-08T18:26:37Z</time>
      </trkpt>
      <trkpt lat="62.632519550193" lon="17.969452579819">
        <ele>70.2</ele>
        <time>2018-01-08T18:26:38Z</time>
      </trkpt>
      <trkpt lat="62.632549222119" lon="17.969454926751">
        <ele>70.2</ele>
        <time>2018-01-08T18:26:39Z</time>
      </trkpt>
      <trkpt lat="62.632577804398" lon="17.969456351674">
        <ele>70.2</ele>
        <time>2018-01-08T18:26:40Z</time>
      </trkpt>
      <trkpt lat="62.63261284074" lon="17.969465404126">
        <ele>70.4</ele>
        <time>2018-01-08T18:26:41Z</time>
      </trkpt>
      <trkpt lat="62.632639243725" lon="17.969467918696">
        <ele>70.4</ele>
        <time>2018-01-08T18:26:42Z</time>
      </trkpt>
      <trkpt lat="62.632672268411" lon="17.969476635872">
        <ele>70.6</ele>
        <time>2018-01-08T18:26:43Z</time>
      </trkpt>
      <trkpt lat="62.632702778527" lon="17.969479737175">
        <ele>70.6</ele>
        <time>2018-01-08T18:26:44Z</time>
      </trkpt>
      <trkpt lat="62.632732198996" lon="17.969478060795">
        <ele>70.8</ele>
        <time>2018-01-08T18:26:45Z</time>
      </trkpt>
      <trkpt lat="62.632762625293" lon="17.969480826822">
        <ele>70.6</ele>
        <time>2018-01-08T18:26:46Z</time>
      </trkpt>
      <trkpt lat="62.632787603355" lon="17.96949272912">
        <ele>70.8</ele>
        <time>2018-01-08T18:26:47Z</time>
      </trkpt>
      <trkpt lat="62.632818029652" lon="17.969500943382">
        <ele>70.8</ele>
        <time>2018-01-08T18:26:48Z</time>
      </trkpt>
      <trkpt lat="62.632846109017" lon="17.969507984178">
        <ele>70.8</ele>
        <time>2018-01-08T18:26:49Z</time>
      </trkpt>
      <trkpt lat="62.632872176726" lon="17.969511253119">
        <ele>70.8</ele>
        <time>2018-01-08T18:26:50Z</time>
      </trkpt>
      <trkpt lat="62.632901764833" lon="17.9695195512">
        <ele>71</ele>
        <time>2018-01-08T18:26:51Z</time>
      </trkpt>
      <trkpt lat="62.632926407619" lon="17.969523993607">
        <ele>71</ele>
        <time>2018-01-08T18:26:52Z</time>
      </trkpt>
      <trkpt lat="62.632964209988" lon="17.969530615308">
        <ele>71</ele>
        <time>2018-01-08T18:26:53Z</time>
      </trkpt>
      <trkpt lat="62.632992708448" lon="17.969535560629">
        <ele>71.2</ele>
        <time>2018-01-08T18:26:54Z</time>
      </trkpt>
      <trkpt lat="62.633023972935" lon="17.969535979724">
        <ele>71.2</ele>
        <time>2018-01-08T18:26:55Z</time>
      </trkpt>
      <trkpt lat="62.633050627377" lon="17.969540254493">
        <ele>71.4</ele>
        <time>2018-01-08T18:26:56Z</time>
      </trkpt>
      <trkpt lat="62.63308055076" lon="17.969544361624">
        <ele>71.4</ele>
        <time>2018-01-08T18:26:57Z</time>
      </trkpt>
      <trkpt lat="62.633110893238" lon="17.969552743524">
        <ele>71.6</ele>
        <time>2018-01-08T18:26:58Z</time>
      </trkpt>
      <trkpt lat="62.633141403354" lon="17.969561376881">
        <ele>71.6</ele>
        <time>2018-01-08T18:26:59Z</time>
      </trkpt>
      <trkpt lat="62.633170572366" lon="17.969568836772">
        <ele>71.6</ele>
        <time>2018-01-08T18:27:00Z</time>
      </trkpt>
      <trkpt lat="62.633202339767" lon="17.969580822889">
        <ele>71.6</ele>
        <time>2018-01-08T18:27:01Z</time>
      </trkpt>
      <trkpt lat="62.633230000037" lon="17.96958912097">
        <ele>71.6</ele>
        <time>2018-01-08T18:27:02Z</time>
      </trkpt>
      <trkpt lat="62.63325992342" lon="17.96960001744">
        <ele>71.6</ele>
        <time>2018-01-08T18:27:03Z</time>
      </trkpt>
      <trkpt lat="62.633287416052" lon="17.969619882543">
        <ele>71.6</ele>
        <time>2018-01-08T18:27:04Z</time>
      </trkpt>
      <trkpt lat="62.633316165969" lon="17.969638909456">
        <ele>71.6</ele>
        <time>2018-01-08T18:27:05Z</time>
      </trkpt>
      <trkpt lat="62.633344412972" lon="17.969668413744">
        <ele>71.6</ele>
        <time>2018-01-08T18:27:06Z</time>
      </trkpt>
      <trkpt lat="62.633362098781" lon="17.969708395407">
        <ele>71.4</ele>
        <time>2018-01-08T18:27:07Z</time>
      </trkpt>
      <trkpt lat="62.633378862581" lon="17.969760782282">
        <ele>71.4</ele>
        <time>2018-01-08T18:27:08Z</time>
      </trkpt>
      <trkpt lat="62.633387663576" lon="17.969816186641">
        <ele>71.4</ele>
        <time>2018-01-08T18:27:09Z</time>
      </trkpt>
      <trkpt lat="62.633395458743" lon="17.969870668991">
        <ele>71.4</ele>
        <time>2018-01-08T18:27:10Z</time>
      </trkpt>
      <trkpt lat="62.633400152607" lon="17.969931186309">
        <ele>71.6</ele>
        <time>2018-01-08T18:27:11Z</time>
      </trkpt>
      <trkpt lat="62.633402499539" lon="17.96999061398">
        <ele>72</ele>
        <time>2018-01-08T18:27:12Z</time>
      </trkpt>
      <trkpt lat="62.633405517023" lon="17.97005264004">
        <ele>72.2</ele>
        <time>2018-01-08T18:27:13Z</time>
      </trkpt>
      <trkpt lat="62.63340744486" lon="17.97010963696">
        <ele>72.4</ele>
        <time>2018-01-08T18:27:14Z</time>
      </trkpt>
      <trkpt lat="62.633409624154" lon="17.970167388251">
        <ele>72.8</ele>
        <time>2018-01-08T18:27:15Z</time>
      </trkpt>
      <trkpt lat="62.633413898923" lon="17.970225893913">
        <ele>73</ele>
        <time>2018-01-08T18:27:16Z</time>
      </trkpt>
      <trkpt lat="62.63341750314" lon="17.970289763991">
        <ele>73</ele>
        <time>2018-01-08T18:27:17Z</time>
      </trkpt>
      <trkpt lat="62.633421945547" lon="17.970354891354">
        <ele>73</ele>
        <time>2018-01-08T18:27:18Z</time>
      </trkpt>
      <trkpt lat="62.633425214488" lon="17.970417168871">
        <ele>73</ele>
        <time>2018-01-08T18:27:19Z</time>
      </trkpt>
      <trkpt lat="62.633429070162" lon="17.970478272922">
        <ele>73.2</ele>
        <time>2018-01-08T18:27:20Z</time>
      </trkpt>
      <trkpt lat="62.633433261112" lon="17.970535940394">
        <ele>73.2</ele>
        <time>2018-01-08T18:27:21Z</time>
      </trkpt>
      <trkpt lat="62.633436865329" lon="17.970593859323">
        <ele>73.2</ele>
        <time>2018-01-08T18:27:22Z</time>
      </trkpt>
      <trkpt lat="62.633439044623" lon="17.970654376641">
        <ele>73.4</ele>
        <time>2018-01-08T18:27:23Z</time>
      </trkpt>
      <trkpt lat="62.63344097246" lon="17.970715732149">
        <ele>73.4</ele>
        <time>2018-01-08T18:27:24Z</time>
      </trkpt>
      <trkpt lat="62.633442397383" lon="17.970779769865">
        <ele>73.6</ele>
        <time>2018-01-08T18:27:25Z</time>
      </trkpt>
      <trkpt lat="62.633444911953" lon="17.97083886226">
        <ele>73.8</ele>
        <time>2018-01-08T18:27:26Z</time>
      </trkpt>
      <trkpt lat="62.633447007428" lon="17.970896110637">
        <ele>73.8</ele>
        <time>2018-01-08T18:27:27Z</time>
      </trkpt>
      <trkpt lat="62.63344683979" lon="17.970956041222">
        <ele>74</ele>
        <time>2018-01-08T18:27:28Z</time>
      </trkpt>
      <trkpt lat="62.63345103074" lon="17.971022677327">
        <ele>74.2</ele>
        <time>2018-01-08T18:27:29Z</time>
      </trkpt>
      <trkpt lat="62.633452288025" lon="17.971088139966">
        <ele>74.6</ele>
        <time>2018-01-08T18:27:30Z</time>
      </trkpt>
      <trkpt lat="62.633452958577" lon="17.971146813266">
        <ele>74.6</ele>
        <time>2018-01-08T18:27:31Z</time>
      </trkpt>
      <trkpt lat="62.633451533654" lon="17.971209258421">
        <ele>74.8</ele>
        <time>2018-01-08T18:27:32Z</time>
      </trkpt>
      <trkpt lat="62.633449521998" lon="17.971270111015">
        <ele>75</ele>
        <time>2018-01-08T18:27:33Z</time>
      </trkpt>
      <trkpt lat="62.633448851446" lon="17.971325431555">
        <ele>75</ele>
        <time>2018-01-08T18:27:34Z</time>
      </trkpt>
      <trkpt lat="62.633442732659" lon="17.971394163135">
        <ele>75</ele>
        <time>2018-01-08T18:27:35Z</time>
      </trkpt>
      <trkpt lat="62.633441978288" lon="17.971454596634">
        <ele>75.2</ele>
        <time>2018-01-08T18:27:36Z</time>
      </trkpt>
      <trkpt lat="62.633439966632" lon="17.971513437572">
        <ele>75.4</ele>
        <time>2018-01-08T18:27:37Z</time>
      </trkpt>
      <trkpt lat="62.633434937492" lon="17.971580073677">
        <ele>75.4</ele>
        <time>2018-01-08T18:27:38Z</time>
      </trkpt>
      <trkpt lat="62.633430495085" lon="17.971636148588">
        <ele>75.6</ele>
        <time>2018-01-08T18:27:39Z</time>
      </trkpt>
      <trkpt lat="62.633425130669" lon="17.971701108313">
        <ele>75.6</ele>
        <time>2018-01-08T18:27:40Z</time>
      </trkpt>
      <trkpt lat="62.633420352986" lon="17.97176338583">
        <ele>75.6</ele>
        <time>2018-01-08T18:27:41Z</time>
      </trkpt>
      <trkpt lat="62.633414653294" lon="17.971822310587">
        <ele>75.8</ele>
        <time>2018-01-08T18:27:42Z</time>
      </trkpt>
      <trkpt lat="62.633404511195" lon="17.971892970004">
        <ele>76</ele>
        <time>2018-01-08T18:27:43Z</time>
      </trkpt>
      <trkpt lat="62.633399482055" lon="17.97194862582">
        <ele>76</ele>
        <time>2018-01-08T18:27:44Z</time>
      </trkpt>
      <trkpt lat="62.633391603069" lon="17.97201651921">
        <ele>76</ele>
        <time>2018-01-08T18:27:45Z</time>
      </trkpt>
      <trkpt lat="62.633385484282" lon="17.972075527786">
        <ele>76.2</ele>
        <time>2018-01-08T18:27:46Z</time>
      </trkpt>
      <trkpt lat="62.633378694943" lon="17.972134620181">
        <ele>76.2</ele>
        <time>2018-01-08T18:27:47Z</time>
      </trkpt>
      <trkpt lat="62.633367966111" lon="17.97219756825">
        <ele>76.4</ele>
        <time>2018-01-08T18:27:48Z</time>
      </trkpt>
      <trkpt lat="62.633361931143" lon="17.972255738636">
        <ele>76.6</ele>
        <time>2018-01-08T18:27:49Z</time>
      </trkpt>
      <trkpt lat="62.63335212432" lon="17.972320530723">
        <ele>76.6</ele>
        <time>2018-01-08T18:27:50Z</time>
      </trkpt>
      <trkpt lat="62.633344161515" lon="17.972382221507">
        <ele>76.8</ele>
        <time>2018-01-08T18:27:51Z</time>
      </trkpt>
      <trkpt lat="62.633337707452" lon="17.972435195115">
        <ele>77</ele>
        <time>2018-01-08T18:27:52Z</time>
      </trkpt>
      <trkpt lat="62.633325050783" lon="17.972507195636">
        <ele>77</ele>
        <time>2018-01-08T18:27:53Z</time>
      </trkpt>
      <trkpt lat="62.633316836521" lon="17.972560253063">
        <ele>77.2</ele>
        <time>2018-01-08T18:27:54Z</time>
      </trkpt>
      <trkpt lat="62.633306359146" lon="17.972611969386">
        <ele>77.2</ele>
        <time>2018-01-08T18:27:55Z</time>
      </trkpt>
      <trkpt lat="62.633293115744" lon="17.972669553039">
        <ele>77.4</ele>
        <time>2018-01-08T18:27:56Z</time>
      </trkpt>
      <trkpt lat="62.633283644197" lon="17.972718000421">
        <ele>77.6</ele>
        <time>2018-01-08T18:27:57Z</time>
      </trkpt>
      <trkpt lat="62.633271071347" lon="17.972772231314">
        <ele>77.6</ele>
        <time>2018-01-08T18:27:58Z</time>
      </trkpt>
      <trkpt lat="62.633261096886" lon="17.972820762515">
        <ele>77.6</ele>
        <time>2018-01-08T18:27:59Z</time>
      </trkpt>
      <trkpt lat="62.633249697502" lon="17.972885470783">
        <ele>77.6</ele>
        <time>2018-01-08T18:28:00Z</time>
      </trkpt>
      <trkpt lat="62.633236118824" lon="17.972947496843">
        <ele>77.8</ele>
        <time>2018-01-08T18:28:01Z</time>
      </trkpt>
      <trkpt lat="62.633226228182" lon="17.972995608949">
        <ele>77.8</ele>
        <time>2018-01-08T18:28:02Z</time>
      </trkpt>
      <trkpt lat="62.633215834626" lon="17.973060652493">
        <ele>77.8</ele>
        <time>2018-01-08T18:28:03Z</time>
      </trkpt>
      <trkpt lat="62.633205776346" lon="17.973111865902">
        <ele>77.8</ele>
        <time>2018-01-08T18:28:04Z</time>
      </trkpt>
      <trkpt lat="62.633195801885" lon="17.973173808143">
        <ele>78</ele>
        <time>2018-01-08T18:28:05Z</time>
      </trkpt>
      <trkpt lat="62.633185492148" lon="17.973237929678">
        <ele>78</ele>
        <time>2018-01-08T18:28:06Z</time>
      </trkpt>
      <trkpt lat="62.633173925126" lon="17.973299201367">
        <ele>78.2</ele>
        <time>2018-01-08T18:28:07Z</time>
      </trkpt>
      <trkpt lat="62.633160933181" lon="17.973363322902">
        <ele>78.2</ele>
        <time>2018-01-08T18:28:08Z</time>
      </trkpt>
      <trkpt lat="62.633149449978" lon="17.973416212691">
        <ele>78.4</ele>
        <time>2018-01-08T18:28:09Z</time>
      </trkpt>
      <trkpt lat="62.633137463861" lon="17.973470862679">
        <ele>78.6</ele>
        <time>2018-01-08T18:28:10Z</time>
      </trkpt>
      <trkpt lat="62.633123130812" lon="17.973529535979">
        <ele>78.6</ele>
        <time>2018-01-08T18:28:11Z</time>
      </trkpt>
      <trkpt lat="62.633111731428" lon="17.973577564266">
        <ele>78.8</ele>
        <time>2018-01-08T18:28:12Z</time>
      </trkpt>
      <trkpt lat="62.63310066732" lon="17.973632130435">
        <ele>78.8</ele>
        <time>2018-01-08T18:28:13Z</time>
      </trkpt>
      <trkpt lat="62.633085998995" lon="17.973687367156">
        <ele>78.8</ele>
        <time>2018-01-08T18:28:14Z</time>
      </trkpt>
      <trkpt lat="62.633074348154" lon="17.973748471207">
        <ele>79</ele>
        <time>2018-01-08T18:28:15Z</time>
      </trkpt>
      <trkpt lat="62.633062697313" lon="17.973801109539">
        <ele>79</ele>
        <time>2018-01-08T18:28:16Z</time>
      </trkpt>
      <trkpt lat="62.633049286273" lon="17.973862381228">
        <ele>79.2</ele>
        <time>2018-01-08T18:28:17Z</time>
      </trkpt>
      <trkpt lat="62.633036294328" lon="17.973921305985">
        <ele>79.4</ele>
        <time>2018-01-08T18:28:18Z</time>
      </trkpt>
      <trkpt lat="62.633021123089" lon="17.973979895466">
        <ele>79.6</ele>
        <time>2018-01-08T18:28:19Z</time>
      </trkpt>
      <trkpt lat="62.633006622402" lon="17.974037143843">
        <ele>79.8</ele>
        <time>2018-01-08T18:28:20Z</time>
      </trkpt>
      <trkpt lat="62.632992792267" lon="17.974095649505">
        <ele>80</ele>
        <time>2018-01-08T18:28:21Z</time>
      </trkpt>
      <trkpt lat="62.632980470874" lon="17.974148539294">
        <ele>80</ele>
        <time>2018-01-08T18:28:22Z</time>
      </trkpt>
      <trkpt lat="62.63296655692" lon="17.974212325553">
        <ele>80</ele>
        <time>2018-01-08T18:28:23Z</time>
      </trkpt>
      <trkpt lat="62.632952559147" lon="17.974266472627">
        <ele>80</ele>
        <time>2018-01-08T18:28:24Z</time>
      </trkpt>
      <trkpt lat="62.632937136451" lon="17.974326822307">
        <ele>80.2</ele>
        <time>2018-01-08T18:28:25Z</time>
      </trkpt>
      <trkpt lat="62.632921629936" lon="17.97438608234">
        <ele>80.4</ele>
        <time>2018-01-08T18:28:26Z</time>
      </trkpt>
      <trkpt lat="62.632898998806" lon="17.974437295749">
        <ele>80.4</ele>
        <time>2018-01-08T18:28:27Z</time>
      </trkpt>
      <trkpt lat="62.632871925269" lon="17.974477193593">
        <ele>80.4</ele>
        <time>2018-01-08T18:28:28Z</time>
      </trkpt>
      <trkpt lat="62.632838732945" lon="17.97449588523">
        <ele>80.4</ele>
        <time>2018-01-08T18:28:29Z</time>
      </trkpt>
      <trkpt lat="62.632812581417" lon="17.974494544126">
        <ele>80.4</ele>
        <time>2018-01-08T18:28:30Z</time>
      </trkpt>
      <trkpt lat="62.632780227283" lon="17.974488257701">
        <ele>80.6</ele>
        <time>2018-01-08T18:28:31Z</time>
      </trkpt>
      <trkpt lat="62.632749549529" lon="17.97446319582">
        <ele>80.6</ele>
        <time>2018-01-08T18:28:32Z</time>
      </trkpt>
      <trkpt lat="62.632718368861" lon="17.974454311006">
        <ele>80.6</ele>
        <time>2018-01-08T18:28:33Z</time>
      </trkpt>
      <trkpt lat="62.632690876229" lon="17.974440313233">
        <ele>80.6</ele>
        <time>2018-01-08T18:28:34Z</time>
      </trkpt>
      <trkpt lat="62.632660282294" lon="17.974418855569">
        <ele>80.4</ele>
        <time>2018-01-08T18:28:35Z</time>
      </trkpt>
      <trkpt lat="62.632634214585" lon="17.97439362605">
        <ele>80.4</ele>
        <time>2018-01-08T18:28:36Z</time>
      </trkpt>
      <trkpt lat="62.632609655618" lon="17.974363702667">
        <ele>80.4</ele>
        <time>2018-01-08T18:28:37Z</time>
      </trkpt>
      <trkpt lat="62.632583001176" lon="17.974329672153">
        <ele>80.4</ele>
        <time>2018-01-08T18:28:38Z</time>
      </trkpt>
      <trkpt lat="62.632557687838" lon="17.974302766254">
        <ele>80.4</ele>
        <time>2018-01-08T18:28:39Z</time>
      </trkpt>
      <trkpt lat="62.632528518826" lon="17.974276698545">
        <ele>80.4</ele>
        <time>2018-01-08T18:28:40Z</time>
      </trkpt>
      <trkpt lat="62.6324988469" lon="17.974247278076">
        <ele>80.4</ele>
        <time>2018-01-08T18:28:41Z</time>
      </trkpt>
      <trkpt lat="62.632473952657" lon="17.974222970566">
        <ele>80.4</ele>
        <time>2018-01-08T18:28:42Z</time>
      </trkpt>
      <trkpt lat="62.632443023446" lon="17.97418994588">
        <ele>80.4</ele>
        <time>2018-01-08T18:28:43Z</time>
      </trkpt>
      <trkpt lat="62.632417793927" lon="17.974164297266">
        <ele>80.2</ele>
        <time>2018-01-08T18:28:44Z</time>
      </trkpt>
      <trkpt lat="62.632387619087" lon="17.974142923421">
        <ele>80.2</ele>
        <time>2018-01-08T18:28:45Z</time>
      </trkpt>
      <trkpt lat="62.632358701532" lon="17.97413462534">
        <ele>80.2</ele>
        <time>2018-01-08T18:28:46Z</time>
      </trkpt>
      <trkpt lat="62.632327604683" lon="17.974118112997">
        <ele>80.2</ele>
        <time>2018-01-08T18:28:47Z</time>
      </trkpt>
      <trkpt lat="62.632298351852" lon="17.974083076655">
        <ele>80.2</ele>
        <time>2018-01-08T18:28:48Z</time>
      </trkpt>
      <trkpt lat="62.632271781229" lon="17.974059439697">
        <ele>80.2</ele>
        <time>2018-01-08T18:28:49Z</time>
      </trkpt>
      <trkpt lat="62.632244791511" lon="17.974035802739">
        <ele>80.2</ele>
        <time>2018-01-08T18:28:50Z</time>
      </trkpt>
      <trkpt lat="62.632215454861" lon="17.97401141141">
        <ele>80.2</ele>
        <time>2018-01-08T18:28:51Z</time>
      </trkpt>
      <trkpt lat="62.632191147351" lon="17.973988696461">
        <ele>80.4</ele>
        <time>2018-01-08T18:28:52Z</time>
      </trkpt>
      <trkpt lat="62.632160553416" lon="17.973953995395">
        <ele>80.2</ele>
        <time>2018-01-08T18:28:53Z</time>
      </trkpt>
      <trkpt lat="62.63213423425" lon="17.973920803071">
        <ele>80.2</ele>
        <time>2018-01-08T18:28:54Z</time>
      </trkpt>
      <trkpt lat="62.632102718306" lon="17.97388568291">
        <ele>80.2</ele>
        <time>2018-01-08T18:28:55Z</time>
      </trkpt>
      <trkpt lat="62.632076063864" lon="17.97385634626">
        <ele>80.2</ele>
        <time>2018-01-08T18:28:56Z</time>
      </trkpt>
      <trkpt lat="62.632050079974" lon="17.973827680162">
        <ele>80.2</ele>
        <time>2018-01-08T18:28:57Z</time>
      </trkpt>
      <trkpt lat="62.632027281206" lon="17.973796918589">
        <ele>80</ele>
        <time>2018-01-08T18:28:58Z</time>
      </trkpt>
      <trkpt lat="62.632000207669" lon="17.973766324654">
        <ele>80</ele>
        <time>2018-01-08T18:28:59Z</time>
      </trkpt>
      <trkpt lat="62.63197162539" lon="17.973733048511">
        <ele>80</ele>
        <time>2018-01-08T18:29:00Z</time>
      </trkpt>
      <trkpt lat="62.631944132758" lon="17.973706142612">
        <ele>80.2</ele>
        <time>2018-01-08T18:29:01Z</time>
      </trkpt>
      <trkpt lat="62.63191714304" lon="17.973677644152">
        <ele>80</ele>
        <time>2018-01-08T18:29:02Z</time>
      </trkpt>
      <trkpt lat="62.631888812218" lon="17.973637662489">
        <ele>80.2</ele>
        <time>2018-01-08T18:29:03Z</time>
      </trkpt>
      <trkpt lat="62.631866767821" lon="17.973605140717">
        <ele>80</ele>
        <time>2018-01-08T18:29:04Z</time>
      </trkpt>
      <trkpt lat="62.631838185542" lon="17.973564907597">
        <ele>80</ele>
        <time>2018-01-08T18:29:05Z</time>
      </trkpt>
      <trkpt lat="62.631811279643" lon="17.973530541807">
        <ele>80</ele>
        <time>2018-01-08T18:29:06Z</time>
      </trkpt>
      <trkpt lat="62.631787139771" lon="17.973500702243">
        <ele>80</ele>
        <time>2018-01-08T18:29:07Z</time>
      </trkpt>
      <trkpt lat="62.63175453418" lon="17.973461977865">
        <ele>79.8</ele>
        <time>2018-01-08T18:29:08Z</time>
      </trkpt>
      <trkpt lat="62.631729472299" lon="17.97342719298">
        <ele>79.8</ele>
        <time>2018-01-08T18:29:09Z</time>
      </trkpt>
      <trkpt lat="62.631703656047" lon="17.973389558249">
        <ele>79.8</ele>
        <time>2018-01-08T18:29:10Z</time>
      </trkpt>
      <trkpt lat="62.631673816483" lon="17.973346978197">
        <ele>79.8</ele>
        <time>2018-01-08T18:29:11Z</time>
      </trkpt>
      <trkpt lat="62.631649592792" lon="17.973311271303">
        <ele>79.8</ele>
        <time>2018-01-08T18:29:12Z</time>
      </trkpt>
      <trkpt lat="62.631622770712" lon="17.973263997387">
        <ele>80</ele>
        <time>2018-01-08T18:29:13Z</time>
      </trkpt>
      <trkpt lat="62.631599971944" lon="17.973216052919">
        <ele>79.8</ele>
        <time>2018-01-08T18:29:14Z</time>
      </trkpt>
      <trkpt lat="62.631578681918" lon="17.973169533374">
        <ele>79.8</ele>
        <time>2018-01-08T18:29:15Z</time>
      </trkpt>
      <trkpt lat="62.631552614209" lon="17.973131144272">
        <ele>79.8</ele>
        <time>2018-01-08T18:29:16Z</time>
      </trkpt>
      <trkpt lat="62.631525205396" lon="17.973079008854">
        <ele>79.8</ele>
        <time>2018-01-08T18:29:17Z</time>
      </trkpt>
      <trkpt lat="62.63149972442" lon="17.973021425201">
        <ele>79.6</ele>
        <time>2018-01-08T18:29:18Z</time>
      </trkpt>
      <trkpt lat="62.631474494901" lon="17.972969038326">
        <ele>79.6</ele>
        <time>2018-01-08T18:29:19Z</time>
      </trkpt>
      <trkpt lat="62.631454043065" lon="17.97291170613">
        <ele>79.4</ele>
        <time>2018-01-08T18:29:20Z</time>
      </trkpt>
      <trkpt lat="62.631432920677" lon="17.972860073626">
        <ele>79</ele>
        <time>2018-01-08T18:29:21Z</time>
      </trkpt>
      <trkpt lat="62.63141506723" lon="17.972816068651">
        <ele>78.8</ele>
        <time>2018-01-08T18:29:22Z</time>
      </trkpt>
      <trkpt lat="62.63139159791" lon="17.972744571044">
        <ele>78.6</ele>
        <time>2018-01-08T18:29:23Z</time>
      </trkpt>
      <trkpt lat="62.631375923757" lon="17.972685143373">
        <ele>78.4</ele>
        <time>2018-01-08T18:29:24Z</time>
      </trkpt>
      <trkpt lat="62.631354046998" lon="17.972627475901">
        <ele>78.2</ele>
        <time>2018-01-08T18:29:25Z</time>
      </trkpt>
      <trkpt lat="62.63133124823" lon="17.972568718782">
        <ele>78.2</ele>
        <time>2018-01-08T18:29:26Z</time>
      </trkpt>
      <trkpt lat="62.631311550765" lon="17.972515493717">
        <ele>78</ele>
        <time>2018-01-08T18:29:27Z</time>
      </trkpt>
      <trkpt lat="62.631291434205" lon="17.97245824534">
        <ele>78</ele>
        <time>2018-01-08T18:29:28Z</time>
      </trkpt>
      <trkpt lat="62.631270227998" lon="17.972392615063">
        <ele>77.8</ele>
        <time>2018-01-08T18:29:29Z</time>
      </trkpt>
      <trkpt lat="62.631253045103" lon="17.972335785781">
        <ele>77.6</ele>
        <time>2018-01-08T18:29:30Z</time>
      </trkpt>
      <trkpt lat="62.631233934371" lon="17.972279543232">
        <ele>77.6</ele>
        <time>2018-01-08T18:29:31Z</time>
      </trkpt>
      <trkpt lat="62.63121557801" lon="17.972219445009">
        <ele>77.4</ele>
        <time>2018-01-08T18:29:32Z</time>
      </trkpt>
      <trkpt lat="62.631194036527" lon="17.972160352614">
        <ele>77.2</ele>
        <time>2018-01-08T18:29:33Z</time>
      </trkpt>
      <trkpt lat="62.63117785946" lon="17.972107127549">
        <ele>77.2</ele>
        <time>2018-01-08T18:29:34Z</time>
      </trkpt>
      <trkpt lat="62.631159754556" lon="17.972037222503">
        <ele>77</ele>
        <time>2018-01-08T18:29:35Z</time>
      </trkpt>
      <trkpt lat="62.631142152566" lon="17.971981650506">
        <ele>76.8</ele>
        <time>2018-01-08T18:29:36Z</time>
      </trkpt>
      <trkpt lat="62.631127484241" lon="17.971925240319">
        <ele>76.6</ele>
        <time>2018-01-08T18:29:37Z</time>
      </trkpt>
      <trkpt lat="62.631112396821" lon="17.971849300305">
        <ele>76.4</ele>
        <time>2018-01-08T18:29:38Z</time>
      </trkpt>
      <trkpt lat="62.631097728496" lon="17.971792890118">
        <ele>76.2</ele>
        <time>2018-01-08T18:29:39Z</time>
      </trkpt>
      <trkpt lat="62.631087167302" lon="17.971740251786">
        <ele>76</ele>
        <time>2018-01-08T18:29:40Z</time>
      </trkpt>
      <trkpt lat="62.631069397674" lon="17.971661042831">
        <ele>75.8</ele>
        <time>2018-01-08T18:29:41Z</time>
      </trkpt>
      <trkpt lat="62.631055399901" lon="17.971599519685">
        <ele>75.6</ele>
        <time>2018-01-08T18:29:42Z</time>
      </trkpt>
      <trkpt lat="62.631040983033" lon="17.971535146693">
        <ele>75.6</ele>
        <time>2018-01-08T18:29:43Z</time>
      </trkpt>
      <trkpt lat="62.631028410183" lon="17.971464738733">
        <ele>75.4</ele>
        <time>2018-01-08T18:29:44Z</time>
      </trkpt>
      <trkpt lat="62.631017010799" lon="17.971398102628">
        <ele>75.2</ele>
        <time>2018-01-08T18:29:45Z</time>
      </trkpt>
      <trkpt lat="62.631005024682" lon="17.971341524803">
        <ele>75.2</ele>
        <time>2018-01-08T18:29:46Z</time>
      </trkpt>
      <trkpt lat="62.630992116556" lon="17.971281761856">
        <ele>75.2</ele>
        <time>2018-01-08T18:29:47Z</time>
      </trkpt>
      <trkpt lat="62.630981974457" lon="17.971219651977">
        <ele>75.2</ele>
        <time>2018-01-08T18:29:48Z</time>
      </trkpt>
      <trkpt lat="62.630974011652" lon="17.971149495474">
        <ele>75.2</ele>
        <time>2018-01-08T18:29:49Z</time>
      </trkpt>
      <trkpt lat="62.630962947544" lon="17.971073471641">
        <ele>75</ele>
        <time>2018-01-08T18:29:50Z</time>
      </trkpt>
      <trkpt lat="62.630952973083" lon="17.971007003174">
        <ele>75</ele>
        <time>2018-01-08T18:29:51Z</time>
      </trkpt>
      <trkpt lat="62.630945932287" lon="17.970946653494">
        <ele>75</ele>
        <time>2018-01-08T18:29:52Z</time>
      </trkpt>
      <trkpt lat="62.630938304758" lon="17.970861577209">
        <ele>75</ele>
        <time>2018-01-08T18:29:53Z</time>
      </trkpt>
      <trkpt lat="62.630931515419" lon="17.970797455674">
        <ele>74.6</ele>
        <time>2018-01-08T18:29:54Z</time>
      </trkpt>
      <trkpt lat="62.630924977537" lon="17.97072235385">
        <ele>74.6</ele>
        <time>2018-01-08T18:29:55Z</time>
      </trkpt>
      <trkpt lat="62.630917769103" lon="17.970650101872">
        <ele>74.6</ele>
        <time>2018-01-08T18:29:56Z</time>
      </trkpt>
      <trkpt lat="62.630910393031" lon="17.970585058328">
        <ele>74.2</ele>
        <time>2018-01-08T18:29:57Z</time>
      </trkpt>
      <trkpt lat="62.630902765502" lon="17.970513728359">
        <ele>74</ele>
        <time>2018-01-08T18:29:58Z</time>
      </trkpt>
      <trkpt lat="62.630897233448" lon="17.970437536888">
        <ele>73.8</ele>
        <time>2018-01-08T18:29:59Z</time>
      </trkpt>
      <trkpt lat="62.630891617575" lon="17.970365201091">
        <ele>74</ele>
        <time>2018-01-08T18:30:00Z</time>
      </trkpt>
      <trkpt lat="62.630879799096" lon="17.970244837007">
        <ele>73.6</ele>
        <time>2018-01-08T18:30:02Z</time>
      </trkpt>
      <trkpt lat="62.630875859603" lon="17.97018591225">
        <ele>73.6</ele>
        <time>2018-01-08T18:30:03Z</time>
      </trkpt>
      <trkpt lat="62.630876194879" lon="17.970153558116">
        <ele>73.4</ele>
        <time>2018-01-08T18:30:04Z</time>
      </trkpt>
      <trkpt lat="62.630878960906" lon="17.970121874534">
        <ele>73.4</ele>
        <time>2018-01-08T18:30:05Z</time>
      </trkpt>
      <trkpt lat="62.630883487132" lon="17.970097567024">
        <ele>73.2</ele>
        <time>2018-01-08T18:30:06Z</time>
      </trkpt>
      <trkpt lat="62.630884409141" lon="17.97007946212">
        <ele>73.2</ele>
        <time>2018-01-08T18:30:07Z</time>
      </trkpt>
      <trkpt lat="62.630890863204" lon="17.970063285053">
        <ele>73</ele>
        <time>2018-01-08T18:30:08Z</time>
      </trkpt>
      <trkpt lat="62.630897233448" lon="17.970067811279">
        <ele>73.2</ele>
        <time>2018-01-08T18:30:09Z</time>
      </trkpt>
      <trkpt lat="62.630896646715" lon="17.970076696093">
        <ele>73.2</ele>
        <time>2018-01-08T18:30:10Z</time>
      </trkpt>
      <trkpt lat="62.630906034443" lon="17.970085497088">
        <ele>73</ele>
        <time>2018-01-08T18:30:11Z</time>
      </trkpt>
      <trkpt lat="62.630911147402" lon="17.970095974463">
        <ele>73</ele>
        <time>2018-01-08T18:30:12Z</time>
      </trkpt>
      <trkpt lat="62.630916427999" lon="17.97011382791">
        <ele>72.8</ele>
        <time>2018-01-08T18:30:13Z</time>
      </trkpt>
      <trkpt lat="62.630917014732" lon="17.970131262262">
        <ele>72.6</ele>
        <time>2018-01-08T18:30:14Z</time>
      </trkpt>
      <trkpt lat="62.63091299142" lon="17.970130424072">
        <ele>72.6</ele>
        <time>2018-01-08T18:30:15Z</time>
      </trkpt>
      <trkpt lat="62.630910141574" lon="17.970129837339">
        <ele>72.4</ele>
        <time>2018-01-08T18:30:16Z</time>
      </trkpt>
      <trkpt lat="62.630907543185" lon="17.970127490407">
        <ele>72.4</ele>
        <time>2018-01-08T18:30:17Z</time>
      </trkpt>
      <trkpt lat="62.63125581113" lon="17.969933784698">
        <ele>72.2</ele>
        <time>2018-01-08T18:33:09Z</time>
      </trkpt>
      <trkpt lat="62.631279615726" lon="17.969919703106">
        <ele>72</ele>
        <time>2018-01-08T18:33:10Z</time>
      </trkpt>
      <trkpt lat="62.631320100303" lon="17.969903609858">
        <ele>72</ele>
        <time>2018-01-08T18:33:11Z</time>
      </trkpt>
      <trkpt lat="62.631348263487" lon="17.969882738927">
        <ele>71.6</ele>
        <time>2018-01-08T18:33:12Z</time>
      </trkpt>
      <trkpt lat="62.631385898218" lon="17.969857760865">
        <ele>71.4</ele>
        <time>2018-01-08T18:33:13Z</time>
      </trkpt>
      <trkpt lat="62.631418000895" lon="17.969837476667">
        <ele>71.2</ele>
        <time>2018-01-08T18:33:14Z</time>
      </trkpt>
      <trkpt lat="62.631453540151" lon="17.969814258804">
        <ele>71</ele>
        <time>2018-01-08T18:33:15Z</time>
      </trkpt>
      <trkpt lat="62.631481535697" lon="17.969800009574">
        <ele>71</ele>
        <time>2018-01-08T18:33:16Z</time>
      </trkpt>
      <trkpt lat="62.631515482392" lon="17.969782156127">
        <ele>71</ele>
        <time>2018-01-08T18:33:17Z</time>
      </trkpt>
      <trkpt lat="62.631550351096" lon="17.969768577449">
        <ele>71.2</ele>
        <time>2018-01-08T18:33:18Z</time>
      </trkpt>
      <trkpt lat="62.631584046334" lon="17.96974837707">
        <ele>71.2</ele>
        <time>2018-01-08T18:33:19Z</time>
      </trkpt>
      <trkpt lat="62.631615227002" lon="17.969728176691">
        <ele>71.4</ele>
        <time>2018-01-08T18:33:20Z</time>
      </trkpt>
      <trkpt lat="62.631643976919" lon="17.969702779534">
        <ele>71.4</ele>
        <time>2018-01-08T18:33:21Z</time>
      </trkpt>
      <trkpt lat="62.631670379904" lon="17.969673107608">
        <ele>71.4</ele>
        <time>2018-01-08T18:33:22Z</time>
      </trkpt>
      <trkpt lat="62.631706002979" lon="17.9696368978">
        <ele>71.4</ele>
        <time>2018-01-08T18:33:23Z</time>
      </trkpt>
      <trkpt lat="62.63173190305" lon="17.969596413223">
        <ele>71.2</ele>
        <time>2018-01-08T18:33:24Z</time>
      </trkpt>
      <trkpt lat="62.631763083718" lon="17.969554168447">
        <ele>71.2</ele>
        <time>2018-01-08T18:33:25Z</time>
      </trkpt>
      <trkpt lat="62.631789989617" lon="17.969525167073">
        <ele>71.2</ele>
        <time>2018-01-08T18:33:26Z</time>
      </trkpt>
      <trkpt lat="62.631821170285" lon="17.969509157644">
        <ele>71.2</ele>
        <time>2018-01-08T18:33:27Z</time>
      </trkpt>
      <trkpt lat="62.631852350953" lon="17.969509073825">
        <ele>71</ele>
        <time>2018-01-08T18:33:28Z</time>
      </trkpt>
      <trkpt lat="62.631881687603" lon="17.969513013318">
        <ele>70.8</ele>
        <time>2018-01-08T18:33:29Z</time>
      </trkpt>
      <trkpt lat="62.631910018425" lon="17.96951284568">
        <ele>70.6</ele>
        <time>2018-01-08T18:33:30Z</time>
      </trkpt>
      <trkpt lat="62.631937175781" lon="17.969514689698">
        <ele>70.6</ele>
        <time>2018-01-08T18:33:31Z</time>
      </trkpt>
      <trkpt lat="62.631965590422" lon="17.969515276431">
        <ele>70.6</ele>
        <time>2018-01-08T18:33:32Z</time>
      </trkpt>
      <trkpt lat="62.631995765262" lon="17.96951368387">
        <ele>70.6</ele>
        <time>2018-01-08T18:33:33Z</time>
      </trkpt>
      <trkpt lat="62.632022503523" lon="17.969503122676">
        <ele>70.4</ele>
        <time>2018-01-08T18:33:34Z</time>
      </trkpt>
      <trkpt lat="62.632055276752" lon="17.9694944055">
        <ele>70.8</ele>
        <time>2018-01-08T18:33:35Z</time>
      </trkpt>
      <trkpt lat="62.632085116316" lon="17.969500105192">
        <ele>71</ele>
        <time>2018-01-08T18:33:36Z</time>
      </trkpt>
      <trkpt lat="62.632109507645" lon="17.969487532342">
        <ele>71.2</ele>
        <time>2018-01-08T18:33:37Z</time>
      </trkpt>
      <trkpt lat="62.632144627806" lon="17.969469930352">
        <ele>71.2</ele>
        <time>2018-01-08T18:33:38Z</time>
      </trkpt>
      <trkpt lat="62.632175473198" lon="17.969464817393">
        <ele>71.2</ele>
        <time>2018-01-08T18:33:39Z</time>
      </trkpt>
      <trkpt lat="62.632201876183" lon="17.969460207348">
        <ele>71.2</ele>
        <time>2018-01-08T18:33:40Z</time>
      </trkpt>
      <trkpt lat="62.632238253629" lon="17.969456938407">
        <ele>71.4</ele>
        <time>2018-01-08T18:33:41Z</time>
      </trkpt>
      <trkpt lat="62.632267087365" lon="17.969450987258">
        <ele>71.4</ele>
        <time>2018-01-08T18:33:42Z</time>
      </trkpt>
      <trkpt lat="62.632301117879" lon="17.969442353901">
        <ele>71.2</ele>
        <time>2018-01-08T18:33:43Z</time>
      </trkpt>
      <trkpt lat="62.632330119253" lon="17.9694357322">
        <ele>71.2</ele>
        <time>2018-01-08T18:33:44Z</time>
      </trkpt>
      <trkpt lat="62.632359874998" lon="17.969428942861">
        <ele>71</ele>
        <time>2018-01-08T18:33:45Z</time>
      </trkpt>
      <trkpt lat="62.632388624915" lon="17.969421650608">
        <ele>71</ele>
        <time>2018-01-08T18:33:46Z</time>
      </trkpt>
      <trkpt lat="62.632452914088" lon="17.969433552906">
        <ele>71</ele>
        <time>2018-01-08T18:33:48Z</time>
      </trkpt>
      <trkpt lat="62.632486357869" lon="17.969441515711">
        <ele>71</ele>
        <time>2018-01-08T18:33:49Z</time>
      </trkpt>
      <trkpt lat="62.63251309613" lon="17.969437827675">
        <ele>71.2</ele>
        <time>2018-01-08T18:33:50Z</time>
      </trkpt>
      <trkpt lat="62.632545282626" lon="17.969441012797">
        <ele>71.2</ele>
        <time>2018-01-08T18:33:51Z</time>
      </trkpt>
      <trkpt lat="62.63257093124" lon="17.969445958118">
        <ele>71.2</ele>
        <time>2018-01-08T18:33:52Z</time>
      </trkpt>
      <trkpt lat="62.632602111908" lon="17.969450232887">
        <ele>71.4</ele>
        <time>2018-01-08T18:33:53Z</time>
      </trkpt>
      <trkpt lat="62.632632454386" lon="17.969450987258">
        <ele>71.2</ele>
        <time>2018-01-08T18:33:54Z</time>
      </trkpt>
      <trkpt lat="62.632658438276" lon="17.969448640326">
        <ele>71.2</ele>
        <time>2018-01-08T18:33:55Z</time>
      </trkpt>
      <trkpt lat="62.632688780754" lon="17.969452831276">
        <ele>71.2</ele>
        <time>2018-01-08T18:33:56Z</time>
      </trkpt>
      <trkpt lat="62.632715602834" lon="17.969462638099">
        <ele>71.2</ele>
        <time>2018-01-08T18:33:57Z</time>
      </trkpt>
      <trkpt lat="62.63274276019" lon="17.969462470461">
        <ele>71.2</ele>
        <time>2018-01-08T18:33:58Z</time>
      </trkpt>
      <trkpt lat="62.632773018849" lon="17.969470181809">
        <ele>71.4</ele>
        <time>2018-01-08T18:33:59Z</time>
      </trkpt>
      <trkpt lat="62.632799002739" lon="17.969479653356">
        <ele>71.4</ele>
        <time>2018-01-08T18:34:00Z</time>
      </trkpt>
      <trkpt lat="62.632825992457" lon="17.96948099446">
        <ele>71.6</ele>
        <time>2018-01-08T18:34:01Z</time>
      </trkpt>
      <trkpt lat="62.632854826193" lon="17.969497590622">
        <ele>71.6</ele>
        <time>2018-01-08T18:34:02Z</time>
      </trkpt>
      <trkpt lat="62.63288189973" lon="17.969500189011">
        <ele>71.6</ele>
        <time>2018-01-08T18:34:03Z</time>
      </trkpt>
      <trkpt lat="62.632914086226" lon="17.969524915616">
        <ele>71.8</ele>
        <time>2018-01-08T18:34:04Z</time>
      </trkpt>
      <trkpt lat="62.632944261066" lon="17.969523658331">
        <ele>71.8</ele>
        <time>2018-01-08T18:34:05Z</time>
      </trkpt>
      <trkpt lat="62.63297410063" lon="17.969528855109">
        <ele>72</ele>
        <time>2018-01-08T18:34:06Z</time>
      </trkpt>
      <trkpt lat="62.633005868031" lon="17.969533632792">
        <ele>72</ele>
        <time>2018-01-08T18:34:07Z</time>
      </trkpt>
      <trkpt lat="62.633036797242" lon="17.96953547681">
        <ele>72.2</ele>
        <time>2018-01-08T18:34:08Z</time>
      </trkpt>
      <trkpt lat="62.633069570471" lon="17.969543774891">
        <ele>72.2</ele>
        <time>2018-01-08T18:34:09Z</time>
      </trkpt>
      <trkpt lat="62.63309815275" lon="17.969558275578">
        <ele>72.4</ele>
        <time>2018-01-08T18:34:10Z</time>
      </trkpt>
      <trkpt lat="62.633130087789" lon="17.969563220899">
        <ele>72.4</ele>
        <time>2018-01-08T18:34:11Z</time>
      </trkpt>
      <trkpt lat="62.63316269338" lon="17.969577889224">
        <ele>72.4</ele>
        <time>2018-01-08T18:34:12Z</time>
      </trkpt>
      <trkpt lat="62.633191443297" lon="17.96959415011">
        <ele>72.6</ele>
        <time>2018-01-08T18:34:13Z</time>
      </trkpt>
      <trkpt lat="62.633224887078" lon="17.969607309693">
        <ele>72.6</ele>
        <time>2018-01-08T18:34:14Z</time>
      </trkpt>
      <trkpt lat="62.633253720814" lon="17.969630024642">
        <ele>72.8</ele>
        <time>2018-01-08T18:34:15Z</time>
      </trkpt>
      <trkpt lat="62.633282219274" lon="17.969642010759">
        <ele>72.6</ele>
        <time>2018-01-08T18:34:16Z</time>
      </trkpt>
      <trkpt lat="62.633312394114" lon="17.969673610522">
        <ele>72.8</ele>
        <time>2018-01-08T18:34:17Z</time>
      </trkpt>
      <trkpt lat="62.63333536052" lon="17.969709149778">
        <ele>72.8</ele>
        <time>2018-01-08T18:34:18Z</time>
      </trkpt>
      <trkpt lat="62.633355812356" lon="17.969760530825">
        <ele>72.6</ele>
        <time>2018-01-08T18:34:19Z</time>
      </trkpt>
      <trkpt lat="62.633367463197" lon="17.969813085338">
        <ele>72.6</ele>
        <time>2018-01-08T18:34:20Z</time>
      </trkpt>
      <trkpt lat="62.633380036047" lon="17.96986991462">
        <ele>72.6</ele>
        <time>2018-01-08T18:34:21Z</time>
      </trkpt>
      <trkpt lat="62.633384478454" lon="17.969930096662">
        <ele>72.6</ele>
        <time>2018-01-08T18:34:22Z</time>
      </trkpt>
      <trkpt lat="62.633387495938" lon="17.969998492966">
        <ele>72.8</ele>
        <time>2018-01-08T18:34:23Z</time>
      </trkpt>
      <trkpt lat="62.633390178146" lon="17.970058423551">
        <ele>73.2</ele>
        <time>2018-01-08T18:34:24Z</time>
      </trkpt>
      <trkpt lat="62.633388920861" lon="17.970118605593">
        <ele>73.4</ele>
        <time>2018-01-08T18:34:25Z</time>
      </trkpt>
      <trkpt lat="62.633396380752" lon="17.970174429047">
        <ele>73.6</ele>
        <time>2018-01-08T18:34:26Z</time>
      </trkpt>
      <trkpt lat="62.633398811503" lon="17.970235952193">
        <ele>73.8</ele>
        <time>2018-01-08T18:34:27Z</time>
      </trkpt>
      <trkpt lat="62.633401242254" lon="17.970306108696">
        <ele>74</ele>
        <time>2018-01-08T18:34:28Z</time>
      </trkpt>
      <trkpt lat="62.633402667177" lon="17.970373834448">
        <ele>74.2</ele>
        <time>2018-01-08T18:34:29Z</time>
      </trkpt>
      <trkpt lat="62.633406858127" lon="17.970447762806">
        <ele>74.4</ele>
        <time>2018-01-08T18:34:30Z</time>
      </trkpt>
      <trkpt lat="62.633408534507" lon="17.970504843545">
        <ele>74.6</ele>
        <time>2018-01-08T18:34:31Z</time>
      </trkpt>
      <trkpt lat="62.633413647466" lon="17.970570054727">
        <ele>74.6</ele>
        <time>2018-01-08T18:34:32Z</time>
      </trkpt>
      <trkpt lat="62.633417000226" lon="17.970641384696">
        <ele>74.8</ele>
        <time>2018-01-08T18:34:33Z</time>
      </trkpt>
      <trkpt lat="62.633420688262" lon="17.970694442123">
        <ele>74.8</ele>
        <time>2018-01-08T18:34:34Z</time>
      </trkpt>
      <trkpt lat="62.633423202832" lon="17.970761329685">
        <ele>74.8</ele>
        <time>2018-01-08T18:34:35Z</time>
      </trkpt>
      <trkpt lat="62.633426471773" lon="17.970832575835">
        <ele>75</ele>
        <time>2018-01-08T18:34:36Z</time>
      </trkpt>
      <trkpt lat="62.633428651067" lon="17.970891752049">
        <ele>75</ele>
        <time>2018-01-08T18:34:37Z</time>
      </trkpt>
      <trkpt lat="62.633432255284" lon="17.970959477801">
        <ele>75.2</ele>
        <time>2018-01-08T18:34:38Z</time>
      </trkpt>
      <trkpt lat="62.633437200605" lon="17.971017732006">
        <ele>75.2</ele>
        <time>2018-01-08T18:34:39Z</time>
      </trkpt>
      <trkpt lat="62.633437535881" lon="17.971072633451">
        <ele>75.4</ele>
        <time>2018-01-08T18:34:40Z</time>
      </trkpt>
      <trkpt lat="62.633439882813" lon="17.971142203221">
        <ele>75.6</ele>
        <time>2018-01-08T18:34:41Z</time>
      </trkpt>
      <trkpt lat="62.633442565021" lon="17.971203642548">
        <ele>75.8</ele>
        <time>2018-01-08T18:34:42Z</time>
      </trkpt>
      <trkpt lat="62.633441726831" lon="17.971276900354">
        <ele>76</ele>
        <time>2018-01-08T18:34:43Z</time>
      </trkpt>
      <trkpt lat="62.633439631356" lon="17.971341105708">
        <ele>76.2</ele>
        <time>2018-01-08T18:34:44Z</time>
      </trkpt>
      <trkpt lat="62.633438960804" lon="17.971404556691">
        <ele>76.4</ele>
        <time>2018-01-08T18:34:45Z</time>
      </trkpt>
      <trkpt lat="62.633434099302" lon="17.971472450081">
        <ele>76.4</ele>
        <time>2018-01-08T18:34:46Z</time>
      </trkpt>
      <trkpt lat="62.633432171465" lon="17.97153372177">
        <ele>76.4</ele>
        <time>2018-01-08T18:34:47Z</time>
      </trkpt>
      <trkpt lat="62.633429405438" lon="17.971605470834">
        <ele>76.6</ele>
        <time>2018-01-08T18:34:48Z</time>
      </trkpt>
      <trkpt lat="62.633427058506" lon="17.971671520206">
        <ele>76.8</ele>
        <time>2018-01-08T18:34:49Z</time>
      </trkpt>
      <trkpt lat="62.633423789565" lon="17.971734719732">
        <ele>76.8</ele>
        <time>2018-01-08T18:34:50Z</time>
      </trkpt>
      <trkpt lat="62.633418928063" lon="17.971802110208">
        <ele>77</ele>
        <time>2018-01-08T18:34:51Z</time>
      </trkpt>
      <trkpt lat="62.633413647466" lon="17.971854999997">
        <ele>77</ele>
        <time>2018-01-08T18:34:52Z</time>
      </trkpt>
      <trkpt lat="62.633408450688" lon="17.971918367161">
        <ele>77</ele>
        <time>2018-01-08T18:34:53Z</time>
      </trkpt>
      <trkpt lat="62.633399314417" lon="17.971995732098">
        <ele>77.2</ele>
        <time>2018-01-08T18:34:54Z</time>
      </trkpt>
      <trkpt lat="62.633392860354" lon="17.97205759052">
        <ele>77.2</ele>
        <time>2018-01-08T18:34:55Z</time>
      </trkpt>
      <trkpt lat="62.633384562273" lon="17.972130345412">
        <ele>77.2</ele>
        <time>2018-01-08T18:34:56Z</time>
      </trkpt>
      <trkpt lat="62.633375509821" lon="17.972188515798">
        <ele>77.4</ele>
        <time>2018-01-08T18:34:57Z</time>
      </trkpt>
      <trkpt lat="62.63336721174" lon="17.972249955125">
        <ele>77.4</ele>
        <time>2018-01-08T18:34:58Z</time>
      </trkpt>
      <trkpt lat="62.63335547708" lon="17.972319441076">
        <ele>77.6</ele>
        <time>2018-01-08T18:34:59Z</time>
      </trkpt>
      <trkpt lat="62.633347178999" lon="17.972367972277">
        <ele>77.8</ele>
        <time>2018-01-08T18:35:00Z</time>
      </trkpt>
      <trkpt lat="62.633338964737" lon="17.972428238138">
        <ele>78</ele>
        <time>2018-01-08T18:35:01Z</time>
      </trkpt>
      <trkpt lat="62.633330918113" lon="17.972487414352">
        <ele>78.2</ele>
        <time>2018-01-08T18:35:02Z</time>
      </trkpt>
      <trkpt lat="62.633318429082" lon="17.972554134276">
        <ele>78.2</ele>
        <time>2018-01-08T18:35:03Z</time>
      </trkpt>
      <trkpt lat="62.633308203164" lon="17.972606772608">
        <ele>78.4</ele>
        <time>2018-01-08T18:35:04Z</time>
      </trkpt>
      <trkpt lat="62.633296552323" lon="17.972665445908">
        <ele>78.6</ele>
        <time>2018-01-08T18:35:05Z</time>
      </trkpt>
      <trkpt lat="62.633283560378" lon="17.972732836384">
        <ele>78.6</ele>
        <time>2018-01-08T18:35:06Z</time>
      </trkpt>
      <trkpt lat="62.63327333446" lon="17.972791593503">
        <ele>78.8</ele>
        <time>2018-01-08T18:35:07Z</time>
      </trkpt>
      <trkpt lat="62.63326243799" lon="17.972855715038">
        <ele>78.8</ele>
        <time>2018-01-08T18:35:08Z</time>
      </trkpt>
      <trkpt lat="62.633246847656" lon="17.972906174076">
        <ele>78.8</ele>
        <time>2018-01-08T18:35:09Z</time>
      </trkpt>
      <trkpt lat="62.633242656706" lon="17.972961326978">
        <ele>79</ele>
        <time>2018-01-08T18:35:10Z</time>
      </trkpt>
      <trkpt lat="62.633235112996" lon="17.973025364694">
        <ele>79</ele>
        <time>2018-01-08T18:35:11Z</time>
      </trkpt>
      <trkpt lat="62.633225306173" lon="17.97307766775">
        <ele>79.2</ele>
        <time>2018-01-08T18:35:12Z</time>
      </trkpt>
      <trkpt lat="62.633215247893" lon="17.973139442353">
        <ele>79.2</ele>
        <time>2018-01-08T18:35:13Z</time>
      </trkpt>
      <trkpt lat="62.633199406102" lon="17.97319417616">
        <ele>79.4</ele>
        <time>2018-01-08T18:35:14Z</time>
      </trkpt>
      <trkpt lat="62.633192449125" lon="17.97325620222">
        <ele>79.4</ele>
        <time>2018-01-08T18:35:15Z</time>
      </trkpt>
      <trkpt lat="62.633180127732" lon="17.973318395918">
        <ele>79.4</ele>
        <time>2018-01-08T18:35:16Z</time>
      </trkpt>
      <trkpt lat="62.633166381416" lon="17.973379667607">
        <ele>79.6</ele>
        <time>2018-01-08T18:35:17Z</time>
      </trkpt>
      <trkpt lat="62.633147689779" lon="17.97342803117">
        <ele>79.8</ele>
        <time>2018-01-08T18:35:18Z</time>
      </trkpt>
      <trkpt lat="62.633134949291" lon="17.973485279547">
        <ele>79.8</ele>
        <time>2018-01-08T18:35:19Z</time>
      </trkpt>
      <trkpt lat="62.633122963174" lon="17.973544791037">
        <ele>80</ele>
        <time>2018-01-08T18:35:20Z</time>
      </trkpt>
      <trkpt lat="62.633106702288" lon="17.973602626147">
        <ele>80</ele>
        <time>2018-01-08T18:35:21Z</time>
      </trkpt>
      <trkpt lat="62.633092536877" lon="17.973649145692">
        <ele>80.2</ele>
        <time>2018-01-08T18:35:22Z</time>
      </trkpt>
      <trkpt lat="62.633078958199" lon="17.973716536168">
        <ele>80.4</ele>
        <time>2018-01-08T18:35:23Z</time>
      </trkpt>
      <trkpt lat="62.633061440028" lon="17.973781244436">
        <ele>80.6</ele>
        <time>2018-01-08T18:35:24Z</time>
      </trkpt>
      <trkpt lat="62.633049705368" lon="17.97383371513">
        <ele>80.6</ele>
        <time>2018-01-08T18:35:25Z</time>
      </trkpt>
      <trkpt lat="62.63303193574" lon="17.973894819181">
        <ele>80.8</ele>
        <time>2018-01-08T18:35:26Z</time>
      </trkpt>
      <trkpt lat="62.633020703994" lon="17.97395860544">
        <ele>81</ele>
        <time>2018-01-08T18:35:27Z</time>
      </trkpt>
      <trkpt lat="62.633008550239" lon="17.974019290396">
        <ele>81</ele>
        <time>2018-01-08T18:35:28Z</time>
      </trkpt>
      <trkpt lat="62.632990529154" lon="17.974089195442">
        <ele>81.2</ele>
        <time>2018-01-08T18:35:29Z</time>
      </trkpt>
      <trkpt lat="62.632977788666" lon="17.974141917593">
        <ele>81.2</ele>
        <time>2018-01-08T18:35:30Z</time>
      </trkpt>
      <trkpt lat="62.632963371798" lon="17.974204781843">
        <ele>81.4</ele>
        <time>2018-01-08T18:35:31Z</time>
      </trkpt>
      <trkpt lat="62.632948032921" lon="17.974270160663">
        <ele>81.4</ele>
        <time>2018-01-08T18:35:32Z</time>
      </trkpt>
      <trkpt lat="62.632933113139" lon="17.974334785112">
        <ele>81.4</ele>
        <time>2018-01-08T18:35:33Z</time>
      </trkpt>
      <trkpt lat="62.632915930244" lon="17.974390105652">
        <ele>81.4</ele>
        <time>2018-01-08T18:35:34Z</time>
      </trkpt>
      <trkpt lat="62.632890449268" lon="17.974440648509">
        <ele>81.4</ele>
        <time>2018-01-08T18:35:35Z</time>
      </trkpt>
      <trkpt lat="62.632862369903" lon="17.974492113375">
        <ele>81.6</ele>
        <time>2018-01-08T18:35:36Z</time>
      </trkpt>
      <trkpt lat="62.632831105416" lon="17.974495969049">
        <ele>81.6</ele>
        <time>2018-01-08T18:35:37Z</time>
      </trkpt>
      <trkpt lat="62.632795649979" lon="17.974498567438">
        <ele>81.6</ele>
        <time>2018-01-08T18:35:38Z</time>
      </trkpt>
      <trkpt lat="62.632764301673" lon="17.974484066751">
        <ele>81.6</ele>
        <time>2018-01-08T18:35:39Z</time>
      </trkpt>
      <trkpt lat="62.632735384118" lon="17.974470655711">
        <ele>81.8</ele>
        <time>2018-01-08T18:35:40Z</time>
      </trkpt>
      <trkpt lat="62.632706047468" lon="17.974448276038">
        <ele>81.6</ele>
        <time>2018-01-08T18:35:41Z</time>
      </trkpt>
      <trkpt lat="62.632679728302" lon="17.974416676275">
        <ele>81.6</ele>
        <time>2018-01-08T18:35:42Z</time>
      </trkpt>
      <trkpt lat="62.632654917878" lon="17.974398739009">
        <ele>81.8</ele>
        <time>2018-01-08T18:35:43Z</time>
      </trkpt>
      <trkpt lat="62.632619713898" lon="17.974375940241">
        <ele>81.8</ele>
        <time>2018-01-08T18:35:44Z</time>
      </trkpt>
      <trkpt lat="62.632591634533" lon="17.974347274143">
        <ele>81.8</ele>
        <time>2018-01-08T18:35:45Z</time>
      </trkpt>
      <trkpt lat="62.632566069738" lon="17.97432992361">
        <ele>81.8</ele>
        <time>2018-01-08T18:35:46Z</time>
      </trkpt>
      <trkpt lat="62.632537571278" lon="17.974304610272">
        <ele>81.8</ele>
        <time>2018-01-08T18:35:47Z</time>
      </trkpt>
      <trkpt lat="62.632509827189" lon="17.974270831215">
        <ele>81.8</ele>
        <time>2018-01-08T18:35:48Z</time>
      </trkpt>
      <trkpt lat="62.632479819987" lon="17.974253815958">
        <ele>81.8</ele>
        <time>2018-01-08T18:35:49Z</time>
      </trkpt>
      <trkpt lat="62.632452243536" lon="17.974225401317">
        <ele>81.8</ele>
        <time>2018-01-08T18:35:50Z</time>
      </trkpt>
      <trkpt lat="62.632422739248" lon="17.974199585065">
        <ele>81.8</ele>
        <time>2018-01-08T18:35:51Z</time>
      </trkpt>
      <trkpt lat="62.63239910229" lon="17.974186006387">
        <ele>81.8</ele>
        <time>2018-01-08T18:35:52Z</time>
      </trkpt>
      <trkpt lat="62.632365826147" lon="17.974150131855">
        <ele>81.8</ele>
        <time>2018-01-08T18:35:53Z</time>
      </trkpt>
      <trkpt lat="62.632335986583" lon="17.974133368055">
        <ele>81.8</ele>
        <time>2018-01-08T18:35:54Z</time>
      </trkpt>
      <trkpt lat="62.632310421788" lon="17.974109395821">
        <ele>81.8</ele>
        <time>2018-01-08T18:35:55Z</time>
      </trkpt>
      <trkpt lat="62.632284186441" lon="17.974076454954">
        <ele>81.8</ele>
        <time>2018-01-08T18:35:56Z</time>
      </trkpt>
      <trkpt lat="62.632252586678" lon="17.974056757489">
        <ele>81.8</ele>
        <time>2018-01-08T18:35:57Z</time>
      </trkpt>
      <trkpt lat="62.632224004399" lon="17.974028342848">
        <ele>81.8</ele>
        <time>2018-01-08T18:35:58Z</time>
      </trkpt>
      <trkpt lat="62.632188968057" lon="17.974000431121">
        <ele>81.8</ele>
        <time>2018-01-08T18:35:59Z</time>
      </trkpt>
      <trkpt lat="62.632161475425" lon="17.973971848842">
        <ele>81.8</ele>
        <time>2018-01-08T18:36:00Z</time>
      </trkpt>
      <trkpt lat="62.632135323897" lon="17.973937818328">
        <ele>81.8</ele>
        <time>2018-01-08T18:36:01Z</time>
      </trkpt>
      <trkpt lat="62.632106490161" lon="17.973905548013">
        <ele>81.6</ele>
        <time>2018-01-08T18:36:02Z</time>
      </trkpt>
      <trkpt lat="62.632073968389" lon="17.973869505843">
        <ele>81.6</ele>
        <time>2018-01-08T18:36:03Z</time>
      </trkpt>
      <trkpt lat="62.632058126598" lon="17.973816867511">
        <ele>81.6</ele>
        <time>2018-01-08T18:36:04Z</time>
      </trkpt>
      <trkpt lat="62.632028789948" lon="17.973772611079">
        <ele>81.6</ele>
        <time>2018-01-08T18:36:05Z</time>
      </trkpt>
      <trkpt lat="62.632000542945" lon="17.973735479262">
        <ele>81.6</ele>
        <time>2018-01-08T18:36:06Z</time>
      </trkpt>
      <trkpt lat="62.631970703381" lon="17.973702789852">
        <ele>81.4</ele>
        <time>2018-01-08T18:36:07Z</time>
      </trkpt>
      <trkpt lat="62.631945892957" lon="17.973648391321">
        <ele>81.4</ele>
        <time>2018-01-08T18:36:08Z</time>
      </trkpt>
      <trkpt lat="62.631915801936" lon="17.973618132662">
        <ele>81.4</ele>
        <time>2018-01-08T18:36:09Z</time>
      </trkpt>
      <trkpt lat="62.631884788906" lon="17.973587706365">
        <ele>81.4</ele>
        <time>2018-01-08T18:36:10Z</time>
      </trkpt>
      <trkpt lat="62.631850339297" lon="17.973550490729">
        <ele>81.4</ele>
        <time>2018-01-08T18:36:11Z</time>
      </trkpt>
      <trkpt lat="62.631822679027" lon="17.973517549862">
        <ele>81.4</ele>
        <time>2018-01-08T18:36:12Z</time>
      </trkpt>
      <trkpt lat="62.631790492531" lon="17.973474634534">
        <ele>81.4</ele>
        <time>2018-01-08T18:36:13Z</time>
      </trkpt>
      <trkpt lat="62.631759814777" lon="17.973445968436">
        <ele>81.2</ele>
        <time>2018-01-08T18:36:14Z</time>
      </trkpt>
      <trkpt lat="62.631729891394" lon="17.973404058936">
        <ele>81.2</ele>
        <time>2018-01-08T18:36:15Z</time>
      </trkpt>
      <trkpt lat="62.631703739866" lon="17.973362484712">
        <ele>81.4</ele>
        <time>2018-01-08T18:36:16Z</time>
      </trkpt>
      <trkpt lat="62.631677085424" lon="17.973334070071">
        <ele>81.4</ele>
        <time>2018-01-08T18:36:17Z</time>
      </trkpt>
      <trkpt lat="62.63164724586" lon="17.973287299069">
        <ele>81.2</ele>
        <time>2018-01-08T18:36:18Z</time>
      </trkpt>
      <trkpt lat="62.631620759056" lon="17.973246227759">
        <ele>81.2</ele>
        <time>2018-01-08T18:36:19Z</time>
      </trkpt>
      <trkpt lat="62.631594942804" lon="17.973204988811">
        <ele>81.2</ele>
        <time>2018-01-08T18:36:20Z</time>
      </trkpt>
      <trkpt lat="62.631567533991" lon="17.973153440126">
        <ele>81.2</ele>
        <time>2018-01-08T18:36:21Z</time>
      </trkpt>
      <trkpt lat="62.63155001582" lon="17.973105411839">
        <ele>81.2</ele>
        <time>2018-01-08T18:36:22Z</time>
      </trkpt>
      <trkpt lat="62.631526295043" lon="17.973047995824">
        <ele>81</ele>
        <time>2018-01-08T18:36:23Z</time>
      </trkpt>
      <trkpt lat="62.631499053868" lon="17.97299217237">
        <ele>81</ele>
        <time>2018-01-08T18:36:24Z</time>
      </trkpt>
      <trkpt lat="62.631476338919" lon="17.972941545694">
        <ele>80.8</ele>
        <time>2018-01-08T18:36:25Z</time>
      </trkpt>
      <trkpt lat="62.631452701961" lon="17.972887566258">
        <ele>80.6</ele>
        <time>2018-01-08T18:36:26Z</time>
      </trkpt>
      <trkpt lat="62.631432417763" lon="17.972835598478">
        <ele>80.4</ele>
        <time>2018-01-08T18:36:27Z</time>
      </trkpt>
      <trkpt lat="62.631411965927" lon="17.972778350101">
        <ele>80</ele>
        <time>2018-01-08T18:36:28Z</time>
      </trkpt>
      <trkpt lat="62.631386233494" lon="17.972727974882">
        <ele>79.8</ele>
        <time>2018-01-08T18:36:29Z</time>
      </trkpt>
      <trkpt lat="62.631362177441" lon="17.972666284098">
        <ele>79.6</ele>
        <time>2018-01-08T18:36:30Z</time>
      </trkpt>
      <trkpt lat="62.631342899071" lon="17.972610879739">
        <ele>79.4</ele>
        <time>2018-01-08T18:36:31Z</time>
      </trkpt>
      <trkpt lat="62.631327644013" lon="17.972566958583">
        <ele>79.4</ele>
        <time>2018-01-08T18:36:32Z</time>
      </trkpt>
      <trkpt lat="62.6313002352" lon="17.972509542568">
        <ele>79.2</ele>
        <time>2018-01-08T18:36:33Z</time>
      </trkpt>
      <trkpt lat="62.631287746169" lon="17.972457910064">
        <ele>79.2</ele>
        <time>2018-01-08T18:36:34Z</time>
      </trkpt>
      <trkpt lat="62.631266791419" lon="17.972402505705">
        <ele>79</ele>
        <time>2018-01-08T18:36:35Z</time>
      </trkpt>
      <trkpt lat="62.631248937972" lon="17.972347185165">
        <ele>78.8</ele>
        <time>2018-01-08T18:36:36Z</time>
      </trkpt>
      <trkpt lat="62.631233515276" lon="17.97228390182">
        <ele>78.6</ele>
        <time>2018-01-08T18:36:37Z</time>
      </trkpt>
      <trkpt lat="62.631213817811" lon="17.972218606819">
        <ele>78.4</ele>
        <time>2018-01-08T18:36:38Z</time>
      </trkpt>
      <trkpt lat="62.631189510301" lon="17.972164124469">
        <ele>78.4</ele>
        <time>2018-01-08T18:36:39Z</time>
      </trkpt>
      <trkpt lat="62.6311745067" lon="17.972103523332">
        <ele>78.2</ele>
        <time>2018-01-08T18:36:40Z</time>
      </trkpt>
      <trkpt lat="62.631155563606" lon="17.972045185308">
        <ele>78.2</ele>
        <time>2018-01-08T18:36:41Z</time>
      </trkpt>
      <trkpt lat="62.631138967444" lon="17.971984332714">
        <ele>78.2</ele>
        <time>2018-01-08T18:36:42Z</time>
      </trkpt>
      <trkpt lat="62.631122203644" lon="17.971906381044">
        <ele>78.2</ele>
        <time>2018-01-08T18:36:43Z</time>
      </trkpt>
      <trkpt lat="62.631105607482" lon="17.971850809047">
        <ele>78</ele>
        <time>2018-01-08T18:36:44Z</time>
      </trkpt>
      <trkpt lat="62.631090352424" lon="17.971779981992">
        <ele>77.8</ele>
        <time>2018-01-08T18:36:45Z</time>
      </trkpt>
      <trkpt lat="62.631076187013" lon="17.971717033923">
        <ele>77.6</ele>
        <time>2018-01-08T18:36:46Z</time>
      </trkpt>
      <trkpt lat="62.631061267231" lon="17.97165525932">
        <ele>77.4</ele>
        <time>2018-01-08T18:36:47Z</time>
      </trkpt>
      <trkpt lat="62.6310403963" lon="17.971580241315">
        <ele>77.2</ele>
        <time>2018-01-08T18:36:48Z</time>
      </trkpt>
      <trkpt lat="62.631025979432" lon="17.971515616866">
        <ele>76.8</ele>
        <time>2018-01-08T18:36:49Z</time>
      </trkpt>
      <trkpt lat="62.631012819849" lon="17.971452752616">
        <ele>76.8</ele>
        <time>2018-01-08T18:36:50Z</time>
      </trkpt>
      <trkpt lat="62.630999744085" lon="17.971382428475">
        <ele>76.6</ele>
        <time>2018-01-08T18:36:51Z</time>
      </trkpt>
      <trkpt lat="62.630989601986" lon="17.971330712152">
        <ele>76.6</ele>
        <time>2018-01-08T18:36:52Z</time>
      </trkpt>
      <trkpt lat="62.630975436575" lon="17.971259968916">
        <ele>76.4</ele>
        <time>2018-01-08T18:36:53Z</time>
      </trkpt>
      <trkpt lat="62.630968144322" lon="17.971182184884">
        <ele>76.2</ele>
        <time>2018-01-08T18:36:54Z</time>
      </trkpt>
      <trkpt lat="62.630960432974" lon="17.971117560435">
        <ele>76.2</ele>
        <time>2018-01-08T18:36:55Z</time>
      </trkpt>
      <trkpt lat="62.630949201228" lon="17.971043967353">
        <ele>76.2</ele>
        <time>2018-01-08T18:36:56Z</time>
      </trkpt>
      <trkpt lat="62.630936544559" lon="17.97098219275">
        <ele>76.2</ele>
        <time>2018-01-08T18:36:57Z</time>
      </trkpt>
      <trkpt lat="62.630924390804" lon="17.970915389007">
        <ele>76.2</ele>
        <time>2018-01-08T18:36:58Z</time>
      </trkpt>
      <trkpt lat="62.630916679456" lon="17.97083383312">
        <ele>76</ele>
        <time>2018-01-08T18:36:59Z</time>
      </trkpt>
      <trkpt lat="62.63090880047" lon="17.970763928074">
        <ele>76</ele>
        <time>2018-01-08T18:37:00Z</time>
      </trkpt>
      <trkpt lat="62.63089874219" lon="17.970699555082">
        <ele>76</ele>
        <time>2018-01-08T18:37:01Z</time>
      </trkpt>
      <trkpt lat="62.630897149629" lon="17.970637277565">
        <ele>75.8</ele>
        <time>2018-01-08T18:37:02Z</time>
      </trkpt>
      <trkpt lat="62.630889773557" lon="17.970559912628">
        <ele>75.8</ele>
        <time>2018-01-08T18:37:03Z</time>
      </trkpt>
      <trkpt lat="62.630881894571" lon="17.970491516324">
        <ele>75.6</ele>
        <time>2018-01-08T18:37:04Z</time>
      </trkpt>
      <trkpt lat="62.630877116888" lon="17.970405685668">
        <ele>75.6</ele>
        <time>2018-01-08T18:37:05Z</time>
      </trkpt>
      <trkpt lat="62.63086605278" lon="17.970273167829">
        <ele>75.4</ele>
        <time>2018-01-08T18:37:07Z</time>
      </trkpt>
      <trkpt lat="62.630863705848" lon="17.970215667995">
        <ele>75.4</ele>
        <time>2018-01-08T18:37:08Z</time>
      </trkpt>
      <trkpt lat="62.630862364744" lon="17.970186498983">
        <ele>75.2</ele>
        <time>2018-01-08T18:37:09Z</time>
      </trkpt>
      <trkpt lat="62.630860939821" lon="17.970161520921">
        <ele>75</ele>
        <time>2018-01-08T18:37:10Z</time>
      </trkpt>
      <trkpt lat="62.630872171567" lon="17.970131094624">
        <ele>74.8</ele>
        <time>2018-01-08T18:37:11Z</time>
      </trkpt>
      <trkpt lat="62.630887594263" lon="17.97011634248">
        <ele>74.6</ele>
        <time>2018-01-08T18:37:12Z</time>
      </trkpt>
      <trkpt lat="62.630895724706" lon="17.970117599765">
        <ele>74.2</ele>
        <time>2018-01-08T18:37:13Z</time>
      </trkpt>
      <trkpt lat="62.630905196253" lon="17.970128747692">
        <ele>74.4</ele>
        <time>2018-01-08T18:37:14Z</time>
      </trkpt>
      <trkpt lat="62.630908297556" lon="17.970142242551">
        <ele>74.4</ele>
        <time>2018-01-08T18:37:15Z</time>
      </trkpt>
      <trkpt lat="62.630910057755" lon="17.970133525375">
        <ele>74.4</ele>
        <time>2018-01-08T18:37:16Z</time>
      </trkpt>
      <trkpt lat="62.630905699167" lon="17.970132938642">
        <ele>74.4</ele>
        <time>2018-01-08T18:37:17Z</time>
      </trkpt>
      <trkpt lat="62.630906118262" lon="17.970135788488">
        <ele>74.4</ele>
        <time>2018-01-08T18:37:18Z</time>
      </trkpt>
      <trkpt lat="62.631233096181" lon="17.969950967593">
        <ele>74.2</ele>
        <time>2018-01-08T18:40:13Z</time>
      </trkpt>
      <trkpt lat="62.631257738967" lon="17.969931521585">
        <ele>74.2</ele>
        <time>2018-01-08T18:40:14Z</time>
      </trkpt>
      <trkpt lat="62.631282214115" lon="17.969922301495">
        <ele>73.8</ele>
        <time>2018-01-08T18:40:15Z</time>
      </trkpt>
      <trkpt lat="62.631315154982" lon="17.969912494672">
        <ele>73.6</ele>
        <time>2018-01-08T18:40:16Z</time>
      </trkpt>
      <trkpt lat="62.631343234347" lon="17.969896066148">
        <ele>73.6</ele>
        <time>2018-01-08T18:40:17Z</time>
      </trkpt>
      <trkpt lat="62.631375839938" lon="17.969873770294">
        <ele>73.4</ele>
        <time>2018-01-08T18:40:18Z</time>
      </trkpt>
      <trkpt lat="62.631402997294" lon="17.96985398901">
        <ele>73.2</ele>
        <time>2018-01-08T18:40:19Z</time>
      </trkpt>
      <trkpt lat="62.631431076659" lon="17.969838985409">
        <ele>73.2</ele>
        <time>2018-01-08T18:40:20Z</time>
      </trkpt>
      <trkpt lat="62.631456054721" lon="17.969825155274">
        <ele>73.2</ele>
        <time>2018-01-08T18:40:21Z</time>
      </trkpt>
      <trkpt lat="62.631486816294" lon="17.969808140017">
        <ele>73.2</ele>
        <time>2018-01-08T18:40:22Z</time>
      </trkpt>
      <trkpt lat="62.631515985306" lon="17.969795567167">
        <ele>73.2</ele>
        <time>2018-01-08T18:40:23Z</time>
      </trkpt>
      <trkpt lat="62.6315433103" lon="17.969782575222">
        <ele>73.2</ele>
        <time>2018-01-08T18:40:24Z</time>
      </trkpt>
      <trkpt lat="62.631570551475" lon="17.969764973232">
        <ele>73.2</ele>
        <time>2018-01-08T18:40:25Z</time>
      </trkpt>
      <trkpt lat="62.631597541193" lon="17.969749047622">
        <ele>73.2</ele>
        <time>2018-01-08T18:40:26Z</time>
      </trkpt>
      <trkpt lat="62.631623189807" lon="17.969730607442">
        <ele>73</ele>
        <time>2018-01-08T18:40:27Z</time>
      </trkpt>
      <trkpt lat="62.631651855905" lon="17.969698588584">
        <ele>73</ele>
        <time>2018-01-08T18:40:28Z</time>
      </trkpt>
      <trkpt lat="62.631679264718" lon="17.969670090124">
        <ele>72.8</ele>
        <time>2018-01-08T18:40:29Z</time>
      </trkpt>
      <trkpt lat="62.631703320771" lon="17.96964360332">
        <ele>72.8</ele>
        <time>2018-01-08T18:40:30Z</time>
      </trkpt>
      <trkpt lat="62.631728298833" lon="17.969612506471">
        <ele>72.6</ele>
        <time>2018-01-08T18:40:31Z</time>
      </trkpt>
      <trkpt lat="62.631755623827" lon="17.96956732803">
        <ele>72.6</ele>
        <time>2018-01-08T18:40:32Z</time>
      </trkpt>
      <trkpt lat="62.631780015156" lon="17.969536985552">
        <ele>72.6</ele>
        <time>2018-01-08T18:40:33Z</time>
      </trkpt>
      <trkpt lat="62.631810609091" lon="17.969514857336">
        <ele>72.6</ele>
        <time>2018-01-08T18:40:34Z</time>
      </trkpt>
      <trkpt lat="62.631835503334" lon="17.969512342766">
        <ele>72.6</ele>
        <time>2018-01-08T18:40:35Z</time>
      </trkpt>
      <trkpt lat="62.631862157776" lon="17.969518796829">
        <ele>72.4</ele>
        <time>2018-01-08T18:40:36Z</time>
      </trkpt>
      <trkpt lat="62.631890823874" lon="17.969519802657">
        <ele>72.2</ele>
        <time>2018-01-08T18:40:37Z</time>
      </trkpt>
      <trkpt lat="62.631918651782" lon="17.969519048286">
        <ele>72.4</ele>
        <time>2018-01-08T18:40:38Z</time>
      </trkpt>
      <trkpt lat="62.631944970948" lon="17.969520892304">
        <ele>72.4</ele>
        <time>2018-01-08T18:40:39Z</time>
      </trkpt>
      <trkpt lat="62.631971960666" lon="17.969516785173">
        <ele>72.4</ele>
        <time>2018-01-08T18:40:40Z</time>
      </trkpt>
      <trkpt lat="62.63199928566" lon="17.969512258947">
        <ele>72.4</ele>
        <time>2018-01-08T18:40:41Z</time>
      </trkpt>
      <trkpt lat="62.632025521007" lon="17.969505888703">
        <ele>72.6</ele>
        <time>2018-01-08T18:40:42Z</time>
      </trkpt>
      <trkpt lat="62.632052594544" lon="17.969503960866">
        <ele>72.6</ele>
        <time>2018-01-08T18:40:43Z</time>
      </trkpt>
      <trkpt lat="62.6320797519" lon="17.969503793228">
        <ele>72.6</ele>
        <time>2018-01-08T18:40:44Z</time>
      </trkpt>
      <trkpt lat="62.632103807953" lon="17.969497003889">
        <ele>72.6</ele>
        <time>2018-01-08T18:40:45Z</time>
      </trkpt>
      <trkpt lat="62.63212920511" lon="17.969488454351">
        <ele>72.6</ele>
        <time>2018-01-08T18:40:46Z</time>
      </trkpt>
      <trkpt lat="62.632157619751" lon="17.969479150442">
        <ele>72.6</ele>
        <time>2018-01-08T18:40:47Z</time>
      </trkpt>
      <trkpt lat="62.632184441831" lon="17.969471690551">
        <ele>72.6</ele>
        <time>2018-01-08T18:40:48Z</time>
      </trkpt>
      <trkpt lat="62.632212102101" lon="17.969461464633">
        <ele>72.6</ele>
        <time>2018-01-08T18:40:49Z</time>
      </trkpt>
      <trkpt lat="62.632239762371" lon="17.96945584876">
        <ele>72.6</ele>
        <time>2018-01-08T18:40:50Z</time>
      </trkpt>
      <trkpt lat="62.632262561139" lon="17.969448556507">
        <ele>72.8</ele>
        <time>2018-01-08T18:40:51Z</time>
      </trkpt>
      <trkpt lat="62.632294077083" lon="17.969442521539">
        <ele>72.6</ele>
        <time>2018-01-08T18:40:52Z</time>
      </trkpt>
      <trkpt lat="62.63232115062" lon="17.969439168779">
        <ele>72.6</ele>
        <time>2018-01-08T18:40:53Z</time>
      </trkpt>
      <trkpt lat="62.632346631596" lon="17.969435396924">
        <ele>72.6</ele>
        <time>2018-01-08T18:40:54Z</time>
      </trkpt>
      <trkpt lat="62.632374627142" lon="17.969433552906">
        <ele>72.6</ele>
        <time>2018-01-08T18:40:55Z</time>
      </trkpt>
      <trkpt lat="62.632399018471" lon="17.969430200146">
        <ele>72.6</ele>
        <time>2018-01-08T18:40:56Z</time>
      </trkpt>
      <trkpt lat="62.632425421456" lon="17.969426260653">
        <ele>72.6</ele>
        <time>2018-01-08T18:40:57Z</time>
      </trkpt>
      <trkpt lat="62.632457021219" lon="17.969425506282">
        <ele>72.6</ele>
        <time>2018-01-08T18:40:58Z</time>
      </trkpt>
      <trkpt lat="62.632484010937" lon="17.969425757739">
        <ele>72.6</ele>
        <time>2018-01-08T18:40:59Z</time>
      </trkpt>
      <trkpt lat="62.632512677035" lon="17.969424500454">
        <ele>72.4</ele>
        <time>2018-01-08T18:41:00Z</time>
      </trkpt>
      <trkpt lat="62.632538577106" lon="17.969425254825">
        <ele>72.4</ele>
        <time>2018-01-08T18:41:01Z</time>
      </trkpt>
      <trkpt lat="62.632567075566" lon="17.969426344472">
        <ele>72.4</ele>
        <time>2018-01-08T18:41:02Z</time>
      </trkpt>
      <trkpt lat="62.632591215438" lon="17.969431960345">
        <ele>72.4</ele>
        <time>2018-01-08T18:41:03Z</time>
      </trkpt>
      <trkpt lat="62.632617618423" lon="17.969436067476">
        <ele>72.4</ele>
        <time>2018-01-08T18:41:04Z</time>
      </trkpt>
      <trkpt lat="62.632644272865" lon="17.969438917322">
        <ele>72.6</ele>
        <time>2018-01-08T18:41:05Z</time>
      </trkpt>
      <trkpt lat="62.63267067585" lon="17.969446209575">
        <ele>72.6</ele>
        <time>2018-01-08T18:41:06Z</time>
      </trkpt>
      <trkpt lat="62.632698419939" lon="17.96945165781">
        <ele>72.6</ele>
        <time>2018-01-08T18:41:07Z</time>
      </trkpt>
      <trkpt lat="62.632725828752" lon="17.969459704434">
        <ele>72.8</ele>
        <time>2018-01-08T18:41:08Z</time>
      </trkpt>
      <trkpt lat="62.632749549529" lon="17.969465990859">
        <ele>72.8</ele>
        <time>2018-01-08T18:41:09Z</time>
      </trkpt>
      <trkpt lat="62.632775617238" lon="17.969468002515">
        <ele>72.8</ele>
        <time>2018-01-08T18:41:10Z</time>
      </trkpt>
      <trkpt lat="62.632803612784" lon="17.969472864017">
        <ele>73</ele>
        <time>2018-01-08T18:41:11Z</time>
      </trkpt>
      <trkpt lat="62.632829345217" lon="17.969476300596">
        <ele>73</ele>
        <time>2018-01-08T18:41:12Z</time>
      </trkpt>
      <trkpt lat="62.632855329107" lon="17.969479820994">
        <ele>73.2</ele>
        <time>2018-01-08T18:41:13Z</time>
      </trkpt>
      <trkpt lat="62.63288273792" lon="17.9694860236">
        <ele>73.4</ele>
        <time>2018-01-08T18:41:14Z</time>
      </trkpt>
      <trkpt lat="62.632906877792" lon="17.969487448523">
        <ele>73.4</ele>
        <time>2018-01-08T18:41:15Z</time>
      </trkpt>
      <trkpt lat="62.632933783691" lon="17.969493232034">
        <ele>73.4</ele>
        <time>2018-01-08T18:41:16Z</time>
      </trkpt>
      <trkpt lat="62.632962449789" lon="17.969498428812">
        <ele>73.6</ele>
        <time>2018-01-08T18:41:17Z</time>
      </trkpt>
      <trkpt lat="62.632988852774" lon="17.969504631418">
        <ele>73.6</ele>
        <time>2018-01-08T18:41:18Z</time>
      </trkpt>
      <trkpt lat="62.633015758673" lon="17.969512594223">
        <ele>73.6</ele>
        <time>2018-01-08T18:41:19Z</time>
      </trkpt>
      <trkpt lat="62.633039898545" lon="17.969519718838">
        <ele>73.6</ele>
        <time>2018-01-08T18:41:20Z</time>
      </trkpt>
      <trkpt lat="62.63306294877" lon="17.969527011091">
        <ele>73.6</ele>
        <time>2018-01-08T18:41:21Z</time>
      </trkpt>
      <trkpt lat="62.633094129438" lon="17.969538661932">
        <ele>73.6</ele>
        <time>2018-01-08T18:41:22Z</time>
      </trkpt>
      <trkpt lat="62.633121035337" lon="17.969547379108">
        <ele>73.8</ele>
        <time>2018-01-08T18:41:23Z</time>
      </trkpt>
      <trkpt lat="62.633149701435" lon="17.969554419904">
        <ele>73.8</ele>
        <time>2018-01-08T18:41:24Z</time>
      </trkpt>
      <trkpt lat="62.633175769144" lon="17.969561879795">
        <ele>73.8</ele>
        <time>2018-01-08T18:41:25Z</time>
      </trkpt>
      <trkpt lat="62.633199406102" lon="17.969572105713">
        <ele>73.8</ele>
        <time>2018-01-08T18:41:26Z</time>
      </trkpt>
      <trkpt lat="62.633221785775" lon="17.969592641368">
        <ele>73.8</ele>
        <time>2018-01-08T18:41:27Z</time>
      </trkpt>
      <trkpt lat="62.633248943131" lon="17.969611500643">
        <ele>73.6</ele>
        <time>2018-01-08T18:41:28Z</time>
      </trkpt>
      <trkpt lat="62.633273837374" lon="17.969627007158">
        <ele>73.6</ele>
        <time>2018-01-08T18:41:29Z</time>
      </trkpt>
      <trkpt lat="62.633303174024" lon="17.969651482306">
        <ele>73.4</ele>
        <time>2018-01-08T18:41:30Z</time>
      </trkpt>
      <trkpt lat="62.633323542041" lon="17.969677717653">
        <ele>73.4</ele>
        <time>2018-01-08T18:41:31Z</time>
      </trkpt>
      <trkpt lat="62.63334625699" lon="17.969720800619">
        <ele>73.4</ele>
        <time>2018-01-08T18:41:32Z</time>
      </trkpt>
      <trkpt lat="62.633360003306" lon="17.969764135042">
        <ele>73.4</ele>
        <time>2018-01-08T18:41:33Z</time>
      </trkpt>
      <trkpt lat="62.633371905604" lon="17.969814761718">
        <ele>73.6</ele>
        <time>2018-01-08T18:41:34Z</time>
      </trkpt>
      <trkpt lat="62.6333789464" lon="17.969867148593">
        <ele>73.6</ele>
        <time>2018-01-08T18:41:35Z</time>
      </trkpt>
      <trkpt lat="62.633381125694" lon="17.969913751957">
        <ele>73.8</ele>
        <time>2018-01-08T18:41:36Z</time>
      </trkpt>
      <trkpt lat="62.633383388807" lon="17.969966893203">
        <ele>74</ele>
        <time>2018-01-08T18:41:37Z</time>
      </trkpt>
      <trkpt lat="62.63338649011" lon="17.9700224652">
        <ele>74.2</ele>
        <time>2018-01-08T18:41:38Z</time>
      </trkpt>
      <trkpt lat="62.633388585585" lon="17.970073175695">
        <ele>74.2</ele>
        <time>2018-01-08T18:41:39Z</time>
      </trkpt>
      <trkpt lat="62.633391100155" lon="17.970129585882">
        <ele>74.4</ele>
        <time>2018-01-08T18:41:40Z</time>
      </trkpt>
      <trkpt lat="62.633390345784" lon="17.970184068232">
        <ele>74.6</ele>
        <time>2018-01-08T18:41:41Z</time>
      </trkpt>
      <trkpt lat="62.633392692716" lon="17.970238382944">
        <ele>74.6</ele>
        <time>2018-01-08T18:41:42Z</time>
      </trkpt>
      <trkpt lat="62.633396799847" lon="17.970298648805">
        <ele>74.8</ele>
        <time>2018-01-08T18:41:43Z</time>
      </trkpt>
      <trkpt lat="62.633397218942" lon="17.970360171951">
        <ele>74.8</ele>
        <time>2018-01-08T18:41:44Z</time>
      </trkpt>
      <trkpt lat="62.633399398236" lon="17.970407948781">
        <ele>75</ele>
        <time>2018-01-08T18:41:45Z</time>
      </trkpt>
      <trkpt lat="62.633402331901" lon="17.97046754409">
        <ele>75.2</ele>
        <time>2018-01-08T18:41:46Z</time>
      </trkpt>
      <trkpt lat="62.633406019937" lon="17.970528061408">
        <ele>75.2</ele>
        <time>2018-01-08T18:41:47Z</time>
      </trkpt>
      <trkpt lat="62.633409456516" lon="17.970579442455">
        <ele>75.2</ele>
        <time>2018-01-08T18:41:48Z</time>
      </trkpt>
      <trkpt lat="62.633412557819" lon="17.970636439375">
        <ele>75.4</ele>
        <time>2018-01-08T18:41:49Z</time>
      </trkpt>
      <trkpt lat="62.633416748769" lon="17.970689245345">
        <ele>75.6</ele>
        <time>2018-01-08T18:41:50Z</time>
      </trkpt>
      <trkpt lat="62.633421945547" lon="17.97073576489">
        <ele>75.6</ele>
        <time>2018-01-08T18:41:51Z</time>
      </trkpt>
      <trkpt lat="62.633424795393" lon="17.97080114371">
        <ele>75.8</ele>
        <time>2018-01-08T18:41:52Z</time>
      </trkpt>
      <trkpt lat="62.633431081818" lon="17.97085311149">
        <ele>76</ele>
        <time>2018-01-08T18:41:53Z</time>
      </trkpt>
      <trkpt lat="62.633436194777" lon="17.970903989623">
        <ele>76</ele>
        <time>2018-01-08T18:41:54Z</time>
      </trkpt>
      <trkpt lat="62.633437200605" lon="17.970966602416">
        <ele>76.2</ele>
        <time>2018-01-08T18:41:55Z</time>
      </trkpt>
      <trkpt lat="62.633438876985" lon="17.97101655854">
        <ele>76.2</ele>
        <time>2018-01-08T18:41:56Z</time>
      </trkpt>
      <trkpt lat="62.633440804822" lon="17.971067101397">
        <ele>76.2</ele>
        <time>2018-01-08T18:41:57Z</time>
      </trkpt>
      <trkpt lat="62.633440385727" lon="17.971131222932">
        <ele>76.4</ele>
        <time>2018-01-08T18:41:58Z</time>
      </trkpt>
      <trkpt lat="62.633442145926" lon="17.971184531816">
        <ele>76.4</ele>
        <time>2018-01-08T18:41:59Z</time>
      </trkpt>
      <trkpt lat="62.633442397383" lon="17.97127220649">
        <ele>76.4</ele>
        <time>2018-01-08T18:42:01Z</time>
      </trkpt>
      <trkpt lat="62.633439715175" lon="17.971338255862">
        <ele>76.4</ele>
        <time>2018-01-08T18:42:02Z</time>
      </trkpt>
      <trkpt lat="62.633438625528" lon="17.971390056004">
        <ele>76.4</ele>
        <time>2018-01-08T18:42:03Z</time>
      </trkpt>
      <trkpt lat="62.633436278596" lon="17.97144068268">
        <ele>76.4</ele>
        <time>2018-01-08T18:42:04Z</time>
      </trkpt>
      <trkpt lat="62.633432255284" lon="17.971501702912">
        <ele>76.6</ele>
        <time>2018-01-08T18:42:05Z</time>
      </trkpt>
      <trkpt lat="62.633430159809" lon="17.971553335416">
        <ele>76.6</ele>
        <time>2018-01-08T18:42:06Z</time>
      </trkpt>
      <trkpt lat="62.633426052678" lon="17.971610499974">
        <ele>76.8</ele>
        <time>2018-01-08T18:42:07Z</time>
      </trkpt>
      <trkpt lat="62.633422951375" lon="17.971663222125">
        <ele>76.8</ele>
        <time>2018-01-08T18:42:08Z</time>
      </trkpt>
      <trkpt lat="62.633418592787" lon="17.971712926792">
        <ele>77</ele>
        <time>2018-01-08T18:42:09Z</time>
      </trkpt>
      <trkpt lat="62.633411384353" lon="17.971770594264">
        <ele>77</ele>
        <time>2018-01-08T18:42:10Z</time>
      </trkpt>
      <trkpt lat="62.633406019937" lon="17.971822394406">
        <ele>77.2</ele>
        <time>2018-01-08T18:42:11Z</time>
      </trkpt>
      <trkpt lat="62.633401074616" lon="17.971881402982">
        <ele>77.2</ele>
        <time>2018-01-08T18:42:12Z</time>
      </trkpt>
      <trkpt lat="62.633394201458" lon="17.971944099594">
        <ele>77.4</ele>
        <time>2018-01-08T18:42:13Z</time>
      </trkpt>
      <trkpt lat="62.633387579757" lon="17.971994474813">
        <ele>77.6</ele>
        <time>2018-01-08T18:42:14Z</time>
      </trkpt>
      <trkpt lat="62.633382885893" lon="17.972043173652">
        <ele>77.6</ele>
        <time>2018-01-08T18:42:15Z</time>
      </trkpt>
      <trkpt lat="62.633376599468" lon="17.97209866183">
        <ele>77.8</ele>
        <time>2018-01-08T18:42:16Z</time>
      </trkpt>
      <trkpt lat="62.633369810129" lon="17.972156999854">
        <ele>78</ele>
        <time>2018-01-08T18:42:17Z</time>
      </trkpt>
      <trkpt lat="62.633361595867" lon="17.972214164412">
        <ele>78.2</ele>
        <time>2018-01-08T18:42:18Z</time>
      </trkpt>
      <trkpt lat="62.633353884519" lon="17.972270574599">
        <ele>78.2</ele>
        <time>2018-01-08T18:42:19Z</time>
      </trkpt>
      <trkpt lat="62.633347346637" lon="17.972324470216">
        <ele>78.4</ele>
        <time>2018-01-08T18:42:20Z</time>
      </trkpt>
      <trkpt lat="62.633339719108" lon="17.972373336693">
        <ele>78.4</ele>
        <time>2018-01-08T18:42:21Z</time>
      </trkpt>
      <trkpt lat="62.633327900629" lon="17.972433518735">
        <ele>78.4</ele>
        <time>2018-01-08T18:42:22Z</time>
      </trkpt>
      <trkpt lat="62.633318093806" lon="17.97248590561">
        <ele>78.6</ele>
        <time>2018-01-08T18:42:23Z</time>
      </trkpt>
      <trkpt lat="62.63330853844" lon="17.972540974693">
        <ele>78.6</ele>
        <time>2018-01-08T18:42:24Z</time>
      </trkpt>
      <trkpt lat="62.633298312522" lon="17.972597720156">
        <ele>78.8</ele>
        <time>2018-01-08T18:42:25Z</time>
      </trkpt>
      <trkpt lat="62.633289846803" lon="17.972647424823">
        <ele>78.8</ele>
        <time>2018-01-08T18:42:26Z</time>
      </trkpt>
      <trkpt lat="62.633281213446" lon="17.972698973508">
        <ele>78.8</ele>
        <time>2018-01-08T18:42:27Z</time>
      </trkpt>
      <trkpt lat="62.6332699817" lon="17.972758401179">
        <ele>78.8</ele>
        <time>2018-01-08T18:42:28Z</time>
      </trkpt>
      <trkpt lat="62.633259755782" lon="17.972812632072">
        <ele>78.8</ele>
        <time>2018-01-08T18:42:29Z</time>
      </trkpt>
      <trkpt lat="62.633247853484" lon="17.972869209897">
        <ele>78.8</ele>
        <time>2018-01-08T18:42:30Z</time>
      </trkpt>
      <trkpt lat="62.633238214299" lon="17.972921512953">
        <ele>79</ele>
        <time>2018-01-08T18:42:31Z</time>
      </trkpt>
      <trkpt lat="62.633227485467" lon="17.972976414398">
        <ele>79</ele>
        <time>2018-01-08T18:42:32Z</time>
      </trkpt>
      <trkpt lat="62.633216588997" lon="17.97302821454">
        <ele>79</ele>
        <time>2018-01-08T18:42:33Z</time>
      </trkpt>
      <trkpt lat="62.633206195441" lon="17.973085882012">
        <ele>79</ele>
        <time>2018-01-08T18:42:34Z</time>
      </trkpt>
      <trkpt lat="62.633199322283" lon="17.973137430697">
        <ele>79.2</ele>
        <time>2018-01-08T18:42:35Z</time>
      </trkpt>
      <trkpt lat="62.633190605107" lon="17.973187386821">
        <ele>79.2</ele>
        <time>2018-01-08T18:42:36Z</time>
      </trkpt>
      <trkpt lat="62.633180127732" lon="17.973244719017">
        <ele>79.2</ele>
        <time>2018-01-08T18:42:37Z</time>
      </trkpt>
      <trkpt lat="62.633169985633" lon="17.973295848607">
        <ele>79.4</ele>
        <time>2018-01-08T18:42:38Z</time>
      </trkpt>
      <trkpt lat="62.633159592077" lon="17.973348822215">
        <ele>79.4</ele>
        <time>2018-01-08T18:42:39Z</time>
      </trkpt>
      <trkpt lat="62.633149198521" lon="17.973406824963">
        <ele>79.6</ele>
        <time>2018-01-08T18:42:40Z</time>
      </trkpt>
      <trkpt lat="62.633138972603" lon="17.973457954553">
        <ele>79.8</ele>
        <time>2018-01-08T18:42:41Z</time>
      </trkpt>
      <trkpt lat="62.633128243771" lon="17.973512520722">
        <ele>79.8</ele>
        <time>2018-01-08T18:42:42Z</time>
      </trkpt>
      <trkpt lat="62.633116090016" lon="17.973566835434">
        <ele>80</ele>
        <time>2018-01-08T18:42:43Z</time>
      </trkpt>
      <trkpt lat="62.633102762795" lon="17.973620395775">
        <ele>80</ele>
        <time>2018-01-08T18:42:44Z</time>
      </trkpt>
      <trkpt lat="62.633092201601" lon="17.973670938632">
        <ele>80</ele>
        <time>2018-01-08T18:42:45Z</time>
      </trkpt>
      <trkpt lat="62.633081137493" lon="17.97372307405">
        <ele>80</ele>
        <time>2018-01-08T18:42:46Z</time>
      </trkpt>
      <trkpt lat="62.633068648462" lon="17.973779735694">
        <ele>80.2</ele>
        <time>2018-01-08T18:42:47Z</time>
      </trkpt>
      <trkpt lat="62.633056578526" lon="17.973833044578">
        <ele>80.2</ele>
        <time>2018-01-08T18:42:48Z</time>
      </trkpt>
      <trkpt lat="62.633043586581" lon="17.973886269643">
        <ele>80.2</ele>
        <time>2018-01-08T18:42:49Z</time>
      </trkpt>
      <trkpt lat="62.633030594636" lon="17.973935303758">
        <ele>80.4</ele>
        <time>2018-01-08T18:42:50Z</time>
      </trkpt>
      <trkpt lat="62.633019279071" lon="17.973980146923">
        <ele>80.4</ele>
        <time>2018-01-08T18:42:51Z</time>
      </trkpt>
      <trkpt lat="62.633005616574" lon="17.974039406956">
        <ele>80.6</ele>
        <time>2018-01-08T18:42:52Z</time>
      </trkpt>
      <trkpt lat="62.632992792267" lon="17.974095481867">
        <ele>80.6</ele>
        <time>2018-01-08T18:42:53Z</time>
      </trkpt>
      <trkpt lat="62.632981309064" lon="17.974149628941">
        <ele>80.8</ele>
        <time>2018-01-08T18:42:54Z</time>
      </trkpt>
      <trkpt lat="62.632966640739" lon="17.974204949481">
        <ele>80.8</ele>
        <time>2018-01-08T18:42:55Z</time>
      </trkpt>
      <trkpt lat="62.63295398407" lon="17.974257336356">
        <ele>80.8</ele>
        <time>2018-01-08T18:42:56Z</time>
      </trkpt>
      <trkpt lat="62.632941243582" lon="17.97431064524">
        <ele>81</ele>
        <time>2018-01-08T18:42:57Z</time>
      </trkpt>
      <trkpt lat="62.632924395963" lon="17.974371916929">
        <ele>81</ele>
        <time>2018-01-08T18:42:58Z</time>
      </trkpt>
      <trkpt lat="62.63290872181" lon="17.974422543605">
        <ele>81.2</ele>
        <time>2018-01-08T18:42:59Z</time>
      </trkpt>
      <trkpt lat="62.632891287458" lon="17.974466967675">
        <ele>81.2</ele>
        <time>2018-01-08T18:43:00Z</time>
      </trkpt>
      <trkpt lat="62.632871925269" lon="17.974502339293">
        <ele>81.2</ele>
        <time>2018-01-08T18:43:01Z</time>
      </trkpt>
      <trkpt lat="62.632842672438" lon="17.974529245192">
        <ele>81.2</ele>
        <time>2018-01-08T18:43:02Z</time>
      </trkpt>
      <trkpt lat="62.632815515082" lon="17.974537962368">
        <ele>81.4</ele>
        <time>2018-01-08T18:43:03Z</time>
      </trkpt>
      <trkpt lat="62.632784082957" lon="17.974533771418">
        <ele>81.4</ele>
        <time>2018-01-08T18:43:04Z</time>
      </trkpt>
      <trkpt lat="62.632758518162" lon="17.974520695654">
        <ele>81.4</ele>
        <time>2018-01-08T18:43:05Z</time>
      </trkpt>
      <trkpt lat="62.632735551756" lon="17.974504518587">
        <ele>81.4</ele>
        <time>2018-01-08T18:43:06Z</time>
      </trkpt>
      <trkpt lat="62.632709316409" lon="17.974485910769">
        <ele>81.4</ele>
        <time>2018-01-08T18:43:07Z</time>
      </trkpt>
      <trkpt lat="62.632683500157" lon="17.974469314607">
        <ele>81.4</ele>
        <time>2018-01-08T18:43:08Z</time>
      </trkpt>
      <trkpt lat="62.632660785208" lon="17.974449868599">
        <ele>81.4</ele>
        <time>2018-01-08T18:43:09Z</time>
      </trkpt>
      <trkpt lat="62.632636812974" lon="17.97442547727">
        <ele>81.4</ele>
        <time>2018-01-08T18:43:10Z</time>
      </trkpt>
      <trkpt lat="62.632616612595" lon="17.97440033157">
        <ele>81.2</ele>
        <time>2018-01-08T18:43:11Z</time>
      </trkpt>
      <trkpt lat="62.632593897646" lon="17.974371581653">
        <ele>81.4</ele>
        <time>2018-01-08T18:43:12Z</time>
      </trkpt>
      <trkpt lat="62.632569590136" lon="17.974350710722">
        <ele>81.4</ele>
        <time>2018-01-08T18:43:13Z</time>
      </trkpt>
      <trkpt lat="62.63254578554" lon="17.974324726832">
        <ele>81.2</ele>
        <time>2018-01-08T18:43:14Z</time>
      </trkpt>
      <trkpt lat="62.632521394211" lon="17.974298491485">
        <ele>81.4</ele>
        <time>2018-01-08T18:43:15Z</time>
      </trkpt>
      <trkpt lat="62.632496499968" lon="17.974274686889">
        <ele>81.4</ele>
        <time>2018-01-08T18:43:16Z</time>
      </trkpt>
      <trkpt lat="62.632470264621" lon="17.974250547017">
        <ele>81.2</ele>
        <time>2018-01-08T18:43:17Z</time>
      </trkpt>
      <trkpt lat="62.632445957111" lon="17.974230849552">
        <ele>81.4</ele>
        <time>2018-01-08T18:43:18Z</time>
      </trkpt>
      <trkpt lat="62.632421146687" lon="17.974211655001">
        <ele>81.2</ele>
        <time>2018-01-08T18:43:19Z</time>
      </trkpt>
      <trkpt lat="62.632394156969" lon="17.974190029699">
        <ele>81.4</ele>
        <time>2018-01-08T18:43:20Z</time>
      </trkpt>
      <trkpt lat="62.632371022925" lon="17.974166644198">
        <ele>81.2</ele>
        <time>2018-01-08T18:43:21Z</time>
      </trkpt>
      <trkpt lat="62.632344955216" lon="17.974140408851">
        <ele>81.2</ele>
        <time>2018-01-08T18:43:22Z</time>
      </trkpt>
      <trkpt lat="62.632317211127" lon="17.974120040834">
        <ele>81.2</ele>
        <time>2018-01-08T18:43:23Z</time>
      </trkpt>
      <trkpt lat="62.632292316884" lon="17.974100091912">
        <ele>81.2</ele>
        <time>2018-01-08T18:43:24Z</time>
      </trkpt>
      <trkpt lat="62.632265913899" lon="17.974076874049">
        <ele>81.2</ele>
        <time>2018-01-08T18:43:25Z</time>
      </trkpt>
      <trkpt lat="62.632239510914" lon="17.974048543227">
        <ele>81.4</ele>
        <time>2018-01-08T18:43:26Z</time>
      </trkpt>
      <trkpt lat="62.632213107929" lon="17.974018284568">
        <ele>81.2</ele>
        <time>2018-01-08T18:43:27Z</time>
      </trkpt>
      <trkpt lat="62.632182513994" lon="17.973987187719">
        <ele>81.2</ele>
        <time>2018-01-08T18:43:28Z</time>
      </trkpt>
      <trkpt lat="62.632154686086" lon="17.973958186345">
        <ele>81.2</ele>
        <time>2018-01-08T18:43:29Z</time>
      </trkpt>
      <trkpt lat="62.632127193454" lon="17.973930023161">
        <ele>81.2</ele>
        <time>2018-01-08T18:43:30Z</time>
      </trkpt>
      <trkpt lat="62.632103891772" lon="17.973902027615">
        <ele>81</ele>
        <time>2018-01-08T18:43:31Z</time>
      </trkpt>
      <trkpt lat="62.632078410796" lon="17.973868583834">
        <ele>81</ele>
        <time>2018-01-08T18:43:32Z</time>
      </trkpt>
      <trkpt lat="62.632056114942" lon="17.9738446116">
        <ele>81</ele>
        <time>2018-01-08T18:43:33Z</time>
      </trkpt>
      <trkpt lat="62.632029376681" lon="17.973817454244">
        <ele>81</ele>
        <time>2018-01-08T18:43:34Z</time>
      </trkpt>
      <trkpt lat="62.632004817714" lon="17.973785267748">
        <ele>81</ele>
        <time>2018-01-08T18:43:35Z</time>
      </trkpt>
      <trkpt lat="62.631982689498" lon="17.973753919442">
        <ele>80.8</ele>
        <time>2018-01-08T18:43:36Z</time>
      </trkpt>
      <trkpt lat="62.631957292341" lon="17.97371972129">
        <ele>80.8</ele>
        <time>2018-01-08T18:43:37Z</time>
      </trkpt>
      <trkpt lat="62.631931476089" lon="17.973687199518">
        <ele>80.8</ele>
        <time>2018-01-08T18:43:38Z</time>
      </trkpt>
      <trkpt lat="62.631906498027" lon="17.973658114325">
        <ele>80.6</ele>
        <time>2018-01-08T18:43:39Z</time>
      </trkpt>
      <trkpt lat="62.631879759766" lon="17.973629280589">
        <ele>80.6</ele>
        <time>2018-01-08T18:43:40Z</time>
      </trkpt>
      <trkpt lat="62.63185511698" lon="17.973603799613">
        <ele>80.6</ele>
        <time>2018-01-08T18:43:41Z</time>
      </trkpt>
      <trkpt lat="62.63182913309" lon="17.973579659741">
        <ele>80.6</ele>
        <time>2018-01-08T18:43:42Z</time>
      </trkpt>
      <trkpt lat="62.63180147282" lon="17.973551161281">
        <ele>80.4</ele>
        <time>2018-01-08T18:43:43Z</time>
      </trkpt>
      <trkpt lat="62.631776830034" lon="17.973516460215">
        <ele>80.6</ele>
        <time>2018-01-08T18:43:44Z</time>
      </trkpt>
      <trkpt lat="62.63175621056" lon="17.973484692814">
        <ele>80.6</ele>
        <time>2018-01-08T18:43:45Z</time>
      </trkpt>
      <trkpt lat="62.631731148679" lon="17.973447058083">
        <ele>80.6</ele>
        <time>2018-01-08T18:43:46Z</time>
      </trkpt>
      <trkpt lat="62.631703991323" lon="17.973406824963">
        <ele>80.8</ele>
        <time>2018-01-08T18:43:47Z</time>
      </trkpt>
      <trkpt lat="62.631680354365" lon="17.973373716458">
        <ele>80.8</ele>
        <time>2018-01-08T18:43:48Z</time>
      </trkpt>
      <trkpt lat="62.631656968864" lon="17.973338261021">
        <ele>80.8</ele>
        <time>2018-01-08T18:43:49Z</time>
      </trkpt>
      <trkpt lat="62.631634337734" lon="17.973298446996">
        <ele>80.8</ele>
        <time>2018-01-08T18:43:50Z</time>
      </trkpt>
      <trkpt lat="62.631616400468" lon="17.973265925224">
        <ele>80.8</ele>
        <time>2018-01-08T18:43:51Z</time>
      </trkpt>
      <trkpt lat="62.6315936017" lon="17.97322267462">
        <ele>80.8</ele>
        <time>2018-01-08T18:43:52Z</time>
      </trkpt>
      <trkpt lat="62.631571976398" lon="17.973180848939">
        <ele>80.6</ele>
        <time>2018-01-08T18:43:53Z</time>
      </trkpt>
      <trkpt lat="62.631552278933" lon="17.973138520344">
        <ele>80.6</ele>
        <time>2018-01-08T18:43:54Z</time>
      </trkpt>
      <trkpt lat="62.631531994735" lon="17.973094683007">
        <ele>80.6</ele>
        <time>2018-01-08T18:43:55Z</time>
      </trkpt>
      <trkpt lat="62.631512045813" lon="17.973050761851">
        <ele>80.4</ele>
        <time>2018-01-08T18:43:56Z</time>
      </trkpt>
      <trkpt lat="62.631493186538" lon="17.973005415772">
        <ele>80.4</ele>
        <time>2018-01-08T18:43:57Z</time>
      </trkpt>
      <trkpt lat="62.631470220132" lon="17.972951436336">
        <ele>80.2</ele>
        <time>2018-01-08T18:43:58Z</time>
      </trkpt>
      <trkpt lat="62.631447169907" lon="17.972897037805">
        <ele>80</ele>
        <time>2018-01-08T18:43:59Z</time>
      </trkpt>
      <trkpt lat="62.631426047519" lon="17.972844064197">
        <ele>79.8</ele>
        <time>2018-01-08T18:44:00Z</time>
      </trkpt>
      <trkpt lat="62.631407272063" lon="17.972792934607">
        <ele>79.6</ele>
        <time>2018-01-08T18:44:01Z</time>
      </trkpt>
      <trkpt lat="62.631386065856" lon="17.972735267135">
        <ele>79.4</ele>
        <time>2018-01-08T18:44:02Z</time>
      </trkpt>
      <trkpt lat="62.631367793314" lon="17.972684891916">
        <ele>78.8</ele>
        <time>2018-01-08T18:44:03Z</time>
      </trkpt>
      <trkpt lat="62.631346000374" lon="17.97262588334">
        <ele>78.4</ele>
        <time>2018-01-08T18:44:04Z</time>
      </trkpt>
      <trkpt lat="62.6313253809" lon="17.972564276375">
        <ele>78.2</ele>
        <time>2018-01-08T18:44:05Z</time>
      </trkpt>
      <trkpt lat="62.631307527453" lon="17.972507530912">
        <ele>78</ele>
        <time>2018-01-08T18:44:06Z</time>
      </trkpt>
      <trkpt lat="62.631285063961" lon="17.972441230083">
        <ele>77.6</ele>
        <time>2018-01-08T18:44:07Z</time>
      </trkpt>
      <trkpt lat="62.631263690116" lon="17.972386244819">
        <ele>77.6</ele>
        <time>2018-01-08T18:44:08Z</time>
      </trkpt>
      <trkpt lat="62.63124240009" lon="17.972330505184">
        <ele>77.4</ele>
        <time>2018-01-08T18:44:09Z</time>
      </trkpt>
      <trkpt lat="62.631221026245" lon="17.972263114708">
        <ele>77.4</ele>
        <time>2018-01-08T18:44:10Z</time>
      </trkpt>
      <trkpt lat="62.631203256617" lon="17.972204189951">
        <ele>77.4</ele>
        <time>2018-01-08T18:44:11Z</time>
      </trkpt>
      <trkpt lat="62.631185989903" lon="17.972141996253">
        <ele>77.4</ele>
        <time>2018-01-08T18:44:12Z</time>
      </trkpt>
      <trkpt lat="62.63116863937" lon="17.972077120347">
        <ele>77.4</ele>
        <time>2018-01-08T18:44:13Z</time>
      </trkpt>
      <trkpt lat="62.631152546122" lon="17.972017441219">
        <ele>77.2</ele>
        <time>2018-01-08T18:44:14Z</time>
      </trkpt>
      <trkpt lat="62.63113678815" lon="17.97195449315">
        <ele>77.2</ele>
        <time>2018-01-08T18:44:15Z</time>
      </trkpt>
      <trkpt lat="62.631120275807" lon="17.971890036339">
        <ele>77.2</ele>
        <time>2018-01-08T18:44:16Z</time>
      </trkpt>
      <trkpt lat="62.63110158417" lon="17.971821891492">
        <ele>76.8</ele>
        <time>2018-01-08T18:44:17Z</time>
      </trkpt>
      <trkpt lat="62.631085490922" lon="17.971751232075">
        <ele>76.6</ele>
        <time>2018-01-08T18:44:18Z</time>
      </trkpt>
      <trkpt lat="62.631070906416" lon="17.971685098884">
        <ele>76.6</ele>
        <time>2018-01-08T18:44:19Z</time>
      </trkpt>
      <trkpt lat="62.63105632191" lon="17.971621228806">
        <ele>76.4</ele>
        <time>2018-01-08T18:44:20Z</time>
      </trkpt>
      <trkpt lat="62.631042324137" lon="17.97155802928">
        <ele>76.2</ele>
        <time>2018-01-08T18:44:21Z</time>
      </trkpt>
      <trkpt lat="62.631028326364" lon="17.971484520017">
        <ele>76</ele>
        <time>2018-01-08T18:44:22Z</time>
      </trkpt>
      <trkpt lat="62.63101441241" lon="17.971416458989">
        <ele>75.8</ele>
        <time>2018-01-08T18:44:23Z</time>
      </trkpt>
      <trkpt lat="62.631001588103" lon="17.971346721581">
        <ele>75.6</ele>
        <time>2018-01-08T18:44:24Z</time>
      </trkpt>
      <trkpt lat="62.630988931434" lon="17.971277487087">
        <ele>75.4</ele>
        <time>2018-01-08T18:44:25Z</time>
      </trkpt>
      <trkpt lat="62.630978454059" lon="17.971212778819">
        <ele>75</ele>
        <time>2018-01-08T18:44:26Z</time>
      </trkpt>
      <trkpt lat="62.630968982512" lon="17.971150166026">
        <ele>75</ele>
        <time>2018-01-08T18:44:27Z</time>
      </trkpt>
      <trkpt lat="62.630959175689" lon="17.97107355546">
        <ele>75</ele>
        <time>2018-01-08T18:44:28Z</time>
      </trkpt>
      <trkpt lat="62.630949955599" lon="17.971006835536">
        <ele>74.8</ele>
        <time>2018-01-08T18:44:29Z</time>
      </trkpt>
      <trkpt lat="62.630940735509" lon="17.970939528879">
        <ele>74.6</ele>
        <time>2018-01-08T18:44:30Z</time>
      </trkpt>
      <trkpt lat="62.630932772704" lon="17.970869540014">
        <ele>74.6</ele>
        <time>2018-01-08T18:44:31Z</time>
      </trkpt>
      <trkpt lat="62.630923552614" lon="17.970792175077">
        <ele>74.6</ele>
        <time>2018-01-08T18:44:32Z</time>
      </trkpt>
      <trkpt lat="62.630915003076" lon="17.970721348022">
        <ele>74.4</ele>
        <time>2018-01-08T18:44:33Z</time>
      </trkpt>
      <trkpt lat="62.630905363891" lon="17.970647503483">
        <ele>74.2</ele>
        <time>2018-01-08T18:44:34Z</time>
      </trkpt>
      <trkpt lat="62.630896143801" lon="17.970579526274">
        <ele>74</ele>
        <time>2018-01-08T18:44:35Z</time>
      </trkpt>
      <trkpt lat="62.630889270643" lon="17.970514231273">
        <ele>74</ele>
        <time>2018-01-08T18:44:36Z</time>
      </trkpt>
      <trkpt lat="62.630883235675" lon="17.970437872164">
        <ele>73.8</ele>
        <time>2018-01-08T18:44:37Z</time>
      </trkpt>
      <trkpt lat="62.630876697793" lon="17.970317927175">
        <ele>73.6</ele>
        <time>2018-01-08T18:44:39Z</time>
      </trkpt>
      <trkpt lat="62.630873093576" lon="17.970266797585">
        <ele>73.6</ele>
        <time>2018-01-08T18:44:40Z</time>
      </trkpt>
      <trkpt lat="62.630872339205" lon="17.970232683252">
        <ele>73.4</ele>
        <time>2018-01-08T18:44:41Z</time>
      </trkpt>
      <trkpt lat="62.63087359649" lon="17.970198317462">
        <ele>73.4</ele>
        <time>2018-01-08T18:44:42Z</time>
      </trkpt>
      <trkpt lat="62.630877033069" lon="17.970168729355">
        <ele>73.2</ele>
        <time>2018-01-08T18:44:43Z</time>
      </trkpt>
      <trkpt lat="62.630884241503" lon="17.970148864252">
        <ele>73</ele>
        <time>2018-01-08T18:44:44Z</time>
      </trkpt>
      <trkpt lat="62.630893545412" lon="17.970142577827">
        <ele>72.8</ele>
        <time>2018-01-08T18:44:45Z</time>
      </trkpt>
      <trkpt lat="62.630903603692" lon="17.970145008578">
        <ele>72.8</ele>
        <time>2018-01-08T18:44:46Z</time>
      </trkpt>
      <trkpt lat="62.630911063583" lon="17.970150875908">
        <ele>72.8</ele>
        <time>2018-01-08T18:44:47Z</time>
      </trkpt>
      <trkpt lat="62.630915925085" lon="17.970159760722">
        <ele>72.8</ele>
        <time>2018-01-08T18:44:48Z</time>
      </trkpt>
      <trkpt lat="62.630919864578" lon="17.970169902821">
        <ele>72.8</ele>
        <time>2018-01-08T18:44:49Z</time>
      </trkpt>
      <trkpt lat="62.63092053513" lon="17.970169399907">
        <ele>72.8</ele>
        <time>2018-01-08T18:44:50Z</time>
      </trkpt>
      <trkpt lat="62.630916679456" lon="17.970173590857">
        <ele>72.8</ele>
        <time>2018-01-08T18:44:51Z</time>
      </trkpt>
      <trkpt lat="62.631084317456" lon="17.970009808531">
        <ele>72.2</ele>
        <time>2018-01-08T18:47:04Z</time>
      </trkpt>
      <trkpt lat="62.631106026577" lon="17.970001007536">
        <ele>72.2</ele>
        <time>2018-01-08T18:47:05Z</time>
      </trkpt>
      <trkpt lat="62.631124718214" lon="17.969991871265">
        <ele>72.2</ele>
        <time>2018-01-08T18:47:06Z</time>
      </trkpt>
      <trkpt lat="62.631144667136" lon="17.969982902632">
        <ele>72.2</ele>
        <time>2018-01-08T18:47:07Z</time>
      </trkpt>
      <trkpt lat="62.631164783696" lon="17.969973263447">
        <ele>72</ele>
        <time>2018-01-08T18:47:08Z</time>
      </trkpt>
      <trkpt lat="62.63118205041" lon="17.969964713909">
        <ele>71.8</ele>
        <time>2018-01-08T18:47:09Z</time>
      </trkpt>
      <trkpt lat="62.631199903857" lon="17.96995457181">
        <ele>71.8</ele>
        <time>2018-01-08T18:47:10Z</time>
      </trkpt>
      <trkpt lat="62.631215829467" lon="17.969949039756">
        <ele>71.6</ele>
        <time>2018-01-08T18:47:11Z</time>
      </trkpt>
      <trkpt lat="62.631234102009" lon="17.96994283715">
        <ele>71.6</ele>
        <time>2018-01-08T18:47:12Z</time>
      </trkpt>
      <trkpt lat="62.631252374551" lon="17.969939065295">
        <ele>71.4</ele>
        <time>2018-01-08T18:47:13Z</time>
      </trkpt>
      <trkpt lat="62.631270814731" lon="17.969934119974">
        <ele>71.4</ele>
        <time>2018-01-08T18:47:14Z</time>
      </trkpt>
      <trkpt lat="62.631288668178" lon="17.969924899884">
        <ele>71.4</ele>
        <time>2018-01-08T18:47:15Z</time>
      </trkpt>
      <trkpt lat="62.631308198005" lon="17.969916350346">
        <ele>71.2</ele>
        <time>2018-01-08T18:47:16Z</time>
      </trkpt>
      <trkpt lat="62.631329236574" lon="17.969907549351">
        <ele>71.2</ele>
        <time>2018-01-08T18:47:17Z</time>
      </trkpt>
      <trkpt lat="62.63134801203" lon="17.969897071976">
        <ele>71.4</ele>
        <time>2018-01-08T18:47:18Z</time>
      </trkpt>
      <trkpt lat="62.631367793314" lon="17.969890450275">
        <ele>71.2</ele>
        <time>2018-01-08T18:47:19Z</time>
      </trkpt>
      <trkpt lat="62.631387742236" lon="17.969881481642">
        <ele>71.2</ele>
        <time>2018-01-08T18:47:20Z</time>
      </trkpt>
      <trkpt lat="62.631405344226" lon="17.96986991462">
        <ele>71</ele>
        <time>2018-01-08T18:47:21Z</time>
      </trkpt>
      <trkpt lat="62.631428897365" lon="17.969854743381">
        <ele>71</ele>
        <time>2018-01-08T18:47:22Z</time>
      </trkpt>
      <trkpt lat="62.631451528495" lon="17.969833704812">
        <ele>71</ele>
        <time>2018-01-08T18:47:23Z</time>
      </trkpt>
      <trkpt lat="62.631474494901" lon="17.969815180813">
        <ele>70.8</ele>
        <time>2018-01-08T18:47:24Z</time>
      </trkpt>
      <trkpt lat="62.631498718592" lon="17.969799422841">
        <ele>70.8</ele>
        <time>2018-01-08T18:47:25Z</time>
      </trkpt>
      <trkpt lat="62.631521433541" lon="17.969783329593">
        <ele>70.8</ele>
        <time>2018-01-08T18:47:26Z</time>
      </trkpt>
      <trkpt lat="62.63154582487" lon="17.969772014028">
        <ele>70.8</ele>
        <time>2018-01-08T18:47:27Z</time>
      </trkpt>
      <trkpt lat="62.631569713285" lon="17.969756423694">
        <ele>70.8</ele>
        <time>2018-01-08T18:47:28Z</time>
      </trkpt>
      <trkpt lat="62.631591422406" lon="17.969738821704">
        <ele>70.8</ele>
        <time>2018-01-08T18:47:29Z</time>
      </trkpt>
      <trkpt lat="62.631613047708" lon="17.969724153379">
        <ele>70.8</ele>
        <time>2018-01-08T18:47:30Z</time>
      </trkpt>
      <trkpt lat="62.631632074621" lon="17.969708563045">
        <ele>70.6</ele>
        <time>2018-01-08T18:47:31Z</time>
      </trkpt>
      <trkpt lat="62.631654035199" lon="17.969689284675">
        <ele>70.6</ele>
        <time>2018-01-08T18:47:32Z</time>
      </trkpt>
      <trkpt lat="62.631674403216" lon="17.969669084296">
        <ele>70.4</ele>
        <time>2018-01-08T18:47:33Z</time>
      </trkpt>
      <trkpt lat="62.631693178672" lon="17.969645363519">
        <ele>70.4</ele>
        <time>2018-01-08T18:47:34Z</time>
      </trkpt>
      <trkpt lat="62.631713127594" lon="17.969618709077">
        <ele>70.2</ele>
        <time>2018-01-08T18:47:35Z</time>
      </trkpt>
      <trkpt lat="62.631731651593" lon="17.969591048807">
        <ele>70.2</ele>
        <time>2018-01-08T18:47:36Z</time>
      </trkpt>
      <trkpt lat="62.6317528578" lon="17.969561293062">
        <ele>70</ele>
        <time>2018-01-08T18:47:37Z</time>
      </trkpt>
      <trkpt lat="62.631775991844" lon="17.969538242837">
        <ele>69.8</ele>
        <time>2018-01-08T18:47:38Z</time>
      </trkpt>
      <trkpt lat="62.631795437852" lon="17.969521898132">
        <ele>69.6</ele>
        <time>2018-01-08T18:47:39Z</time>
      </trkpt>
      <trkpt lat="62.631821337923" lon="17.969514773517">
        <ele>69.4</ele>
        <time>2018-01-08T18:47:40Z</time>
      </trkpt>
      <trkpt lat="62.631843801415" lon="17.969517958639">
        <ele>69.4</ele>
        <time>2018-01-08T18:47:41Z</time>
      </trkpt>
      <trkpt lat="62.631867606011" lon="17.969523825969">
        <ele>69.2</ele>
        <time>2018-01-08T18:47:42Z</time>
      </trkpt>
      <trkpt lat="62.63189032096" lon="17.969528184557">
        <ele>69.2</ele>
        <time>2018-01-08T18:47:43Z</time>
      </trkpt>
      <trkpt lat="62.631912532995" lon="17.969529190385">
        <ele>69.2</ele>
        <time>2018-01-08T18:47:44Z</time>
      </trkpt>
      <trkpt lat="62.631935499401" lon="17.969523071598">
        <ele>69.4</ele>
        <time>2018-01-08T18:47:45Z</time>
      </trkpt>
      <trkpt lat="62.631961064196" lon="17.969516030802">
        <ele>69.6</ele>
        <time>2018-01-08T18:47:46Z</time>
      </trkpt>
      <trkpt lat="62.631985371706" lon="17.969509912015">
        <ele>69.8</ele>
        <time>2018-01-08T18:47:47Z</time>
      </trkpt>
      <trkpt lat="62.632009679216" lon="17.969507397445">
        <ele>70</ele>
        <time>2018-01-08T18:47:48Z</time>
      </trkpt>
      <trkpt lat="62.632034405821" lon="17.969506894531">
        <ele>70</ele>
        <time>2018-01-08T18:47:49Z</time>
      </trkpt>
      <trkpt lat="62.632056785494" lon="17.969503709409">
        <ele>70</ele>
        <time>2018-01-08T18:47:50Z</time>
      </trkpt>
      <trkpt lat="62.632076315321" lon="17.969494154043">
        <ele>70</ele>
        <time>2018-01-08T18:47:51Z</time>
      </trkpt>
      <trkpt lat="62.632102550668" lon="17.9694860236">
        <ele>70</ele>
        <time>2018-01-08T18:47:52Z</time>
      </trkpt>
      <trkpt lat="62.632126271445" lon="17.969478731347">
        <ele>70.2</ele>
        <time>2018-01-08T18:47:53Z</time>
      </trkpt>
      <trkpt lat="62.632149405489" lon="17.969467164325">
        <ele>70.2</ele>
        <time>2018-01-08T18:47:54Z</time>
      </trkpt>
      <trkpt lat="62.632176059931" lon="17.969457608959">
        <ele>70.2</ele>
        <time>2018-01-08T18:47:55Z</time>
      </trkpt>
      <trkpt lat="62.63219961307" lon="17.969451238715">
        <ele>70.2</ele>
        <time>2018-01-08T18:47:56Z</time>
      </trkpt>
      <trkpt lat="62.632226518969" lon="17.969447047765">
        <ele>70.2</ele>
        <time>2018-01-08T18:47:57Z</time>
      </trkpt>
      <trkpt lat="62.63225158085" lon="17.969441850987">
        <ele>70.2</ele>
        <time>2018-01-08T18:47:58Z</time>
      </trkpt>
      <trkpt lat="62.632275133989" lon="17.969435648381">
        <ele>70.2</ele>
        <time>2018-01-08T18:47:59Z</time>
      </trkpt>
      <trkpt lat="62.632299860594" lon="17.969431457431">
        <ele>70.2</ele>
        <time>2018-01-08T18:48:00Z</time>
      </trkpt>
      <trkpt lat="62.632322910819" lon="17.969428272309">
        <ele>70</ele>
        <time>2018-01-08T18:48:01Z</time>
      </trkpt>
      <trkpt lat="62.632347637424" lon="17.969425841558">
        <ele>70</ele>
        <time>2018-01-08T18:48:02Z</time>
      </trkpt>
      <trkpt lat="62.632370520011" lon="17.969426093015">
        <ele>70</ele>
        <time>2018-01-08T18:48:03Z</time>
      </trkpt>
      <trkpt lat="62.632396252444" lon="17.96942651211">
        <ele>70</ele>
        <time>2018-01-08T18:48:04Z</time>
      </trkpt>
      <trkpt lat="62.632419805583" lon="17.969426428291">
        <ele>70</ele>
        <time>2018-01-08T18:48:05Z</time>
      </trkpt>
      <trkpt lat="62.632445538016" lon="17.969428859042">
        <ele>70</ele>
        <time>2018-01-08T18:48:06Z</time>
      </trkpt>
      <trkpt lat="62.632471689544" lon="17.969429110499">
        <ele>70</ele>
        <time>2018-01-08T18:48:07Z</time>
      </trkpt>
      <trkpt lat="62.632496164692" lon="17.969430367784">
        <ele>70</ele>
        <time>2018-01-08T18:48:08Z</time>
      </trkpt>
      <trkpt lat="62.632518376727" lon="17.96943154125">
        <ele>69.8</ele>
        <time>2018-01-08T18:48:09Z</time>
      </trkpt>
      <trkpt lat="62.632546791368" lon="17.969433049992">
        <ele>70</ele>
        <time>2018-01-08T18:48:10Z</time>
      </trkpt>
      <trkpt lat="62.632571266516" lon="17.969435061648">
        <ele>70</ele>
        <time>2018-01-08T18:48:11Z</time>
      </trkpt>
      <trkpt lat="62.632597585682" lon="17.969438414408">
        <ele>70</ele>
        <time>2018-01-08T18:48:12Z</time>
      </trkpt>
      <trkpt lat="62.632621138821" lon="17.969441180435">
        <ele>70</ele>
        <time>2018-01-08T18:48:13Z</time>
      </trkpt>
      <trkpt lat="62.632645949245" lon="17.969446125756">
        <ele>70.2</ele>
        <time>2018-01-08T18:48:14Z</time>
      </trkpt>
      <trkpt lat="62.632668245099" lon="17.969452328362">
        <ele>70.2</ele>
        <time>2018-01-08T18:48:15Z</time>
      </trkpt>
      <trkpt lat="62.632691295324" lon="17.969460458805">
        <ele>70.2</ele>
        <time>2018-01-08T18:48:16Z</time>
      </trkpt>
      <trkpt lat="62.632719458508" lon="17.969466493773">
        <ele>70.4</ele>
        <time>2018-01-08T18:48:17Z</time>
      </trkpt>
      <trkpt lat="62.632743095466" lon="17.969471355275">
        <ele>70.4</ele>
        <time>2018-01-08T18:48:18Z</time>
      </trkpt>
      <trkpt lat="62.632766564786" lon="17.969476384415">
        <ele>70.4</ele>
        <time>2018-01-08T18:48:19Z</time>
      </trkpt>
      <trkpt lat="62.632791291391" lon="17.969482084107">
        <ele>70.4</ele>
        <time>2018-01-08T18:48:20Z</time>
      </trkpt>
      <trkpt lat="62.632810318304" lon="17.969486107419">
        <ele>70.4</ele>
        <time>2018-01-08T18:48:21Z</time>
      </trkpt>
      <trkpt lat="62.632836218375" lon="17.96949272912">
        <ele>70.4</ele>
        <time>2018-01-08T18:48:22Z</time>
      </trkpt>
      <trkpt lat="62.632861028799" lon="17.969499518459">
        <ele>70.4</ele>
        <time>2018-01-08T18:48:23Z</time>
      </trkpt>
      <trkpt lat="62.632883911386" lon="17.969503709409">
        <ele>70.6</ele>
        <time>2018-01-08T18:48:24Z</time>
      </trkpt>
      <trkpt lat="62.632910146733" lon="17.969508906187">
        <ele>70.6</ele>
        <time>2018-01-08T18:48:25Z</time>
      </trkpt>
      <trkpt lat="62.632932945501" lon="17.969515946983">
        <ele>70.6</ele>
        <time>2018-01-08T18:48:26Z</time>
      </trkpt>
      <trkpt lat="62.632955911907" lon="17.969522820141">
        <ele>70.8</ele>
        <time>2018-01-08T18:48:27Z</time>
      </trkpt>
      <trkpt lat="62.632982314892" lon="17.969529022747">
        <ele>70.8</ele>
        <time>2018-01-08T18:48:28Z</time>
      </trkpt>
      <trkpt lat="62.633006706221" lon="17.96953799138">
        <ele>71</ele>
        <time>2018-01-08T18:48:29Z</time>
      </trkpt>
      <trkpt lat="62.633027996247" lon="17.969545283633">
        <ele>71</ele>
        <time>2018-01-08T18:48:30Z</time>
      </trkpt>
      <trkpt lat="62.633047777531" lon="17.96954972604">
        <ele>71</ele>
        <time>2018-01-08T18:48:31Z</time>
      </trkpt>
      <trkpt lat="62.633073258507" lon="17.969555425732">
        <ele>71.2</ele>
        <time>2018-01-08T18:48:32Z</time>
      </trkpt>
      <trkpt lat="62.633094548533" lon="17.969559365225">
        <ele>71.2</ele>
        <time>2018-01-08T18:48:33Z</time>
      </trkpt>
      <trkpt lat="62.633119023681" lon="17.969565232555">
        <ele>71.2</ele>
        <time>2018-01-08T18:48:34Z</time>
      </trkpt>
      <trkpt lat="62.633142073906" lon="17.969568920591">
        <ele>71.2</ele>
        <time>2018-01-08T18:48:35Z</time>
      </trkpt>
      <trkpt lat="62.633165124131" lon="17.969569674962">
        <ele>71.2</ele>
        <time>2018-01-08T18:48:36Z</time>
      </trkpt>
      <trkpt lat="62.633190856564" lon="17.969572524808">
        <ele>71.2</ele>
        <time>2018-01-08T18:48:37Z</time>
      </trkpt>
      <trkpt lat="62.633212817142" lon="17.969574201188">
        <ele>71.2</ele>
        <time>2018-01-08T18:48:38Z</time>
      </trkpt>
      <trkpt lat="62.633232682245" lon="17.969573362998">
        <ele>71</ele>
        <time>2018-01-08T18:48:39Z</time>
      </trkpt>
      <trkpt lat="62.633257576488" lon="17.969567495668">
        <ele>71.2</ele>
        <time>2018-01-08T18:48:40Z</time>
      </trkpt>
      <trkpt lat="62.633278195962" lon="17.969559029949">
        <ele>71.2</ele>
        <time>2018-01-08T18:48:41Z</time>
      </trkpt>
      <trkpt lat="62.633301330006" lon="17.969542936701">
        <ele>71</ele>
        <time>2018-01-08T18:48:42Z</time>
      </trkpt>
      <trkpt lat="62.633320943652" lon="17.969519635019">
        <ele>71</ele>
        <time>2018-01-08T18:48:43Z</time>
      </trkpt>
      <trkpt lat="62.633334354692" lon="17.969484933953">
        <ele>71</ele>
        <time>2018-01-08T18:48:44Z</time>
      </trkpt>
      <trkpt lat="62.633342736592" lon="17.969441096616">
        <ele>71</ele>
        <time>2018-01-08T18:48:45Z</time>
      </trkpt>
      <trkpt lat="62.633347178999" lon="17.969394157976">
        <ele>71</ele>
        <time>2018-01-08T18:48:46Z</time>
      </trkpt>
      <trkpt lat="62.633351872863" lon="17.969339507988">
        <ele>71</ele>
        <time>2018-01-08T18:48:47Z</time>
      </trkpt>
      <trkpt lat="62.633356902003" lon="17.969291312063">
        <ele>71.2</ele>
        <time>2018-01-08T18:48:48Z</time>
      </trkpt>
      <trkpt lat="62.633361595867" lon="17.969239763378">
        <ele>71.2</ele>
        <time>2018-01-08T18:48:49Z</time>
      </trkpt>
      <trkpt lat="62.633364613351" lon="17.969187041227">
        <ele>71.4</ele>
        <time>2018-01-08T18:48:50Z</time>
      </trkpt>
      <trkpt lat="62.63336804993" lon="17.969139515854">
        <ele>71.4</ele>
        <time>2018-01-08T18:48:51Z</time>
      </trkpt>
      <trkpt lat="62.633373833441" lon="17.969077405975">
        <ele>71.2</ele>
        <time>2018-01-08T18:48:52Z</time>
      </trkpt>
      <trkpt lat="62.633378024391" lon="17.969026192566">
        <ele>71</ele>
        <time>2018-01-08T18:48:53Z</time>
      </trkpt>
      <trkpt lat="62.633383891721" lon="17.968972548406">
        <ele>70.8</ele>
        <time>2018-01-08T18:48:54Z</time>
      </trkpt>
      <trkpt lat="62.633389339956" lon="17.968921502635">
        <ele>70.6</ele>
        <time>2018-01-08T18:48:55Z</time>
      </trkpt>
      <trkpt lat="62.633393698544" lon="17.968875150728">
        <ele>70.4</ele>
        <time>2018-01-08T18:48:56Z</time>
      </trkpt>
      <trkpt lat="62.633399817331" lon="17.968822596215">
        <ele>70.4</ele>
        <time>2018-01-08T18:48:57Z</time>
      </trkpt>
      <trkpt lat="62.633406774308" lon="17.968764844924">
        <ele>70.2</ele>
        <time>2018-01-08T18:48:58Z</time>
      </trkpt>
      <trkpt lat="62.633411803448" lon="17.968712709506">
        <ele>70.2</ele>
        <time>2018-01-08T18:48:59Z</time>
      </trkpt>
      <trkpt lat="62.633418508968" lon="17.968660490269">
        <ele>70</ele>
        <time>2018-01-08T18:49:00Z</time>
      </trkpt>
      <trkpt lat="62.63342420866" lon="17.968614641276">
        <ele>69.8</ele>
        <time>2018-01-08T18:49:01Z</time>
      </trkpt>
      <trkpt lat="62.633431165637" lon="17.968559488374">
        <ele>69.8</ele>
        <time>2018-01-08T18:49:02Z</time>
      </trkpt>
      <trkpt lat="62.6334376197" lon="17.968511292449">
        <ele>69.6</ele>
        <time>2018-01-08T18:49:03Z</time>
      </trkpt>
      <trkpt lat="62.633445498686" lon="17.968451445683">
        <ele>69.4</ele>
        <time>2018-01-08T18:49:04Z</time>
      </trkpt>
      <trkpt lat="62.633452790939" lon="17.968399058808">
        <ele>69.4</ele>
        <time>2018-01-08T18:49:05Z</time>
      </trkpt>
      <trkpt lat="62.633459077364" lon="17.968345749924">
        <ele>69.2</ele>
        <time>2018-01-08T18:49:06Z</time>
      </trkpt>
      <trkpt lat="62.633466285798" lon="17.968284226778">
        <ele>69</ele>
        <time>2018-01-08T18:49:07Z</time>
      </trkpt>
      <trkpt lat="62.633472656042" lon="17.968232594274">
        <ele>69</ele>
        <time>2018-01-08T18:49:08Z</time>
      </trkpt>
      <trkpt lat="62.63347869101" lon="17.968184230711">
        <ele>68.8</ele>
        <time>2018-01-08T18:49:09Z</time>
      </trkpt>
      <trkpt lat="62.633486653815" lon="17.968126563239">
        <ele>68.6</ele>
        <time>2018-01-08T18:49:10Z</time>
      </trkpt>
      <trkpt lat="62.633492772602" lon="17.968076774753">
        <ele>68.4</ele>
        <time>2018-01-08T18:49:11Z</time>
      </trkpt>
      <trkpt lat="62.633500735407" lon="17.968017933815">
        <ele>68</ele>
        <time>2018-01-08T18:49:12Z</time>
      </trkpt>
      <trkpt lat="62.633509201126" lon="17.96796303237">
        <ele>67.8</ele>
        <time>2018-01-08T18:49:13Z</time>
      </trkpt>
      <trkpt lat="62.633516325741" lon="17.967911735142">
        <ele>67.4</ele>
        <time>2018-01-08T18:49:14Z</time>
      </trkpt>
      <trkpt lat="62.633522444528" lon="17.967863036303">
        <ele>67.2</ele>
        <time>2018-01-08T18:49:15Z</time>
      </trkpt>
      <trkpt lat="62.633528647134" lon="17.967813163998">
        <ele>67</ele>
        <time>2018-01-08T18:49:16Z</time>
      </trkpt>
      <trkpt lat="62.63353568793" lon="17.96775432306">
        <ele>67</ele>
        <time>2018-01-08T18:49:17Z</time>
      </trkpt>
      <trkpt lat="62.633542561088" lon="17.967701181814">
        <ele>66.6</ele>
        <time>2018-01-08T18:49:18Z</time>
      </trkpt>
      <trkpt lat="62.633549518065" lon="17.967646531826">
        <ele>66.4</ele>
        <time>2018-01-08T18:49:19Z</time>
      </trkpt>
      <trkpt lat="62.633556139766" lon="17.967592720028">
        <ele>66.2</ele>
        <time>2018-01-08T18:49:20Z</time>
      </trkpt>
      <trkpt lat="62.633564018752" lon="17.967547625406">
        <ele>66.2</ele>
        <time>2018-01-08T18:49:21Z</time>
      </trkpt>
      <trkpt lat="62.633576088688" lon="17.967483420052">
        <ele>65.8</ele>
        <time>2018-01-08T18:49:22Z</time>
      </trkpt>
      <trkpt lat="62.633585727873" lon="17.967432709557">
        <ele>65.8</ele>
        <time>2018-01-08T18:49:23Z</time>
      </trkpt>
      <trkpt lat="62.633594612687" lon="17.967376215551">
        <ele>65.6</ele>
        <time>2018-01-08T18:49:24Z</time>
      </trkpt>
      <trkpt lat="62.633605090062" lon="17.967321314106">
        <ele>65.4</ele>
        <time>2018-01-08T18:49:25Z</time>
      </trkpt>
      <trkpt lat="62.633613220505" lon="17.967273369638">
        <ele>65.2</ele>
        <time>2018-01-08T18:49:26Z</time>
      </trkpt>
      <trkpt lat="62.633622356776" lon="17.967223916428">
        <ele>65</ele>
        <time>2018-01-08T18:49:27Z</time>
      </trkpt>
      <trkpt lat="62.633631828323" lon="17.967165494585">
        <ele>64.8</ele>
        <time>2018-01-08T18:49:28Z</time>
      </trkpt>
      <trkpt lat="62.633640042585" lon="17.967114281176">
        <ele>64.6</ele>
        <time>2018-01-08T18:49:29Z</time>
      </trkpt>
      <trkpt lat="62.63364884358" lon="17.967062648672">
        <ele>64.4</ele>
        <time>2018-01-08T18:49:30Z</time>
      </trkpt>
      <trkpt lat="62.6336555491" lon="17.967013866014">
        <ele>64.2</ele>
        <time>2018-01-08T18:49:31Z</time>
      </trkpt>
      <trkpt lat="62.633663344267" lon="17.96695133704">
        <ele>64</ele>
        <time>2018-01-08T18:49:32Z</time>
      </trkpt>
      <trkpt lat="62.633670804158" lon="17.966900291269">
        <ele>63.6</ele>
        <time>2018-01-08T18:49:33Z</time>
      </trkpt>
      <trkpt lat="62.633679102239" lon="17.966837594657">
        <ele>63.6</ele>
        <time>2018-01-08T18:49:34Z</time>
      </trkpt>
      <trkpt lat="62.633685556302" lon="17.96678202266">
        <ele>63.2</ele>
        <time>2018-01-08T18:49:35Z</time>
      </trkpt>
      <trkpt lat="62.633692345641" lon="17.96672754031">
        <ele>63</ele>
        <time>2018-01-08T18:49:36Z</time>
      </trkpt>
      <trkpt lat="62.633700056989" lon="17.966663921689">
        <ele>62.6</ele>
        <time>2018-01-08T18:49:37Z</time>
      </trkpt>
      <trkpt lat="62.633709696174" lon="17.966609020244">
        <ele>62.4</ele>
        <time>2018-01-08T18:49:38Z</time>
      </trkpt>
      <trkpt lat="62.633722017567" lon="17.966560991957">
        <ele>62</ele>
        <time>2018-01-08T18:49:39Z</time>
      </trkpt>
      <trkpt lat="62.633738110815" lon="17.966506174331">
        <ele>61.8</ele>
        <time>2018-01-08T18:49:40Z</time>
      </trkpt>
      <trkpt lat="62.633749342561" lon="17.966456888759">
        <ele>61.4</ele>
        <time>2018-01-08T18:49:41Z</time>
      </trkpt>
      <trkpt lat="62.633760825764" lon="17.966398299278">
        <ele>61.2</ele>
        <time>2018-01-08T18:49:42Z</time>
      </trkpt>
      <trkpt lat="62.633771051682" lon="17.966340045073">
        <ele>61</ele>
        <time>2018-01-08T18:49:43Z</time>
      </trkpt>
      <trkpt lat="62.633780271772" lon="17.966282712877">
        <ele>60.8</ele>
        <time>2018-01-08T18:49:44Z</time>
      </trkpt>
      <trkpt lat="62.633788737491" lon="17.966228314346">
        <ele>60.8</ele>
        <time>2018-01-08T18:49:45Z</time>
      </trkpt>
      <trkpt lat="62.633796784115" lon="17.96617684948">
        <ele>60.6</ele>
        <time>2018-01-08T18:49:46Z</time>
      </trkpt>
      <trkpt lat="62.633804998377" lon="17.966118427637">
        <ele>60.6</ele>
        <time>2018-01-08T18:49:47Z</time>
      </trkpt>
      <trkpt lat="62.633812458268" lon="17.966063526192">
        <ele>60.4</ele>
        <time>2018-01-08T18:49:48Z</time>
      </trkpt>
      <trkpt lat="62.633819666702" lon="17.966005439625">
        <ele>60</ele>
        <time>2018-01-08T18:49:49Z</time>
      </trkpt>
      <trkpt lat="62.633824192928" lon="17.965950454361">
        <ele>59.8</ele>
        <time>2018-01-08T18:49:50Z</time>
      </trkpt>
      <trkpt lat="62.633827042774" lon="17.965899576228">
        <ele>59.8</ele>
        <time>2018-01-08T18:49:51Z</time>
      </trkpt>
      <trkpt lat="62.633828970611" lon="17.965834700322">
        <ele>59.8</ele>
        <time>2018-01-08T18:49:52Z</time>
      </trkpt>
      <trkpt lat="62.633829808801" lon="17.965781391438">
        <ele>59.6</ele>
        <time>2018-01-08T18:49:53Z</time>
      </trkpt>
      <trkpt lat="62.633830563172" lon="17.965726825269">
        <ele>59.4</ele>
        <time>2018-01-08T18:49:54Z</time>
      </trkpt>
      <trkpt lat="62.63382989262" lon="17.965671337091">
        <ele>59.4</ele>
        <time>2018-01-08T18:49:55Z</time>
      </trkpt>
      <trkpt lat="62.633828719154" lon="17.965623895537">
        <ele>59.2</ele>
        <time>2018-01-08T18:49:56Z</time>
      </trkpt>
      <trkpt lat="62.633827880964" lon="17.965570754291">
        <ele>59</ele>
        <time>2018-01-08T18:49:57Z</time>
      </trkpt>
      <trkpt lat="62.63382653986" lon="17.965511242801">
        <ele>58.6</ele>
        <time>2018-01-08T18:49:58Z</time>
      </trkpt>
      <trkpt lat="62.633824612023" lon="17.965459526478">
        <ele>58.4</ele>
        <time>2018-01-08T18:49:59Z</time>
      </trkpt>
      <trkpt lat="62.633823103281" lon="17.965408648345">
        <ele>58</ele>
        <time>2018-01-08T18:50:00Z</time>
      </trkpt>
      <trkpt lat="62.633822265091" lon="17.965361961162">
        <ele>57.8</ele>
        <time>2018-01-08T18:50:01Z</time>
      </trkpt>
      <trkpt lat="62.633819666702" lon="17.965301192387">
        <ele>57.6</ele>
        <time>2018-01-08T18:50:02Z</time>
      </trkpt>
      <trkpt lat="62.633816565399" lon="17.965251990634">
        <ele>57.4</ele>
        <time>2018-01-08T18:50:03Z</time>
      </trkpt>
      <trkpt lat="62.633813631734" lon="17.965193904067">
        <ele>57.2</ele>
        <time>2018-01-08T18:50:04Z</time>
      </trkpt>
      <trkpt lat="62.633812793544" lon="17.965136739509">
        <ele>57</ele>
        <time>2018-01-08T18:50:05Z</time>
      </trkpt>
      <trkpt lat="62.633811033345" lon="17.965090387602">
        <ele>56.8</ele>
        <time>2018-01-08T18:50:06Z</time>
      </trkpt>
      <trkpt lat="62.633808770232" lon="17.965032384854">
        <ele>56.6</ele>
        <time>2018-01-08T18:50:07Z</time>
      </trkpt>
      <trkpt lat="62.633809189327" lon="17.964977818685">
        <ele>56.4</ele>
        <time>2018-01-08T18:50:08Z</time>
      </trkpt>
      <trkpt lat="62.633812374449" lon="17.964930963864">
        <ele>56.2</ele>
        <time>2018-01-08T18:50:09Z</time>
      </trkpt>
      <trkpt lat="62.633821007806" lon="17.964880588645">
        <ele>56.2</ele>
        <time>2018-01-08T18:50:10Z</time>
      </trkpt>
      <trkpt lat="62.633829138249" lon="17.964834739652">
        <ele>56</ele>
        <time>2018-01-08T18:50:11Z</time>
      </trkpt>
      <trkpt lat="62.63384078909" lon="17.964781766044">
        <ele>56</ele>
        <time>2018-01-08T18:50:12Z</time>
      </trkpt>
      <trkpt lat="62.63385755289" lon="17.964740024182">
        <ele>55.8</ele>
        <time>2018-01-08T18:50:13Z</time>
      </trkpt>
      <trkpt lat="62.633878675278" lon="17.964713034464">
        <ele>55.8</ele>
        <time>2018-01-08T18:50:14Z</time>
      </trkpt>
      <trkpt lat="62.633894936164" lon="17.964691828257">
        <ele>55.4</ele>
        <time>2018-01-08T18:50:15Z</time>
      </trkpt>
      <trkpt lat="62.633908347204" lon="17.964679339226">
        <ele>55.4</ele>
        <time>2018-01-08T18:50:16Z</time>
      </trkpt>
      <trkpt lat="62.633930391601" lon="17.964673388077">
        <ele>55.2</ele>
        <time>2018-01-08T18:50:17Z</time>
      </trkpt>
      <trkpt lat="62.633956124034" lon="17.964667436928">
        <ele>54.8</ele>
        <time>2018-01-08T18:50:18Z</time>
      </trkpt>
      <trkpt lat="62.633979844811" lon="17.964662659245">
        <ele>54.8</ele>
        <time>2018-01-08T18:50:19Z</time>
      </trkpt>
      <trkpt lat="62.634004822873" lon="17.964664587082">
        <ele>54.8</ele>
        <time>2018-01-08T18:50:20Z</time>
      </trkpt>
      <trkpt lat="62.6340243527" lon="17.96466559291">
        <ele>54.6</ele>
        <time>2018-01-08T18:50:21Z</time>
      </trkpt>
      <trkpt lat="62.634053270255" lon="17.96466475472">
        <ele>54.6</ele>
        <time>2018-01-08T18:50:22Z</time>
      </trkpt>
      <trkpt lat="62.634078415955" lon="17.964667939842">
        <ele>54.6</ele>
        <time>2018-01-08T18:50:23Z</time>
      </trkpt>
      <trkpt lat="62.634103477836" lon="17.964669029489">
        <ele>54.8</ele>
        <time>2018-01-08T18:50:24Z</time>
      </trkpt>
      <trkpt lat="62.634130383735" lon="17.96466810748">
        <ele>54.8</ele>
        <time>2018-01-08T18:50:25Z</time>
      </trkpt>
      <trkpt lat="62.634153685417" lon="17.964668526575">
        <ele>54.6</ele>
        <time>2018-01-08T18:50:26Z</time>
      </trkpt>
      <trkpt lat="62.634177406194" lon="17.964671124964">
        <ele>54.6</ele>
        <time>2018-01-08T18:50:27Z</time>
      </trkpt>
      <trkpt lat="62.634202803351" lon="17.964672046973">
        <ele>54.6</ele>
        <time>2018-01-08T18:50:28Z</time>
      </trkpt>
      <trkpt lat="62.634227781413" lon="17.964670705869">
        <ele>54.6</ele>
        <time>2018-01-08T18:50:29Z</time>
      </trkpt>
      <trkpt lat="62.634252508018" lon="17.964671963154">
        <ele>54.6</ele>
        <time>2018-01-08T18:50:30Z</time>
      </trkpt>
      <trkpt lat="62.63427497151" lon="17.96467313662">
        <ele>54.6</ele>
        <time>2018-01-08T18:50:31Z</time>
      </trkpt>
      <trkpt lat="62.634302380323" lon="17.964670035317">
        <ele>54.6</ele>
        <time>2018-01-08T18:50:32Z</time>
      </trkpt>
      <trkpt lat="62.634325849643" lon="17.964667185471">
        <ele>54.6</ele>
        <time>2018-01-08T18:50:33Z</time>
      </trkpt>
      <trkpt lat="62.634354180465" lon="17.964666766376">
        <ele>54.8</ele>
        <time>2018-01-08T18:50:34Z</time>
      </trkpt>
      <trkpt lat="62.634379493803" lon="17.964667017833">
        <ele>54.6</ele>
        <time>2018-01-08T18:50:35Z</time>
      </trkpt>
      <trkpt lat="62.634403885132" lon="17.964667939842">
        <ele>54.6</ele>
        <time>2018-01-08T18:50:36Z</time>
      </trkpt>
      <trkpt lat="62.634432383592" lon="17.964669364765">
        <ele>54.6</ele>
        <time>2018-01-08T18:50:37Z</time>
      </trkpt>
      <trkpt lat="62.634458199844" lon="17.964667185471">
        <ele>54.6</ele>
        <time>2018-01-08T18:50:38Z</time>
      </trkpt>
      <trkpt lat="62.634481836802" lon="17.9646664311">
        <ele>54.4</ele>
        <time>2018-01-08T18:50:39Z</time>
      </trkpt>
      <trkpt lat="62.63450882652" lon="17.964668358937">
        <ele>54.4</ele>
        <time>2018-01-08T18:50:40Z</time>
      </trkpt>
      <trkpt lat="62.634531290012" lon="17.964670789688">
        <ele>54.2</ele>
        <time>2018-01-08T18:50:41Z</time>
      </trkpt>
      <trkpt lat="62.634557190083" lon="17.964676405561">
        <ele>54</ele>
        <time>2018-01-08T18:50:42Z</time>
      </trkpt>
      <trkpt lat="62.634584431258" lon="17.964680428873">
        <ele>54</ele>
        <time>2018-01-08T18:50:43Z</time>
      </trkpt>
      <trkpt lat="62.634609325501" lon="17.96468151852">
        <ele>54</ele>
        <time>2018-01-08T18:50:44Z</time>
      </trkpt>
      <trkpt lat="62.634634638839" lon="17.964682189072">
        <ele>53.8</ele>
        <time>2018-01-08T18:50:45Z</time>
      </trkpt>
      <trkpt lat="62.634660203634" lon="17.964680009778">
        <ele>54</ele>
        <time>2018-01-08T18:50:46Z</time>
      </trkpt>
      <trkpt lat="62.634688366818" lon="17.964675232095">
        <ele>54</ele>
        <time>2018-01-08T18:50:47Z</time>
      </trkpt>
      <trkpt lat="62.634714602165" lon="17.964673639534">
        <ele>54</ele>
        <time>2018-01-08T18:50:48Z</time>
      </trkpt>
      <trkpt lat="62.634740921331" lon="17.964673220439">
        <ele>53.8</ele>
        <time>2018-01-08T18:50:49Z</time>
      </trkpt>
      <trkpt lat="62.634765396479" lon="17.96467229843">
        <ele>53.8</ele>
        <time>2018-01-08T18:50:50Z</time>
      </trkpt>
      <trkpt lat="62.634788865799" lon="17.964672046973">
        <ele>53.8</ele>
        <time>2018-01-08T18:50:51Z</time>
      </trkpt>
      <trkpt lat="62.634818202449" lon="17.964664838539">
        <ele>53.8</ele>
        <time>2018-01-08T18:50:52Z</time>
      </trkpt>
      <trkpt lat="62.634842090864" lon="17.964660479951">
        <ele>53.6</ele>
        <time>2018-01-08T18:50:53Z</time>
      </trkpt>
      <trkpt lat="62.634865392546" lon="17.96466224015">
        <ele>53.6</ele>
        <time>2018-01-08T18:50:54Z</time>
      </trkpt>
      <trkpt lat="62.634889867694" lon="17.964666263462">
        <ele>53.4</ele>
        <time>2018-01-08T18:50:55Z</time>
      </trkpt>
      <trkpt lat="62.634912415005" lon="17.964667856023">
        <ele>53.4</ele>
        <time>2018-01-08T18:50:56Z</time>
      </trkpt>
      <trkpt lat="62.634936973972" lon="17.964666766376">
        <ele>53.4</ele>
        <time>2018-01-08T18:50:57Z</time>
      </trkpt>
      <trkpt lat="62.63496564007" lon="17.964663162159">
        <ele>53.4</ele>
        <time>2018-01-08T18:50:58Z</time>
      </trkpt>
      <trkpt lat="62.634992378331" lon="17.964656708096">
        <ele>53.4</ele>
        <time>2018-01-08T18:50:59Z</time>
      </trkpt>
      <trkpt lat="62.635019116592" lon="17.964652265689">
        <ele>53.2</ele>
        <time>2018-01-08T18:51:00Z</time>
      </trkpt>
      <trkpt lat="62.635040406618" lon="17.96464799092">
        <ele>53.2</ele>
        <time>2018-01-08T18:51:01Z</time>
      </trkpt>
      <trkpt lat="62.635066809603" lon="17.964640782486">
        <ele>53</ele>
        <time>2018-01-08T18:51:02Z</time>
      </trkpt>
      <trkpt lat="62.635089608371" lon="17.964634076966">
        <ele>53</ele>
        <time>2018-01-08T18:51:03Z</time>
      </trkpt>
      <trkpt lat="62.635115005528" lon="17.964624940695">
        <ele>52.8</ele>
        <time>2018-01-08T18:51:04Z</time>
      </trkpt>
      <trkpt lat="62.635139564495" lon="17.964613373673">
        <ele>52.8</ele>
        <time>2018-01-08T18:51:05Z</time>
      </trkpt>
      <trkpt lat="62.635163788186" lon="17.964605075592">
        <ele>52.8</ele>
        <time>2018-01-08T18:51:06Z</time>
      </trkpt>
      <trkpt lat="62.635186335497" lon="17.964596609873">
        <ele>52.6</ele>
        <time>2018-01-08T18:51:07Z</time>
      </trkpt>
      <trkpt lat="62.63520787698" lon="17.964587305964">
        <ele>52.6</ele>
        <time>2018-01-08T18:51:08Z</time>
      </trkpt>
      <trkpt lat="62.635228915549" lon="17.964576912408">
        <ele>52.6</ele>
        <time>2018-01-08T18:51:09Z</time>
      </trkpt>
      <trkpt lat="62.63525397743" lon="17.96456501011">
        <ele>52.6</ele>
        <time>2018-01-08T18:51:10Z</time>
      </trkpt>
      <trkpt lat="62.635275435094" lon="17.964554532735">
        <ele>52.6</ele>
        <time>2018-01-08T18:51:11Z</time>
      </trkpt>
      <trkpt lat="62.635306364305" lon="17.964545145007">
        <ele>52.6</ele>
        <time>2018-01-08T18:51:12Z</time>
      </trkpt>
      <trkpt lat="62.635332012919" lon="17.964535422003">
        <ele>52.6</ele>
        <time>2018-01-08T18:51:13Z</time>
      </trkpt>
      <trkpt lat="62.635356739524" lon="17.964521508049">
        <ele>52.6</ele>
        <time>2018-01-08T18:51:14Z</time>
      </trkpt>
      <trkpt lat="62.635380879396" lon="17.964509019018">
        <ele>52.6</ele>
        <time>2018-01-08T18:51:15Z</time>
      </trkpt>
      <trkpt lat="62.635404600173" lon="17.964495272702">
        <ele>52.6</ele>
        <time>2018-01-08T18:51:16Z</time>
      </trkpt>
      <trkpt lat="62.635431589891" lon="17.964477251617">
        <ele>52.4</ele>
        <time>2018-01-08T18:51:17Z</time>
      </trkpt>
      <trkpt lat="62.635457070867" lon="17.964460571636">
        <ele>52.4</ele>
        <time>2018-01-08T18:51:18Z</time>
      </trkpt>
      <trkpt lat="62.635480875463" lon="17.964446322406">
        <ele>52.4</ele>
        <time>2018-01-08T18:51:19Z</time>
      </trkpt>
      <trkpt lat="62.635504680059" lon="17.964431989357">
        <ele>52.2</ele>
        <time>2018-01-08T18:51:20Z</time>
      </trkpt>
      <trkpt lat="62.635528736112" lon="17.964418243041">
        <ele>52.2</ele>
        <time>2018-01-08T18:51:21Z</time>
      </trkpt>
      <trkpt lat="62.635555474373" lon="17.964407514209">
        <ele>52.2</ele>
        <time>2018-01-08T18:51:22Z</time>
      </trkpt>
      <trkpt lat="62.635578859874" lon="17.964394773721">
        <ele>52</ele>
        <time>2018-01-08T18:51:23Z</time>
      </trkpt>
      <trkpt lat="62.635605011402" lon="17.96437893193">
        <ele>51.8</ele>
        <time>2018-01-08T18:51:24Z</time>
      </trkpt>
      <trkpt lat="62.635628061627" lon="17.96436300632">
        <ele>51.8</ele>
        <time>2018-01-08T18:51:25Z</time>
      </trkpt>
      <trkpt lat="62.635649435472" lon="17.964351020203">
        <ele>51.8</ele>
        <time>2018-01-08T18:51:26Z</time>
      </trkpt>
      <trkpt lat="62.635671228412" lon="17.964336519516">
        <ele>51.6</ele>
        <time>2018-01-08T18:51:27Z</time>
      </trkpt>
      <trkpt lat="62.635695116827" lon="17.964316486775">
        <ele>51.6</ele>
        <time>2018-01-08T18:51:28Z</time>
      </trkpt>
      <trkpt lat="62.635718753785" lon="17.964300561165">
        <ele>51.6</ele>
        <time>2018-01-08T18:51:29Z</time>
      </trkpt>
      <trkpt lat="62.635743228933" lon="17.964286144297">
        <ele>51.6</ele>
        <time>2018-01-08T18:51:30Z</time>
      </trkpt>
      <trkpt lat="62.6357677879" lon="17.964273487628">
        <ele>51.6</ele>
        <time>2018-01-08T18:51:31Z</time>
      </trkpt>
      <trkpt lat="62.635789161745" lon="17.964252951973">
        <ele>51.6</ele>
        <time>2018-01-08T18:51:32Z</time>
      </trkpt>
      <trkpt lat="62.63581137378" lon="17.964239624752">
        <ele>51.6</ele>
        <time>2018-01-08T18:51:33Z</time>
      </trkpt>
      <trkpt lat="62.63583568129" lon="17.964221938943">
        <ele>51.4</ele>
        <time>2018-01-08T18:51:34Z</time>
      </trkpt>
      <trkpt lat="62.63585747423" lon="17.964203247306">
        <ele>51.4</ele>
        <time>2018-01-08T18:51:35Z</time>
      </trkpt>
      <trkpt lat="62.635880189179" lon="17.964185142402">
        <ele>51.4</ele>
        <time>2018-01-08T18:51:36Z</time>
      </trkpt>
      <trkpt lat="62.635904915784" lon="17.964162762729">
        <ele>51.4</ele>
        <time>2018-01-08T18:51:37Z</time>
      </trkpt>
      <trkpt lat="62.635927798371" lon="17.96414172416">
        <ele>51.2</ele>
        <time>2018-01-08T18:51:38Z</time>
      </trkpt>
      <trkpt lat="62.635949758949" lon="17.96412579855">
        <ele>51.2</ele>
        <time>2018-01-08T18:51:39Z</time>
      </trkpt>
      <trkpt lat="62.63597398264" lon="17.964114147709">
        <ele>51</ele>
        <time>2018-01-08T18:51:40Z</time>
      </trkpt>
      <trkpt lat="62.635997200503" lon="17.964114315347">
        <ele>51</ele>
        <time>2018-01-08T18:51:41Z</time>
      </trkpt>
      <trkpt lat="62.636026872429" lon="17.964119595944">
        <ele>51</ele>
        <time>2018-01-08T18:51:42Z</time>
      </trkpt>
      <trkpt lat="62.636053945966" lon="17.964116494641">
        <ele>50.8</ele>
        <time>2018-01-08T18:51:43Z</time>
      </trkpt>
      <trkpt lat="62.636082360607" lon="17.964112136053">
        <ele>50.8</ele>
        <time>2018-01-08T18:51:44Z</time>
      </trkpt>
      <trkpt lat="62.636109601782" lon="17.964117165193">
        <ele>50.8</ele>
        <time>2018-01-08T18:51:45Z</time>
      </trkpt>
      <trkpt lat="62.636134998939" lon="17.964127307292">
        <ele>50.8</ele>
        <time>2018-01-08T18:51:46Z</time>
      </trkpt>
      <trkpt lat="62.636163581218" lon="17.964141556522">
        <ele>50.8</ele>
        <time>2018-01-08T18:51:47Z</time>
      </trkpt>
      <trkpt lat="62.636187804909" lon="17.9641635171">
        <ele>50.6</ele>
        <time>2018-01-08T18:51:48Z</time>
      </trkpt>
      <trkpt lat="62.636210100763" lon="17.964184052755">
        <ele>50.8</ele>
        <time>2018-01-08T18:51:49Z</time>
      </trkpt>
      <trkpt lat="62.636231558427" lon="17.964202576754">
        <ele>50.6</ele>
        <time>2018-01-08T18:51:50Z</time>
      </trkpt>
      <trkpt lat="62.636251758806" lon="17.964220597839">
        <ele>50.6</ele>
        <time>2018-01-08T18:51:51Z</time>
      </trkpt>
      <trkpt lat="62.636276401592" lon="17.964243815702">
        <ele>50.4</ele>
        <time>2018-01-08T18:51:52Z</time>
      </trkpt>
      <trkpt lat="62.636297691618" lon="17.964251778507">
        <ele>50.4</ele>
        <time>2018-01-08T18:51:53Z</time>
      </trkpt>
      <trkpt lat="62.636321663852" lon="17.964248761023">
        <ele>50.4</ele>
        <time>2018-01-08T18:51:54Z</time>
      </trkpt>
      <trkpt lat="62.636345971362" lon="17.964240882037">
        <ele>50.4</ele>
        <time>2018-01-08T18:51:55Z</time>
      </trkpt>
      <trkpt lat="62.636368099578" lon="17.964227973911">
        <ele>50.4</ele>
        <time>2018-01-08T18:51:56Z</time>
      </trkpt>
      <trkpt lat="62.636392742364" lon="17.964212383577">
        <ele>50.4</ele>
        <time>2018-01-08T18:51:57Z</time>
      </trkpt>
      <trkpt lat="62.636419480625" lon="17.964197212338">
        <ele>50.6</ele>
        <time>2018-01-08T18:51:58Z</time>
      </trkpt>
      <trkpt lat="62.636443536678" lon="17.964178772158">
        <ele>50.6</ele>
        <time>2018-01-08T18:51:59Z</time>
      </trkpt>
      <trkpt lat="62.636467760369" lon="17.964157817408">
        <ele>50.6</ele>
        <time>2018-01-08T18:52:00Z</time>
      </trkpt>
      <trkpt lat="62.636488547481" lon="17.964139628685">
        <ele>50.8</ele>
        <time>2018-01-08T18:52:01Z</time>
      </trkpt>
      <trkpt lat="62.636511765344" lon="17.964116410822">
        <ele>50.6</ele>
        <time>2018-01-08T18:52:02Z</time>
      </trkpt>
      <trkpt lat="62.636532552456" lon="17.964095539891">
        <ele>50.6</ele>
        <time>2018-01-08T18:52:03Z</time>
      </trkpt>
      <trkpt lat="62.636555602681" lon="17.964067544345">
        <ele>50.4</ele>
        <time>2018-01-08T18:52:04Z</time>
      </trkpt>
      <trkpt lat="62.636574378137" lon="17.964037453324">
        <ele>50.4</ele>
        <time>2018-01-08T18:52:05Z</time>
      </trkpt>
      <trkpt lat="62.636592985955" lon="17.964014403099">
        <ele>50.2</ele>
        <time>2018-01-08T18:52:06Z</time>
      </trkpt>
      <trkpt lat="62.636616539094" lon="17.963999483317">
        <ele>50.2</ele>
        <time>2018-01-08T18:52:07Z</time>
      </trkpt>
      <trkpt lat="62.636639086405" lon="17.964001494973">
        <ele>50.2</ele>
        <time>2018-01-08T18:52:08Z</time>
      </trkpt>
      <trkpt lat="62.63665962206" lon="17.964018761687">
        <ele>50.2</ele>
        <time>2018-01-08T18:52:09Z</time>
      </trkpt>
      <trkpt lat="62.636680995905" lon="17.964050612907">
        <ele>50</ele>
        <time>2018-01-08T18:52:10Z</time>
      </trkpt>
      <trkpt lat="62.636700274275" lon="17.96407550715">
        <ele>50</ele>
        <time>2018-01-08T18:52:11Z</time>
      </trkpt>
      <trkpt lat="62.636724078871" lon="17.964104759981">
        <ele>50</ele>
        <time>2018-01-08T18:52:12Z</time>
      </trkpt>
      <trkpt lat="62.636746961458" lon="17.964128983672">
        <ele>49.8</ele>
        <time>2018-01-08T18:52:13Z</time>
      </trkpt>
      <trkpt lat="62.636769927864" lon="17.964148764956">
        <ele>49.8</ele>
        <time>2018-01-08T18:52:14Z</time>
      </trkpt>
      <trkpt lat="62.636791888442" lon="17.964169216792">
        <ele>49.8</ele>
        <time>2018-01-08T18:52:15Z</time>
      </trkpt>
      <trkpt lat="62.636813681382" lon="17.964193189026">
        <ele>49.8</ele>
        <time>2018-01-08T18:52:16Z</time>
      </trkpt>
      <trkpt lat="62.636837821254" lon="17.964220178744">
        <ele>49.8</ele>
        <time>2018-01-08T18:52:17Z</time>
      </trkpt>
      <trkpt lat="62.636859698013" lon="17.964244570073">
        <ele>49.8</ele>
        <time>2018-01-08T18:52:18Z</time>
      </trkpt>
      <trkpt lat="62.636883167333" lon="17.964271308334">
        <ele>49.8</ele>
        <time>2018-01-08T18:52:19Z</time>
      </trkpt>
      <trkpt lat="62.636903367712" lon="17.964298800966">
        <ele>49.6</ele>
        <time>2018-01-08T18:52:20Z</time>
      </trkpt>
      <trkpt lat="62.636920131512" lon="17.96432361139">
        <ele>49.6</ele>
        <time>2018-01-08T18:52:21Z</time>
      </trkpt>
      <trkpt lat="62.636944355203" lon="17.964361162302">
        <ele>49.6</ele>
        <time>2018-01-08T18:52:22Z</time>
      </trkpt>
      <trkpt lat="62.63696137046" lon="17.964392426789">
        <ele>49.6</ele>
        <time>2018-01-08T18:52:23Z</time>
      </trkpt>
      <trkpt lat="62.636978469536" lon="17.964426205846">
        <ele>49.6</ele>
        <time>2018-01-08T18:52:24Z</time>
      </trkpt>
      <trkpt lat="62.636996909716" lon="17.964461158369">
        <ele>49.4</ele>
        <time>2018-01-08T18:52:25Z</time>
      </trkpt>
      <trkpt lat="62.637014344068" lon="17.964490578838">
        <ele>49.6</ele>
        <time>2018-01-08T18:52:26Z</time>
      </trkpt>
      <trkpt lat="62.637033203343" lon="17.964518825841">
        <ele>49.4</ele>
        <time>2018-01-08T18:52:27Z</time>
      </trkpt>
      <trkpt lat="62.637052984627" lon="17.964557214943">
        <ele>49.4</ele>
        <time>2018-01-08T18:52:28Z</time>
      </trkpt>
      <trkpt lat="62.63706865878" lon="17.964591329276">
        <ele>49.4</ele>
        <time>2018-01-08T18:52:29Z</time>
      </trkpt>
      <trkpt lat="62.637084165295" lon="17.964624018686">
        <ele>49.2</ele>
        <time>2018-01-08T18:52:30Z</time>
      </trkpt>
      <trkpt lat="62.63710051" lon="17.964647571825">
        <ele>49.2</ele>
        <time>2018-01-08T18:52:31Z</time>
      </trkpt>
      <trkpt lat="62.63711978837" lon="17.964661988693">
        <ele>49.2</ele>
        <time>2018-01-08T18:52:32Z</time>
      </trkpt>
      <trkpt lat="62.637135462523" lon="17.964651930413">
        <ele>49.2</ele>
        <time>2018-01-08T18:52:33Z</time>
      </trkpt>
      <trkpt lat="62.637156417273" lon="17.964628544912">
        <ele>49.2</ele>
        <time>2018-01-08T18:52:34Z</time>
      </trkpt>
      <trkpt lat="62.637175276548" lon="17.964601471375">
        <ele>49.2</ele>
        <time>2018-01-08T18:52:35Z</time>
      </trkpt>
      <trkpt lat="62.637190447787" lon="17.964579762254">
        <ele>49.2</ele>
        <time>2018-01-08T18:52:36Z</time>
      </trkpt>
      <trkpt lat="62.637209307062" lon="17.964558723685">
        <ele>49.2</ele>
        <time>2018-01-08T18:52:37Z</time>
      </trkpt>
      <trkpt lat="62.637226489957" lon="17.964536008736">
        <ele>49.2</ele>
        <time>2018-01-08T18:52:38Z</time>
      </trkpt>
      <trkpt lat="62.637242667024" lon="17.964513377606">
        <ele>49</ele>
        <time>2018-01-08T18:52:39Z</time>
      </trkpt>
      <trkpt lat="62.637262532127" lon="17.9644904112">
        <ele>49</ele>
        <time>2018-01-08T18:52:40Z</time>
      </trkpt>
      <trkpt lat="62.637280553212" lon="17.964465014043">
        <ele>49</ele>
        <time>2018-01-08T18:52:41Z</time>
      </trkpt>
      <trkpt lat="62.63730083741" lon="17.964430815891">
        <ele>48.8</ele>
        <time>2018-01-08T18:52:42Z</time>
      </trkpt>
      <trkpt lat="62.637319780504" lon="17.964395360454">
        <ele>48.8</ele>
        <time>2018-01-08T18:52:43Z</time>
      </trkpt>
      <trkpt lat="62.637339142693" lon="17.964362922501">
        <ele>48.6</ele>
        <time>2018-01-08T18:52:44Z</time>
      </trkpt>
      <trkpt lat="62.637357499054" lon="17.964338195896">
        <ele>48.4</ele>
        <time>2018-01-08T18:52:45Z</time>
      </trkpt>
      <trkpt lat="62.637374681949" lon="17.964317576422">
        <ele>48.2</ele>
        <time>2018-01-08T18:52:46Z</time>
      </trkpt>
    </trkseg>
  </trk>
</gpx>